[[{"header":{"parameterUnit":"m.s-1","parameterCategory":1,"la1":31.0,"la2":29.5877,"lo1":-88.7671,"lo2":-86.6584,"dy":0.0162,"dx":0.0185,"nx":115,"ny":88,"refTime":"2023-04-15T06:00:00:Z","depth":0,"parameterNumber":2,"parameterNumberName":"U-component_of_WINDS"},"data":[0.0,0.0,0.0,0.0,0.0,0.0,0.0,0.0,0.0,0.0,0.0,0.0,0.0,0.0,0.0,0.0,0.0,0.0,0.0,0.0,0.0,0.0,0.0,0.0,0.0,0.0,0.0,0.0,0.0,0.0,0.0,0.0,0.0,0.0,0.0,0.0,0.0,0.0,0.0,0.0,0.0,0.0,0.0,0.0,0.0,0.0,0.0,0.0,0.0,0.0,0.0,0.0,0.0,0.0,0.0,0.0,0.0,0.0,0.0,0.0,0.0,0.0,0.0,0.0,0.0,0.0,0.0,0.0,0.0,0.0,0.0,0.0,0.0,0.0,0.0,0.0,0.0,0.0,0.0,0.0,0.0,0.0,0.0,0.0,0.0,0.0,0.0,0.0,0.0,0.0,0.0,0.0,0.0,0.0,0.0,0.0,0.0,0.0,0.0,0.0,0.0,0.0,0.0,0.0,0.0,0.0,0.0,0.0,0.0,0.0,0.0,0.0,0.0,0.0,0.0,0.0,0.0,0.0,0.0,0.0,0.0,0.0,0.0,0.0,0.0,0.0,0.0,0.0,0.0,0.0,0.0,0.0,0.0,0.0,0.0,0.0,0.0,0.0,0.0,0.0,0.0,0.0,0.0,0.0,0.0,0.0,0.0,0.0,0.0,0.0,0.0,0.0,0.0,0.0,0.0,0.0,0.0,0.0,0.0,0.0,0.0,0.0,0.0,0.0,0.0,0.0,0.0,0.0,0.0,0.0,0.0,0.0,0.0,0.0,0.0,0.0,0.0,0.0,0.0,0.0,0.0,0.0,0.0,0.0,0.0,0.0,0.0,0.0,0.0,0.0,0.0,0.0,0.0,0.0,0.0,0.0,0.0,0.0,0.0,0.0,0.0,0.0,0.0,0.0,0.0,0.0,0.0,0.0,0.0,0.0,0.0,0.0,0.0,0.0,0.0,0.0,0.0,0.0,0.0,0.0,0.0,0.0,0.0,0.0,0.0,0.0,0.0,0.0,0.0,0.0,0.0,0.0,0.0,0.0,0.0,0.0,0.0,0.0,0.0,0.0,0.0,0.0,0.0,0.0,0.0,0.0,0.0,0.0,0.0,0.0,0.0,0.0,0.0,0.0,0.0,0.0,0.0,0.0,0.0,0.0,0.0,0.0,0.0,0.0,0.0,0.0,0.0,0.0,0.0,0.0,0.0,0.0,0.0,0.0,0.0,0.0,0.0,0.0,0.0,0.0,0.0,0.0,0.0,0.0,0.0,0.0,0.0,0.0,0.0,0.0,0.0,0.0,0.0,0.0,0.0,0.0,0.0,0.0,0.0,0.0,0.0,0.0,0.0,0.0,0.0,0.0,0.0,0.0,0.0,0.0,0.0,0.0,0.0,0.0,0.0,0.0,0.0,0.0,0.0,0.0,0.0,0.0,0.0,0.0,0.0,0.0,0.0,0.0,0.0,0.0,0.0,0.0,0.0,0.0,0.0,0.0,0.0,0.0,0.0,0.0,0.0,0.0,0.0,0.0,0.0,0.0,0.0,0.0,0.0,0.0,0.0,0.0,0.0,0.0,0.0,0.0,0.0,0.0,0.0,0.0,0.0,0.0,0.0,0.0,0.0,0.0,0.0,0.0,0.0,0.0,0.0,0.0,0.0,0.0,0.0,0.0,0.0,0.0,0.0,0.0,0.0,0.0,0.0,0.0,0.0,0.0,0.0,0.0,0.0,0.0,0.0,0.0,0.0,0.0,0.0,0.0,0.0,0.0,0.0,0.0,0.0,0.0,0.0,0.0,0.0,0.0,0.0,0.0,0.0,0.0,0.0,0.0,0.0,0.0,0.0,0.0,0.0,0.0,0.0,0.0,0.0,0.0,0.0,0.0,0.0,0.0,0.0,0.0,0.0,0.0,0.0,0.0,0.0,0.0,0.0,0.0,0.0,0.0,0.0,0.0,0.0,0.0,0.0,0.0,0.0,0.0,0.0,0.0,0.0,0.0,0.0,0.0,0.0,0.0,0.0,0.0,0.0,0.0,0.0,0.0,0.0,0.0,0.0,0.0,0.0,0.0,0.0,0.0,0.0,0.0,0.0,0.0,0.0,0.0,0.0,0.0,0.0,0.0,0.0,0.0,0.0,0.0,0.0,0.0,0.0,0.0,0.0,0.0,0.0,0.0,0.0,0.0,0.0,0.0,0.0,0.0,0.0,0.0,0.0,0.0,0.0,0.0,0.0,0.0,0.0,0.0,0.0,0.0,0.0,0.0,0.0,0.0,0.0,0.0,0.0,0.0,0.0,0.0,0.0,0.0,0.0,0.0,0.0,0.0,0.0,0.0,0.0,0.0,0.0,0.0,0.0,0.0,0.0,0.0,0.0,0.0,0.0,0.0,0.0,0.0,0.0,0.0,0.0,0.0,0.0,0.0,0.0,0.0,0.0,0.0,0.0,0.0,0.0,0.0,0.0,0.0,0.0,0.0,0.0,0.0,0.0,0.0,0.0,0.0,0.0,0.0,0.0,0.0,0.0,0.0,0.0,0.0,0.0,0.0,0.0,0.0,0.0,0.0,0.0,0.0,0.0,0.0,0.0,0.0,0.0,0.0,0.0,0.0,0.0,0.0,0.0,0.0,0.0,0.0,0.0,0.0,0.0,0.0,0.0,0.0,0.0,0.0,0.0,0.0,0.0,0.0,0.0,0.0,0.0,0.0,0.0,0.0,0.0,0.0,0.0,0.0,0.0,0.0,0.0,0.0,0.0,0.0,0.0,0.0,0.0,0.0,0.0,0.0,0.0,0.0,0.0,0.0,0.0,0.0,0.0,0.0,0.0,0.0,0.0,0.0,0.0,0.0,0.0,0.0,0.0,0.0,0.0,0.0,0.0,0.0,0.0,0.0,0.0,0.0,0.0,0.0,0.0,0.0,0.0,0.0,0.0,0.0,0.0,0.0,0.0,0.0,0.0,0.0,0.0,0.0,0.0,0.0,0.0,0.0,0.0,0.0,0.0,0.0,0.0,0.0,0.0,0.0,0.0,0.0,0.0,0.0,0.0,0.0,0.0,0.0,0.0,0.0,0.0,0.0,0.0,0.0,0.0,0.0,0.0,0.0,0.0,0.0,0.0,0.0,0.0,0.0,0.0,0.0,0.0,0.0,0.0,0.0,0.0,0.0,0.0,0.0,0.0,0.0,0.0,0.0,0.0,0.0,0.0,0.0,0.0,0.0,0.0,0.0,0.0,0.0,0.0,0.0,0.0,0.0,0.0,0.0,0.0,0.0,0.0,0.0,0.0,0.0,0.0,0.0,0.0,0.0,0.0,0.0,0.0,0.0,0.0,0.0,0.0,0.0,0.0,0.0,0.0,0.0,0.0,0.0,0.0,0.0,0.0,0.0,0.0,0.0,0.0,0.0,0.0,0.0,0.0,0.0,0.0,0.0,0.0,0.0,0.0,0.0,0.0,0.0,0.0,0.0,0.0,0.0,0.0,0.0,0.0,0.0,0.0,0.0,0.0,0.0,0.0,0.0,0.0,0.0,0.0,0.0,0.0,0.0,0.0,0.0,0.0,0.0,0.0,0.0,0.0,0.0,0.0,0.0,0.0,0.0,0.0,0.0,0.0,0.0,0.0,0.0,0.0,0.0,0.0,0.0,0.0,0.0,0.0,0.0,0.0,0.0,0.0,0.0,0.0,0.0,0.0,0.0,0.0,0.0,0.0,0.0,0.0,0.0,0.0,0.0,0.0,0.0,0.0,0.0,0.0,0.0,0.0,0.0,0.0,0.0,0.0,0.0,0.0,0.0,0.0,0.0,0.0,0.0,0.0,0.0,0.0,0.0,0.0,0.0,0.0,0.0,0.0,0.0,0.0,0.0,0.0,0.0,0.0,0.0,0.0,0.0,0.0,0.0,0.0,0.0,0.0,0.0,0.0,0.0,0.0,0.0,0.0,0.0,0.0,0.0,0.0,0.0,0.0,0.0,0.0,0.0,0.0,0.0,0.0,0.0,0.0,0.0,0.0,0.0,0.0,0.0,0.0,0.0,0.0,0.0,0.0,0.0,0.0,0.0,0.0,0.0,0.0,0.0,0.0,0.0,0.0,0.0,0.0,0.0,0.0,0.0,0.0,0.0,0.0,0.0,0.0,0.0,0.0,0.0,0.0,0.0,0.0,0.0,0.0,0.0,0.0,0.0,0.0,0.0,0.0,0.0,0.0,0.0,0.0,0.0,0.0,0.0,0.0,0.0,0.0,0.0,0.0,0.0,0.0,0.0,0.0,0.0,0.0,0.0,-2.5829,0.0,0.0,0.0,0.0,0.0,0.0,0.0,0.0,0.0,0.0,0.0,0.0,0.0,0.0,0.0,0.0,0.0,0.0,0.0,0.0,0.0,0.0,0.0,0.0,0.0,0.0,0.0,0.0,0.0,0.0,0.0,0.0,0.0,0.0,0.0,0.0,0.0,0.0,0.0,0.0,0.0,0.0,0.0,0.0,0.0,0.0,0.0,0.0,0.0,0.0,0.0,0.0,0.0,0.0,0.0,0.0,0.0,0.0,0.0,0.0,0.0,0.0,0.0,0.0,0.0,0.0,0.0,0.0,0.0,0.0,0.0,0.0,0.0,0.0,0.0,0.0,0.0,0.0,0.0,0.0,0.0,0.0,0.0,0.0,0.0,0.0,0.0,0.0,0.0,0.0,0.0,0.0,0.0,0.0,0.0,0.0,0.0,0.0,0.0,0.0,0.0,0.0,0.0,0.0,0.0,0.0,0.0,0.0,0.0,0.0,-2.8469,-2.8019,-2.7473,-2.6977,-2.6494,0.0,0.0,0.0,0.0,0.0,0.0,0.0,0.0,0.0,0.0,0.0,0.0,0.0,0.0,0.0,0.0,0.0,0.0,0.0,0.0,0.0,0.0,0.0,0.0,0.0,0.0,0.0,0.0,0.0,0.0,0.0,0.0,0.0,0.0,0.0,0.0,0.0,0.0,0.0,0.0,0.0,0.0,0.0,0.0,0.0,0.0,0.0,0.0,0.0,0.0,0.0,0.0,0.0,0.0,0.0,0.0,0.0,0.0,0.0,0.0,0.0,0.0,0.0,0.0,0.0,0.0,0.0,0.0,0.0,0.0,0.0,0.0,0.0,0.0,0.0,0.0,0.0,0.0,0.0,0.0,0.0,0.0,0.0,0.0,0.0,0.0,0.0,0.0,0.0,0.0,0.0,0.0,0.0,0.0,0.0,0.0,0.0,0.0,0.0,0.0,0.0,0.0,0.0,0.0,0.0,0.0,0.0,0.0,0.0,0.0,0.0,0.0,-2.7691,-2.725,-2.7197,0.0,0.0,0.0,0.0,0.0,0.0,0.0,0.0,0.0,0.0,0.0,0.0,0.0,0.0,0.0,0.0,0.0,0.0,0.0,0.0,0.0,0.0,0.0,0.0,0.0,0.0,0.0,0.0,0.0,0.0,0.0,0.0,0.0,0.0,0.0,0.0,0.0,0.0,0.0,0.0,0.0,0.0,0.0,0.0,0.0,0.0,0.0,0.0,0.0,0.0,0.0,0.0,0.0,0.0,0.0,0.0,0.0,0.0,0.0,0.0,0.0,0.0,0.0,0.0,0.0,0.0,0.0,0.0,0.0,0.0,0.0,0.0,0.0,0.0,0.0,0.0,0.0,0.0,0.0,0.0,0.0,0.0,0.0,0.0,0.0,0.0,0.0,0.0,0.0,0.0,0.0,0.0,0.0,0.0,0.0,0.0,0.0,0.0,0.0,0.0,0.0,0.0,0.0,0.0,0.0,0.0,0.0,0.0,0.0,0.0,-2.8458,-2.8327,-2.8147,0.0,-2.7826,0.0,0.0,0.0,0.0,0.0,0.0,0.0,0.0,0.0,0.0,0.0,0.0,0.0,0.0,0.0,0.0,0.0,0.0,0.0,0.0,0.0,0.0,0.0,0.0,0.0,0.0,0.0,0.0,0.0,0.0,0.0,0.0,0.0,0.0,0.0,0.0,0.0,0.0,0.0,0.0,0.0,0.0,0.0,0.0,0.0,0.0,0.0,0.0,0.0,0.0,0.0,0.0,0.0,0.0,0.0,0.0,0.0,0.0,0.0,0.0,0.0,0.0,0.0,0.0,0.0,0.0,0.0,0.0,0.0,0.0,0.0,0.0,0.0,0.0,0.0,0.0,0.0,0.0,0.0,0.0,0.0,0.0,0.0,0.0,0.0,0.0,0.0,0.0,0.0,0.0,0.0,0.0,0.0,0.0,0.0,0.0,0.0,0.0,0.0,0.0,0.0,0.0,0.0,0.0,0.0,0.0,0.0,0.0,0.0,0.0,-2.9327,-2.9719,-2.9098,-2.8435,0.0,0.0,0.0,0.0,0.0,0.0,0.0,0.0,0.0,0.0,0.0,0.0,0.0,0.0,0.0,0.0,0.0,0.0,0.0,0.0,0.0,0.0,0.0,0.0,0.0,0.0,0.0,0.0,0.0,0.0,0.0,0.0,0.0,0.0,0.0,0.0,0.0,0.0,0.0,0.0,0.0,0.0,0.0,0.0,0.0,0.0,0.0,0.0,0.0,0.0,0.0,0.0,0.0,0.0,0.0,0.0,0.0,0.0,0.0,0.0,0.0,0.0,0.0,0.0,0.0,0.0,0.0,0.0,0.0,0.0,0.0,0.0,0.0,0.0,0.0,0.0,0.0,0.0,0.0,0.0,0.0,0.0,0.0,0.0,0.0,0.0,0.0,0.0,0.0,0.0,0.0,0.0,0.0,0.0,0.0,0.0,0.0,0.0,0.0,0.0,0.0,0.0,0.0,0.0,0.0,0.0,0.0,0.0,0.0,0.0,-2.962,-2.9918,-3.049,-2.9615,-2.8735,-2.7982,0.0,0.0,0.0,0.0,0.0,0.0,0.0,0.0,0.0,0.0,0.0,0.0,0.0,0.0,0.0,0.0,0.0,0.0,0.0,0.0,0.0,0.0,0.0,0.0,0.0,0.0,0.0,0.0,0.0,0.0,0.0,0.0,0.0,0.0,0.0,0.0,0.0,0.0,0.0,0.0,0.0,0.0,0.0,0.0,0.0,0.0,0.0,0.0,0.0,0.0,0.0,0.0,0.0,0.0,0.0,0.0,0.0,0.0,0.0,0.0,0.0,0.0,0.0,0.0,0.0,0.0,0.0,0.0,0.0,0.0,0.0,0.0,0.0,0.0,0.0,0.0,0.0,0.0,0.0,0.0,0.0,0.0,0.0,0.0,0.0,0.0,0.0,0.0,0.0,0.0,0.0,0.0,0.0,0.0,0.0,0.0,0.0,0.0,0.0,0.0,0.0,0.0,0.0,0.0,0.0,0.0,0.0,0.0,-2.9665,-2.9656,-2.9869,-3.0315,-2.9526,-2.8996,0.0,0.0,0.0,0.0,0.0,0.0,0.0,0.0,0.0,0.0,0.0,0.0,0.0,0.0,0.0,0.0,0.0,0.0,0.0,0.0,0.0,0.0,0.0,0.0,0.0,0.0,0.0,0.0,0.0,0.0,0.0,0.0,0.0,0.0,0.0,0.0,0.0,0.0,0.0,0.0,0.0,0.0,0.0,0.0,0.0,0.0,0.0,0.0,0.0,0.0,0.0,0.0,0.0,0.0,0.0,0.0,0.0,0.0,0.0,0.0,0.0,0.0,0.0,0.0,0.0,0.0,0.0,0.0,0.0,0.0,0.0,0.0,0.0,0.0,0.0,0.0,0.0,0.0,0.0,0.0,0.0,0.0,0.0,0.0,0.0,0.0,0.0,0.0,0.0,0.0,0.0,0.0,0.0,0.0,0.0,0.0,0.0,0.0,0.0,0.0,0.0,0.0,0.0,0.0,0.0,0.0,0.0,0.0,0.0,-3.0514,-3.1355,-3.1586,-3.122,-3.0827,-3.0106,0.0,0.0,0.0,0.0,0.0,0.0,0.0,0.0,0.0,0.0,0.0,0.0,0.0,0.0,0.0,0.0,0.0,0.0,0.0,0.0,0.0,0.0,0.0,0.0,0.0,0.0,0.0,0.0,0.0,0.0,0.0,0.0,0.0,0.0,0.0,0.0,0.0,0.0,0.0,0.0,0.0,0.0,0.0,0.0,0.0,0.0,0.0,0.0,0.0,0.0,0.0,0.0,0.0,0.0,0.0,0.0,0.0,0.0,0.0,0.0,0.0,0.0,0.0,0.0,0.0,0.0,0.0,0.0,0.0,0.0,0.0,0.0,0.0,0.0,0.0,0.0,0.0,0.0,0.0,0.0,0.0,0.0,0.0,0.0,0.0,0.0,0.0,0.0,0.0,0.0,0.0,0.0,0.0,0.0,0.0,0.0,0.0,0.0,0.0,0.0,0.0,0.0,0.0,0.0,0.0,0.0,0.0,0.0,0.0,-3.1387,0.0,-3.2788,-3.2132,-3.1726,-3.093,0.0,0.0,0.0,0.0,0.0,0.0,0.0,0.0,0.0,0.0,0.0,0.0,0.0,0.0,0.0,0.0,0.0,0.0,0.0,0.0,0.0,0.0,0.0,0.0,0.0,0.0,0.0,0.0,0.0,0.0,0.0,0.0,0.0,0.0,0.0,0.0,0.0,0.0,0.0,0.0,0.0,0.0,0.0,0.0,0.0,0.0,0.0,0.0,0.0,0.0,0.0,0.0,0.0,0.0,0.0,0.0,0.0,0.0,0.0,0.0,0.0,0.0,0.0,0.0,0.0,0.0,0.0,0.0,0.0,0.0,0.0,0.0,0.0,0.0,0.0,0.0,0.0,0.0,0.0,0.0,0.0,0.0,0.0,0.0,0.0,0.0,0.0,0.0,0.0,0.0,0.0,0.0,0.0,0.0,0.0,0.0,0.0,0.0,0.0,0.0,0.0,0.0,0.0,0.0,0.0,0.0,0.0,0.0,-3.0916,-3.2226,-3.3031,-3.328,-3.2914,-3.2125,-3.1524,0.0,0.0,0.0,0.0,0.0,0.0,0.0,0.0,0.0,0.0,0.0,0.0,0.0,0.0,0.0,0.0,0.0,0.0,0.0,0.0,0.0,0.0,0.0,0.0,0.0,0.0,0.0,0.0,0.0,0.0,0.0,0.0,0.0,0.0,0.0,0.0,0.0,0.0,0.0,0.0,0.0,0.0,0.0,0.0,0.0,0.0,0.0,0.0,0.0,0.0,0.0,0.0,0.0,0.0,0.0,0.0,0.0,0.0,0.0,0.0,0.0,0.0,0.0,0.0,0.0,0.0,0.0,0.0,0.0,0.0,0.0,0.0,0.0,0.0,0.0,0.0,0.0,0.0,0.0,0.0,0.0,0.0,0.0,0.0,0.0,0.0,0.0,0.0,0.0,0.0,0.0,0.0,0.0,0.0,0.0,0.0,0.0,0.0,0.0,0.0,0.0,0.0,0.0,0.0,0.0,0.0,0.0,0.0,0.0,-3.4109,-3.4185,-3.4181,-3.4068,-3.3602,-3.275,0.0,0.0,0.0,0.0,0.0,0.0,0.0,0.0,0.0,0.0,0.0,0.0,0.0,0.0,0.0,0.0,0.0,0.0,0.0,0.0,0.0,0.0,0.0,0.0,0.0,0.0,0.0,0.0,0.0,0.0,0.0,0.0,0.0,0.0,0.0,0.0,0.0,0.0,0.0,0.0,0.0,0.0,0.0,0.0,0.0,0.0,0.0,0.0,0.0,0.0,0.0,0.0,0.0,0.0,0.0,0.0,0.0,0.0,0.0,0.0,0.0,0.0,0.0,0.0,0.0,0.0,0.0,0.0,0.0,0.0,0.0,0.0,0.0,0.0,0.0,0.0,0.0,0.0,0.0,0.0,0.0,0.0,0.0,0.0,0.0,0.0,0.0,0.0,0.0,0.0,0.0,0.0,0.0,0.0,0.0,0.0,0.0,0.0,0.0,0.0,0.0,0.0,0.0,0.0,0.0,0.0,0.0,0.0,0.0,-3.5611,-3.5367,-3.5175,-3.5099,-3.4546,-3.3713,-3.2588,0.0,0.0,0.0,0.0,0.0,0.0,0.0,0.0,0.0,0.0,0.0,0.0,0.0,0.0,0.0,0.0,0.0,0.0,0.0,0.0,0.0,0.0,0.0,0.0,0.0,0.0,0.0,0.0,0.0,0.0,0.0,0.0,0.0,0.0,0.0,0.0,0.0,0.0,0.0,0.0,0.0,0.0,0.0,0.0,0.0,0.0,0.0,0.0,0.0,0.0,0.0,0.0,0.0,0.0,0.0,0.0,0.0,0.0,0.0,0.0,0.0,0.0,0.0,0.0,0.0,0.0,0.0,0.0,0.0,0.0,0.0,0.0,0.0,0.0,0.0,0.0,0.0,0.0,0.0,0.0,0.0,0.0,0.0,0.0,0.0,0.0,0.0,0.0,0.0,0.0,0.0,0.0,0.0,0.0,0.0,0.0,0.0,0.0,0.0,0.0,0.0,0.0,0.0,0.0,0.0,0.0,0.0,0.0,-3.6766,-3.6574,-3.6318,-3.5991,-3.5131,-3.4459,0.0,0.0,0.0,0.0,0.0,0.0,0.0,0.0,0.0,0.0,0.0,0.0,0.0,0.0,0.0,0.0,0.0,0.0,0.0,0.0,0.0,0.0,0.0,0.0,0.0,0.0,0.0,0.0,0.0,0.0,0.0,0.0,0.0,0.0,0.0,0.0,0.0,0.0,0.0,0.0,0.0,0.0,0.0,0.0,0.0,0.0,0.0,0.0,0.0,0.0,0.0,0.0,0.0,0.0,0.0,0.0,0.0,0.0,0.0,0.0,0.0,0.0,0.0,0.0,0.0,0.0,0.0,0.0,0.0,0.0,0.0,0.0,0.0,0.0,0.0,0.0,0.0,0.0,0.0,0.0,0.0,0.0,0.0,0.0,0.0,0.0,0.0,0.0,0.0,0.0,0.0,0.0,0.0,0.0,0.0,0.0,0.0,0.0,0.0,0.0,0.0,0.0,0.0,0.0,0.0,0.0,0.0,0.0,0.0,-3.7716,-3.814,-3.7954,-3.7109,-3.6614,-3.5688,0.0,0.0,0.0,0.0,0.0,0.0,0.0,0.0,0.0,0.0,0.0,0.0,0.0,0.0,0.0,0.0,0.0,0.0,0.0,0.0,0.0,0.0,0.0,0.0,0.0,0.0,0.0,0.0,0.0,0.0,0.0,0.0,0.0,0.0,0.0,0.0,0.0,0.0,0.0,0.0,0.0,0.0,0.0,0.0,0.0,0.0,0.0,0.0,0.0,0.0,0.0,0.0,0.0,0.0,0.0,0.0,0.0,0.0,0.0,0.0,0.0,0.0,0.0,0.0,0.0,0.0,0.0,0.0,0.0,0.0,0.0,0.0,0.0,0.0,0.0,0.0,0.0,0.0,0.0,0.0,0.0,0.0,0.0,0.0,0.0,0.0,0.0,0.0,0.0,0.0,0.0,0.0,0.0,0.0,0.0,0.0,0.0,0.0,0.0,0.0,0.0,0.0,0.0,0.0,0.0,0.0,0.0,0.0,-3.765,-3.869,-3.9397,-3.9445,-3.8729,-3.7686,-3.6442,0.0,0.0,0.0,0.0,0.0,0.0,0.0,0.0,0.0,0.0,0.0,0.0,0.0,0.0,0.0,0.0,0.0,0.0,0.0,0.0,0.0,0.0,0.0,0.0,0.0,0.0,0.0,0.0,0.0,0.0,0.0,0.0,0.0,0.0,0.0,0.0,0.0,0.0,0.0,0.0,0.0,0.0,0.0,0.0,0.0,0.0,0.0,0.0,0.0,0.0,0.0,0.0,0.0,0.0,0.0,0.0,0.0,0.0,0.0,0.0,0.0,0.0,0.0,0.0,0.0,0.0,0.0,0.0,0.0,0.0,0.0,0.0,0.0,0.0,0.0,0.0,0.0,0.0,0.0,0.0,0.0,0.0,0.0,0.0,0.0,0.0,0.0,0.0,0.0,0.0,0.0,0.0,0.0,0.0,0.0,0.0,0.0,0.0,0.0,0.0,0.0,0.0,0.0,0.0,0.0,0.0,0.0,0.0,-3.8052,-3.9602,-4.0365,-4.0632,-4.0374,-3.8567,-3.704,0.0,0.0,0.0,0.0,0.0,0.0,0.0,0.0,0.0,0.0,0.0,0.0,0.0,0.0,0.0,0.0,0.0,0.0,0.0,0.0,0.0,0.0,0.0,0.0,0.0,0.0,0.0,0.0,0.0,0.0,0.0,0.0,0.0,0.0,0.0,0.0,0.0,0.0,0.0,0.0,0.0,0.0,0.0,0.0,0.0,0.0,0.0,0.0,0.0,0.0,0.0,0.0,0.0,0.0,0.0,0.0,0.0,0.0,0.0,0.0,0.0,0.0,0.0,0.0,0.0,0.0,0.0,0.0,0.0,0.0,0.0,0.0,0.0,0.0,0.0,0.0,0.0,0.0,0.0,0.0,0.0,0.0,0.0,0.0,0.0,0.0,0.0,0.0,0.0,0.0,0.0,0.0,0.0,0.0,0.0,0.0,0.0,0.0,0.0,0.0,0.0,0.0,0.0,0.0,0.0,0.0,0.0,0.0,-3.8399,-4.0626,-4.0741,-4.0688,-4.0555,-3.9801,-3.8343,0.0,0.0,0.0,0.0,0.0,0.0,0.0,0.0,0.0,0.0,0.0,0.0,0.0,0.0,0.0,0.0,0.0,0.0,0.0,0.0,0.0,0.0,0.0,0.0,0.0,0.0,0.0,0.0,0.0,0.0,0.0,0.0,0.0,0.0,0.0,0.0,0.0,0.0,0.0,0.0,0.0,0.0,0.0,0.0,0.0,0.0,0.0,0.0,-3.561,0.0,0.0,0.0,0.0,0.0,0.0,0.0,0.0,0.0,0.0,0.0,0.0,0.0,0.0,0.0,0.0,0.0,0.0,0.0,0.0,0.0,0.0,0.0,0.0,0.0,0.0,0.0,0.0,0.0,0.0,0.0,0.0,0.0,0.0,0.0,0.0,0.0,0.0,0.0,0.0,0.0,0.0,0.0,0.0,0.0,0.0,0.0,0.0,0.0,0.0,0.0,0.0,0.0,0.0,0.0,0.0,0.0,0.0,0.0,-3.8785,-4.1513,-4.1604,-4.1444,-4.125,-4.0989,-3.9313,0.0,0.0,0.0,0.0,0.0,0.0,0.0,0.0,0.0,0.0,0.0,0.0,0.0,0.0,0.0,0.0,0.0,0.0,0.0,0.0,0.0,0.0,0.0,0.0,0.0,0.0,0.0,0.0,0.0,0.0,0.0,0.0,0.0,0.0,0.0,0.0,0.0,0.0,0.0,0.0,0.0,0.0,0.0,0.0,0.0,0.0,0.0,0.0,0.0,0.0,0.0,0.0,0.0,0.0,0.0,0.0,0.0,0.0,0.0,0.0,0.0,0.0,0.0,0.0,0.0,0.0,0.0,0.0,0.0,0.0,0.0,0.0,0.0,0.0,0.0,0.0,0.0,0.0,0.0,0.0,0.0,0.0,0.0,0.0,0.0,0.0,0.0,0.0,0.0,0.0,0.0,0.0,0.0,0.0,0.0,0.0,0.0,0.0,0.0,0.0,0.0,0.0,0.0,0.0,0.0,0.0,0.0,-3.7499,-3.9074,-4.2056,-4.2234,-4.208,-4.1857,-4.1713,-3.9919,-3.6354,0.0,0.0,0.0,0.0,0.0,0.0,0.0,0.0,0.0,0.0,0.0,0.0,0.0,0.0,0.0,0.0,0.0,0.0,0.0,0.0,0.0,0.0,0.0,0.0,0.0,0.0,0.0,0.0,0.0,0.0,0.0,0.0,0.0,0.0,0.0,0.0,0.0,0.0,-3.5688,-3.5763,0.0,0.0,0.0,0.0,0.0,0.0,0.0,0.0,-3.612,0.0,0.0,0.0,0.0,0.0,0.0,0.0,0.0,0.0,0.0,0.0,0.0,0.0,0.0,0.0,0.0,0.0,0.0,0.0,0.0,0.0,0.0,0.0,0.0,0.0,0.0,0.0,0.0,0.0,0.0,0.0,0.0,0.0,0.0,0.0,0.0,0.0,0.0,0.0,0.0,0.0,0.0,0.0,0.0,0.0,0.0,0.0,0.0,0.0,0.0,0.0,0.0,0.0,0.0,0.0,0.0,-3.7451,-3.7566,-3.8831,-4.1407,-4.1429,-4.134,-4.1262,-4.0992,-3.9498,-3.6734,0.0,0.0,0.0,0.0,0.0,0.0,0.0,0.0,0.0,0.0,0.0,0.0,0.0,0.0,0.0,0.0,0.0,0.0,0.0,0.0,0.0,0.0,0.0,0.0,0.0,0.0,0.0,0.0,0.0,0.0,0.0,0.0,0.0,0.0,0.0,0.0,0.0,0.0,0.0,-3.6725,-3.706,0.0,0.0,0.0,0.0,0.0,0.0,0.0,0.0,-3.7972,0.0,0.0,0.0,0.0,0.0,0.0,0.0,0.0,0.0,0.0,0.0,0.0,0.0,0.0,0.0,0.0,0.0,0.0,0.0,0.0,0.0,0.0,0.0,0.0,0.0,0.0,0.0,0.0,0.0,0.0,0.0,0.0,0.0,0.0,0.0,0.0,0.0,0.0,0.0,0.0,0.0,0.0,0.0,0.0,0.0,0.0,0.0,0.0,0.0,0.0,0.0,0.0,0.0,0.0,0.0,-3.7462,-3.7622,-3.8909,-4.1332,-4.1386,-4.1303,-4.1173,-4.0535,-3.9102,0.0,0.0,0.0,0.0,0.0,0.0,0.0,0.0,0.0,0.0,0.0,0.0,0.0,0.0,0.0,0.0,0.0,0.0,0.0,0.0,0.0,0.0,0.0,0.0,0.0,0.0,0.0,0.0,0.0,0.0,0.0,0.0,0.0,0.0,0.0,0.0,0.0,0.0,0.0,0.0,-3.7409,-3.792,-3.8393,0.0,0.0,0.0,0.0,0.0,0.0,-3.8468,-3.8447,0.0,0.0,0.0,0.0,0.0,0.0,0.0,0.0,0.0,0.0,0.0,0.0,0.0,0.0,0.0,0.0,0.0,0.0,0.0,0.0,0.0,0.0,0.0,0.0,0.0,0.0,0.0,0.0,0.0,0.0,0.0,0.0,0.0,0.0,0.0,0.0,0.0,0.0,0.0,0.0,0.0,0.0,0.0,0.0,0.0,0.0,0.0,0.0,0.0,0.0,0.0,0.0,0.0,0.0,0.0,-3.7612,-3.7894,-3.9094,-4.1226,-4.1303,-4.1179,-4.0999,-4.0041,-3.8716,0.0,0.0,0.0,0.0,0.0,0.0,0.0,0.0,0.0,0.0,0.0,0.0,0.0,0.0,0.0,0.0,0.0,0.0,0.0,0.0,0.0,0.0,0.0,0.0,0.0,0.0,0.0,0.0,0.0,0.0,0.0,0.0,0.0,0.0,0.0,0.0,0.0,0.0,0.0,0.0,0.0,-3.9015,-3.9218,-3.9426,0.0,0.0,0.0,0.0,-3.9338,-3.9285,0.0,0.0,0.0,0.0,0.0,0.0,0.0,0.0,0.0,0.0,0.0,0.0,0.0,0.0,0.0,0.0,0.0,0.0,0.0,0.0,0.0,0.0,0.0,0.0,0.0,0.0,0.0,0.0,0.0,0.0,0.0,0.0,0.0,0.0,0.0,0.0,0.0,0.0,0.0,0.0,0.0,0.0,0.0,0.0,0.0,0.0,0.0,0.0,0.0,0.0,0.0,0.0,0.0,0.0,0.0,0.0,-3.7697,-3.8503,-3.9444,-4.0475,-4.0543,-4.046,-4.0311,-3.9385,-3.834,0.0,0.0,0.0,0.0,0.0,0.0,0.0,0.0,0.0,0.0,0.0,0.0,0.0,0.0,0.0,0.0,0.0,0.0,0.0,0.0,0.0,0.0,0.0,0.0,0.0,0.0,0.0,0.0,0.0,0.0,0.0,0.0,0.0,0.0,0.0,0.0,0.0,0.0,0.0,0.0,0.0,-4.099,-4.1734,-4.2579,-4.3107,0.0,0.0,-4.2798,-4.2065,-4.1939,0.0,0.0,0.0,0.0,0.0,0.0,0.0,0.0,0.0,0.0,0.0,0.0,0.0,0.0,0.0,0.0,0.0,0.0,0.0,0.0,0.0,0.0,0.0,0.0,0.0,0.0,0.0,0.0,0.0,0.0,0.0,0.0,0.0,0.0,0.0,0.0,0.0,0.0,0.0,0.0,0.0,0.0,0.0,0.0,0.0,0.0,0.0,0.0,0.0,0.0,0.0,0.0,0.0,0.0,0.0,-3.6775,-3.7695,-3.8623,-3.9542,-4.0414,-4.0466,-4.0407,-4.0233,-3.8889,-3.7899,0.0,0.0,0.0,0.0,0.0,0.0,0.0,0.0,0.0,0.0,0.0,0.0,0.0,0.0,0.0,0.0,0.0,0.0,0.0,0.0,0.0,0.0,0.0,0.0,0.0,0.0,0.0,0.0,0.0,0.0,0.0,0.0,0.0,0.0,0.0,0.0,0.0,0.0,0.0,0.0,0.0,0.0,-4.2954,-4.3439,0.0,0.0,0.0,-4.3573,-4.3187,0.0,0.0,0.0,0.0,0.0,0.0,0.0,0.0,0.0,0.0,0.0,0.0,0.0,0.0,0.0,0.0,0.0,0.0,0.0,0.0,0.0,0.0,0.0,0.0,0.0,0.0,0.0,0.0,0.0,0.0,0.0,0.0,0.0,0.0,0.0,0.0,0.0,0.0,0.0,0.0,0.0,0.0,0.0,0.0,0.0,0.0,0.0,0.0,0.0,0.0,0.0,0.0,0.0,0.0,0.0,0.0,0.0,-3.77,-3.8818,-3.9783,-4.0523,-4.0538,-4.0367,-4.0053,-3.8512,0.0,0.0,0.0,0.0,0.0,0.0,0.0,0.0,0.0,0.0,0.0,0.0,0.0,0.0,0.0,0.0,0.0,0.0,0.0,0.0,0.0,0.0,0.0,0.0,0.0,0.0,0.0,-3.4735,0.0,0.0,0.0,0.0,0.0,0.0,0.0,0.0,0.0,0.0,0.0,0.0,0.0,0.0,-4.3234,-4.392,-4.4202,-4.4326,0.0,0.0,-4.4291,-4.4058,-4.4012,-4.3964,0.0,0.0,0.0,0.0,0.0,0.0,0.0,0.0,0.0,0.0,0.0,0.0,0.0,0.0,0.0,0.0,0.0,0.0,0.0,0.0,0.0,0.0,0.0,0.0,0.0,0.0,0.0,0.0,0.0,0.0,0.0,0.0,0.0,0.0,0.0,0.0,0.0,0.0,0.0,0.0,0.0,0.0,0.0,0.0,0.0,0.0,0.0,0.0,0.0,0.0,0.0,0.0,0.0,0.0,-3.7564,-3.7776,-3.9427,-4.0399,-4.06,-4.06,-4.0192,-3.9385,-3.8353,-3.7339,0.0,0.0,0.0,0.0,0.0,0.0,0.0,0.0,0.0,0.0,0.0,0.0,0.0,0.0,0.0,0.0,0.0,0.0,0.0,0.0,0.0,0.0,0.0,0.0,0.0,0.0,0.0,0.0,0.0,0.0,0.0,0.0,0.0,0.0,0.0,0.0,0.0,0.0,0.0,0.0,0.0,-4.482,-4.4906,-4.5615,-4.6127,0.0,-4.6128,-4.5854,-4.5037,-4.4917,-4.4638,-4.3844,0.0,0.0,0.0,0.0,0.0,0.0,0.0,0.0,0.0,0.0,0.0,0.0,0.0,0.0,0.0,0.0,0.0,0.0,0.0,0.0,0.0,0.0,0.0,0.0,0.0,0.0,0.0,0.0,0.0,0.0,0.0,0.0,0.0,0.0,0.0,0.0,0.0,0.0,0.0,0.0,0.0,0.0,0.0,0.0,0.0,0.0,0.0,0.0,0.0,0.0,0.0,0.0,0.0,-3.7677,-3.7781,-3.9544,-4.0516,-4.06,-4.0591,-4.0191,-3.9323,-3.8393,-3.7447,0.0,0.0,0.0,0.0,0.0,0.0,0.0,0.0,0.0,0.0,0.0,0.0,0.0,0.0,0.0,0.0,0.0,0.0,0.0,0.0,0.0,0.0,0.0,0.0,0.0,0.0,0.0,0.0,-3.6826,-3.7358,-3.7671,0.0,0.0,0.0,0.0,0.0,0.0,0.0,0.0,0.0,0.0,-4.601,-4.6521,-4.7344,0.0,0.0,-4.7929,-4.7812,-4.7461,-4.7422,-4.7303,-4.6947,-4.6857,0.0,0.0,0.0,0.0,0.0,0.0,0.0,0.0,0.0,0.0,0.0,0.0,0.0,0.0,0.0,0.0,0.0,0.0,0.0,0.0,0.0,0.0,0.0,0.0,0.0,0.0,0.0,0.0,0.0,0.0,0.0,0.0,0.0,0.0,0.0,0.0,0.0,0.0,0.0,0.0,0.0,0.0,0.0,0.0,0.0,0.0,0.0,0.0,0.0,0.0,0.0,0.0,-3.7742,-3.7836,-3.9584,-4.0546,-4.0583,-4.0626,-4.0079,-3.8975,-3.833,-3.7402,0.0,0.0,0.0,0.0,0.0,0.0,0.0,0.0,0.0,0.0,0.0,0.0,0.0,0.0,0.0,0.0,0.0,0.0,0.0,0.0,0.0,0.0,0.0,0.0,0.0,0.0,0.0,0.0,-3.8272,-3.9009,-3.9055,0.0,0.0,0.0,0.0,0.0,0.0,0.0,0.0,0.0,0.0,-4.7304,-4.789,-4.8511,-4.8898,-4.8898,-4.8898,-4.89,-4.8903,-4.8905,-4.8906,-4.8906,0.0,0.0,0.0,0.0,0.0,0.0,0.0,0.0,0.0,0.0,0.0,0.0,0.0,0.0,0.0,0.0,0.0,0.0,0.0,0.0,0.0,0.0,0.0,0.0,0.0,0.0,0.0,-3.4788,0.0,0.0,-3.4864,0.0,0.0,0.0,0.0,0.0,0.0,0.0,0.0,0.0,0.0,0.0,0.0,0.0,0.0,0.0,0.0,0.0,0.0,0.0,0.0,0.0,0.0,-3.7742,-3.7836,-3.9685,-4.0591,-4.0588,-4.0661,-3.9895,-3.8234,-3.805,-3.7148,-3.5407,0.0,0.0,0.0,0.0,0.0,0.0,0.0,0.0,0.0,0.0,0.0,0.0,0.0,0.0,0.0,0.0,0.0,0.0,0.0,0.0,0.0,0.0,0.0,0.0,0.0,0.0,-3.8263,-3.9708,-4.0749,0.0,0.0,0.0,0.0,0.0,0.0,0.0,0.0,0.0,-4.6287,-4.7773,-4.8828,-4.8861,-4.8898,-4.8976,-4.8976,-4.8976,-4.8937,-4.9015,-4.898,-4.8905,0.0,0.0,0.0,0.0,0.0,0.0,0.0,0.0,0.0,0.0,0.0,0.0,0.0,0.0,0.0,0.0,0.0,0.0,0.0,0.0,0.0,0.0,0.0,0.0,0.0,0.0,0.0,-3.656,-3.6522,0.0,0.0,0.0,0.0,0.0,0.0,0.0,0.0,0.0,0.0,0.0,-4.0078,-4.0137,0.0,0.0,0.0,0.0,0.0,0.0,0.0,0.0,0.0,0.0,0.0,0.0,-3.8678,-3.8761,-3.9969,-4.0626,-4.0661,-4.0739,-3.9928,-3.8234,-3.8112,-3.7199,-3.5377,0.0,0.0,0.0,0.0,0.0,0.0,0.0,0.0,0.0,0.0,0.0,0.0,0.0,0.0,0.0,0.0,0.0,0.0,0.0,0.0,0.0,0.0,0.0,0.0,0.0,-4.0416,0.0,0.0,0.0,0.0,0.0,0.0,0.0,0.0,0.0,0.0,0.0,-4.7339,-4.7929,-4.8982,-4.9679,-4.9713,-5.0177,-5.0759,0.0,0.0,0.0,0.0,0.0,0.0,0.0,0.0,0.0,0.0,0.0,0.0,0.0,0.0,-5.0586,-4.8334,-4.7933,-4.793,-4.793,0.0,0.0,0.0,0.0,0.0,0.0,0.0,0.0,0.0,0.0,0.0,0.0,0.0,0.0,-3.7447,-3.7468,-3.7468,0.0,0.0,0.0,0.0,0.0,0.0,0.0,0.0,-4.0248,-4.0738,-4.1112,-4.1141,-4.1017,0.0,-4.0701,-3.9966,0.0,0.0,0.0,0.0,0.0,0.0,0.0,0.0,-3.915,-3.9246,-4.0121,-4.0647,-4.072,-4.0759,-4.0101,-3.8672,-3.7964,-3.6867,-3.5377,-3.5198,-3.5107,0.0,0.0,0.0,0.0,0.0,0.0,0.0,0.0,0.0,0.0,0.0,0.0,0.0,0.0,0.0,0.0,0.0,0.0,0.0,0.0,0.0,0.0,0.0,-4.2315,0.0,0.0,0.0,0.0,0.0,0.0,0.0,0.0,0.0,-4.7201,-4.7924,-4.8672,-4.9256,-5.0303,-5.0997,-5.0995,0.0,0.0,0.0,0.0,0.0,0.0,0.0,-5.3967,-5.3971,-5.3977,-5.3981,-5.3984,-5.3983,-5.382,-5.3227,0.0,0.0,-5.0579,-5.0364,-5.0548,-5.0579,-5.0587,-5.0559,-5.0576,-5.0592,-5.0764,0.0,0.0,0.0,0.0,-3.9837,0.0,0.0,0.0,-3.7697,-3.7794,0.0,-3.789,0.0,0.0,0.0,0.0,-3.8915,-3.9741,0.0,0.0,-4.1494,-4.1973,-4.2757,-4.2842,-4.2495,-4.1766,-4.1728,-4.1306,-4.0407,-3.9441,0.0,0.0,0.0,0.0,0.0,0.0,-3.9197,-3.94,-4.0174,-4.0609,-4.072,-4.0759,-4.0333,-3.9367,-3.7693,-3.6385,-3.5559,-3.5415,-3.5305,-3.5305,-3.5259,0.0,0.0,0.0,0.0,0.0,0.0,0.0,0.0,0.0,0.0,0.0,0.0,0.0,0.0,0.0,0.0,0.0,0.0,0.0,0.0,-4.3603,0.0,0.0,0.0,0.0,0.0,0.0,0.0,0.0,0.0,0.0,-4.9134,-4.9687,-5.0194,-5.0259,0.0,0.0,0.0,0.0,-5.399,-5.4029,-5.4029,-5.4066,-5.4105,-5.4115,-5.412,-5.412,0.0,0.0,-5.4098,-5.4101,-5.4101,-5.4061,-5.409,-5.3789,-5.2848,-5.3224,-5.372,-5.374,-5.3674,-5.3852,-5.3829,-5.3571,-5.3745,-4.5059,0.0,0.0,0.0,0.0,-4.1455,-4.1297,-4.1038,-4.1102,-4.1185,-4.1323,-4.1274,0.0,0.0,0.0,0.0,0.0,0.0,-4.2103,-4.2392,-4.2403,-4.2593,-4.2935,-4.2996,-4.2923,-4.2717,-4.2749,-4.231,-4.1399,-4.1097,-4.0598,-3.987,0.0,0.0,0.0,0.0,-4.0146,-4.0246,-4.0511,-4.0694,-4.0751,-4.0822,-4.0333,-3.9406,-3.8311,-3.7564,-3.7262,-3.7164,-3.7086,-3.6995,-3.6969,0.0,0.0,0.0,0.0,0.0,0.0,0.0,0.0,0.0,0.0,0.0,0.0,0.0,0.0,0.0,0.0,0.0,0.0,0.0,-4.6085,-4.6839,-4.7319,0.0,0.0,0.0,0.0,0.0,0.0,0.0,0.0,0.0,-5.2461,-5.2186,-5.2181,0.0,0.0,-5.3602,-5.3639,-5.3834,-5.4181,-5.476,-5.4877,0.0,-5.5681,-5.5798,-5.5801,-5.5801,-5.5775,-5.5786,-5.5796,-5.5766,-5.558,-5.5039,-5.5429,-5.5578,-5.4728,-5.4144,-5.3923,-5.3915,-5.388,-5.3891,-5.3907,-5.3925,-5.4021,-4.8138,-4.5697,-4.5021,-4.4353,-4.3693,-4.3731,-4.3476,-4.3042,-4.309,-4.3021,-4.2805,-4.2785,-4.2795,-4.2786,-4.2201,0.0,0.0,0.0,-4.2957,-4.333,-4.336,-4.3616,-4.3986,-4.4055,-4.3943,-4.362,-4.3698,-4.3235,-4.2341,-4.1994,-4.1532,-4.0943,0.0,-4.0351,-4.0394,-4.0476,-4.0546,-4.0612,-4.0674,-4.0726,-4.0814,-4.0802,-4.0352,-3.947,-3.8891,-3.842,-3.8075,-3.7954,-3.7894,-3.7806,-3.7781,-3.7747,0.0,0.0,0.0,0.0,0.0,0.0,0.0,0.0,0.0,0.0,0.0,-4.0879,-4.1767,0.0,0.0,0.0,-4.5604,-4.6765,-4.7843,-4.8405,0.0,0.0,0.0,0.0,0.0,0.0,0.0,-5.2363,-5.2881,-5.3553,-5.4372,-5.4056,-5.3777,-5.3963,-5.4307,-5.4498,-5.4498,0.0,-5.5697,-5.6157,-5.6503,-5.6926,-5.746,-5.7538,-5.7535,-5.7535,-5.7545,-5.7554,-5.7526,-5.7267,-5.6854,-5.6438,-5.6444,-5.6445,-5.5889,-5.5313,-5.4924,-5.495,-5.4915,-5.4921,-5.4934,-5.4989,-5.5007,-5.1104,-4.9565,-4.804,-4.6873,-4.6121,-4.6163,-4.5393,-4.4124,-4.4243,-4.3904,-4.3226,-4.3196,-4.3109,-4.2994,-4.3015,0.0,-4.2928,-4.2967,-4.3455,-4.4221,-4.4325,-4.4793,-4.5494,-4.562,-4.5277,-4.4506,-4.4554,-4.4152,-4.3296,-4.2531,-4.2068,-4.1977,-4.1091,-4.0589,-4.0516,-4.0523,-4.0583,-4.072,-4.072,-4.0751,-4.082,-4.0787,-4.0421,-3.9661,-3.9547,-3.9148,-3.8355,-3.8274,-3.8192,-3.8232,-3.8201,-3.8254,-3.8292,0.0,0.0,0.0,0.0,0.0,0.0,0.0,0.0,0.0,0.0,0.0,0.0,0.0,0.0,-4.625,-4.7886,0.0,-4.9118,-4.9188,0.0,0.0,0.0,-5.2244,-5.3816,-5.3986,-5.4041,-5.4093,0.0,0.0,-5.5306,-5.542,-5.5143,-5.4383,-5.5005,-5.5513,-5.5474,-5.6868,-5.7908,-5.7827,-5.8559,-5.9056,-5.8897,-5.8932,-5.8928,-5.8928,-5.9092,-5.8975,-5.8939,-5.8415,-5.7963,-5.7855,-5.7257,-5.6718,-5.6719,-5.6553,-5.6526,-5.6422,-5.6461,-5.6428,-5.6391,-5.6411,-5.6426,-5.2355,-5.1478,-5.1064,-4.934,-4.6965,-4.7048,-4.6948,-4.6701,-4.6838,-4.6832,-4.6732,-4.6081,-4.5093,-4.3943,-4.4509,-4.4461,-4.3867,-4.4499,-4.4911,-4.5141,-4.5197,-4.5349,-4.5577,-4.5676,-4.5602,-4.5403,-4.5441,-4.5039,-4.4228,-4.3996,-4.3557,-4.291,-4.2634,-4.1894,-4.0644,-4.0626,-4.0654,-4.072,-4.0739,-4.0787,-4.0815,-4.0876,-4.0743,-4.0498,-4.0429,-4.0275,-4.0082,-4.0009,-4.0236,-4.0816,-4.0885,-4.117,-4.1808,-4.1878,0.0,0.0,0.0,0.0,0.0,0.0,0.0,0.0,0.0,-4.5126,-4.5375,0.0,-4.7873,0.0,-4.9705,-5.1284,-5.2529,-5.2692,0.0,0.0,-5.3337,-5.3543,-5.3974,-5.3992,-5.4241,-5.4913,-5.4997,-5.5312,-5.6165,-5.628,-5.6432,-5.6844,-5.7074,-5.7189,-5.7255,-5.807,-5.8763,-5.8737,-5.8925,-5.9034,-5.9096,-5.9035,-5.9061,-5.9022,-5.9022,-5.9026,-5.9044,-5.8878,-5.8751,-5.8744,-5.8096,-5.7605,-5.7577,-5.7069,-5.6636,-5.6585,-5.6526,-5.6506,-5.6509,-5.6567,-5.6623,-5.3693,-5.2686,-5.2718,-5.1473,-4.948,-4.9248,-4.8783,-4.8198,-4.8345,-4.8262,-4.7979,-4.752,-4.6609,-4.5429,-4.5812,-4.5573,-4.4796,-4.5237,-4.5457,-4.5523,-4.5541,-4.5568,-4.5594,-4.5676,-4.5671,-4.5703,-4.5758,-4.5556,-4.5092,-4.472,-4.4288,-4.3803,-4.3417,-4.276,-4.184,-4.1801,-4.166,-4.1345,-4.1019,-4.0832,-4.0863,-4.0863,-4.1086,-4.1402,-4.1341,-4.1505,-4.1854,-4.1841,-4.2008,-4.243,-4.2469,-4.2686,-4.3134,-4.3195,-4.3571,0.0,0.0,0.0,0.0,0.0,0.0,0.0,0.0,0.0,0.0,0.0,-5.0178,-5.0956,-5.1912,-5.2899,-5.3793,-5.3919,-5.4078,-5.4429,-5.456,-5.4726,-5.512,-5.5175,-5.5341,-5.5815,-5.5897,-5.6211,-5.7064,-5.7179,-5.7486,-5.8289,-5.8709,-5.8822,-5.8538,-5.9072,-5.9599,-5.958,-5.9919,-6.014,-6.0117,-6.0126,-6.0105,-6.0105,-6.0105,-6.0111,-6.0087,-5.981,-5.9572,-5.9563,-5.8967,-5.8408,-5.8388,-5.8085,-5.7734,-5.7693,-5.7681,-5.7395,-5.669,-5.6857,-5.7179,-5.5066,-5.3723,-5.3687,-5.3284,-5.2551,-5.1923,-5.0735,-4.925,-4.933,-4.8938,-4.8191,-4.8241,-4.7789,-4.6983,-4.6983,-4.6532,-4.5774,-4.5821,-4.5763,-4.5686,-4.5722,-4.5701,-4.5594,-4.5676,-4.5693,-4.5701,-4.5781,-4.5781,-4.5788,-4.5083,-4.4748,-4.4717,-4.3982,-4.364,-4.364,-4.3581,-4.3137,-4.2259,-4.1574,-4.1228,-4.1218,-4.1233,-4.1567,-4.2304,-4.2283,-4.261,-4.3284,-4.3323,-4.3349,-4.3479,-4.3473,-4.3595,-4.3789,-4.3828,-4.4537,0.0,-4.6272,0.0,0.0,0.0,0.0,0.0,0.0,0.0,0.0,-5.063,-5.2324,-5.3913,-5.4072,-5.415,-5.4384,-5.4438,-5.4797,-5.5575,-5.5743,-5.6105,-5.6815,-5.6941,-5.6947,-5.695,-5.6914,-5.7226,-5.7923,-5.8038,-5.8344,-5.9143,-5.9831,-6.0057,-5.9661,-6.0028,-6.0473,-6.0469,-6.1071,-6.1359,-6.1334,-6.1423,-6.14,-6.1439,-6.1361,-6.1478,-6.14,-6.0895,-6.0463,-6.0404,-5.9794,-5.9287,-5.9256,-5.9169,-5.9061,-5.8984,-5.8983,-5.8549,-5.7452,-5.7572,-5.8045,-5.5772,-5.5519,-5.489,-5.422,-5.3601,-5.3516,-5.259,-5.1049,-5.0473,-4.9823,-4.9135,-4.9154,-4.8702,-4.7875,-4.7837,-4.776,-4.7597,-4.7606,-4.726,-4.6645,-4.6654,-4.6278,-4.5633,-4.5642,-4.5667,-4.5701,-4.5711,-4.5758,-4.5827,-4.567,-4.5575,-4.5575,-4.5447,-4.5383,-4.5428,0.0,0.0,0.0,-4.3003,-4.2941,-4.3,-4.3034,-4.3063,-4.3164,-4.3158,0.0,-4.3341,-4.338,-4.3702,-4.4372,-4.4416,0.0,0.0,0.0,0.0,0.0,0.0,0.0,0.0,0.0,0.0,0.0,-5.2093,-5.2288,-5.1002,-5.2467,-5.3886,-5.4828,-5.4994,-5.5584,-5.6911,-5.707,-5.7424,-5.8243,-5.8371,-5.8456,-5.8614,-5.8664,-5.8708,-5.8709,-5.8672,-5.8747,-5.882,-5.8853,-5.9193,-5.9993,-6.0285,-6.0616,-6.1031,-6.1179,-6.1361,-6.1383,-6.1437,-6.1528,-6.1495,-6.1466,-6.1408,-6.1408,-6.1402,-6.1447,-6.1408,-6.1394,-6.1284,-6.1281,-6.0686,-6.0095,-6.0107,-5.9618,-5.92,-5.9133,-5.9177,-5.9062,-5.8705,-5.8785,-5.8943,-5.6558,-5.6177,-5.5341,-5.4818,0.0,-5.4231,-5.339,-5.2296,-5.1437,-5.0678,-5.0048,-5.0048,-4.9548,-4.874,-4.874,-4.8509,-4.8077,-4.8077,-4.7894,-4.75,-4.7471,-4.724,-4.6817,-4.6817,-4.6642,-4.6275,-4.6304,-4.6113,-4.5758,-4.5778,-4.5807,-4.5807,-4.588,-4.59,-4.59,-4.595,-4.532,-4.4051,-4.364,-4.3461,-4.3486,-4.3491,-4.3685,-4.4079,-4.4079,0.0,0.0,0.0,0.0,0.0,0.0,0.0,0.0,-4.799,0.0,-4.9249,-4.9737,-5.0186,-5.0622,-5.1876,-5.264,-5.264,-5.3867,-5.4179,-5.3292,-5.4089,-5.5153,-5.6365,-5.6526,-5.7035,-5.8285,-5.8441,-5.8599,-5.9035,-5.9119,-5.9123,-5.9171,-5.9175,-5.9217,-5.9218,-5.9218,-5.9332,-5.9678,-5.975,-6.0089,-6.0885,-6.102,-6.1116,-6.1474,-6.1578,-6.1559,-6.1534,-6.1507,-6.1439,-6.146,-6.1428,-6.1408,-6.1408,-6.1408,-6.1408,-6.1408,-6.1434,-6.1478,-6.1523,-6.1198,-6.0963,-6.0971,-6.0648,-6.0356,-6.0368,-6.0418,-6.0426,-6.0351,-6.0078,-5.9805,-5.722,-5.6549,-5.5559,-5.5183,-5.5263,-5.4626,-5.3958,-5.3262,-5.2039,0.0,0.0,-5.0702,-5.0279,-4.9663,-4.9625,-4.924,-4.8586,-4.8548,-4.8471,-4.8355,-4.8317,-4.824,-4.8077,-4.8077,-4.7769,-4.7124,-4.7174,-4.6877,-4.619,-4.6073,-4.6039,-4.6046,-4.5932,-4.5912,-4.5925,-4.598,-4.5653,-4.496,-4.4282,-4.3952,-4.3937,-4.3942,-4.4305,-4.4993,-4.5187,-4.562,-4.6329,-4.6485,-4.6925,-4.7607,-4.7646,-4.8043,-4.8879,-4.9078,-4.9585,-5.0442,-5.132,-5.2074,-5.2815,-5.3708,-5.431,-5.4428,-5.526,-5.5649,-5.5465,-5.5628,-5.6298,-5.7662,-5.7933,-5.8402,-5.9219,-5.9336,-5.9382,-5.9511,-5.9553,-5.9598,-5.9645,-5.9647,-5.9726,-5.9648,-5.9725,-5.9878,-6.0536,-6.0643,-6.0866,-6.1504,-6.1563,-6.1573,-6.1568,-6.1539,-6.1518,-6.1484,-6.146,-6.1396,-6.1421,-6.1401,-6.1419,-6.1419,-6.1419,-6.1412,-6.1419,-6.1401,-6.1434,-6.1472,-6.1523,-6.1564,-6.1591,-6.1563,-6.171,-6.1715,-6.1696,-6.1707,-6.163,-6.1126,-6.066,-5.7592,-5.7381,-5.591,-5.5339,-5.5376,-5.5322,-5.4894,-5.404,-5.1816,-5.0808,-5.0702,-5.0702,-5.0635,-5.0519,-5.051,-5.0481,-5.0366,-5.0366,-4.9933,-4.924,-4.9202,-4.8817,-4.8115,-4.8077,-4.8048,-4.7932,-4.8069,-4.8042,-4.7857,-4.7233,-4.6936,-4.6893,-4.6274,-4.5929,-4.598,-4.5991,-4.5968,-4.5911,-4.5799,-4.5726,-4.5731,-4.571,-4.581,-4.5948,-4.6653,-4.7097,-4.7324,-4.799,-4.8467,-4.8596,-4.8599,-4.8989,-4.9848,-5.0592,-5.1419,-5.2289,-5.3121,-5.3678,-5.3805,-5.4634,-5.542,-5.62,-5.706,-5.7214,-5.6501,-5.7049,-5.7553,-5.7818,-5.8519,-5.9261,-6.008,-6.0237,-6.0475,-6.1151,-6.1313,-6.132,-6.1248,-6.1249,-6.125,-6.121,-6.1363,-6.1317,-6.1388,-6.1449,-6.1468,-6.1602,-6.1615,-6.1582,-6.1523,-6.149,-6.1478,-6.1453,-6.1402,-6.1383,-6.1394,-6.1419,-6.1412,-6.1412,-6.1412,-6.1412,-6.1412,-6.1419,-6.1401,-6.1396,-6.1478,-6.1557,-6.1564,-6.1612,-6.1644,-6.1699,-6.1686,-6.1697,-6.1699,-6.1545,-6.147,-5.8214,-5.7709,-5.655,-5.586,-5.5458,-5.5094,-5.4754,-5.4314,-5.2769,-5.1779,-5.1318,-5.0894,-5.0702,-5.0702,-5.0702,-5.0702,-5.0702,-5.0702,-5.0471,-5.0125,-5.0087,-4.9894,-4.9548,-4.951,-4.9288,-4.8902,-4.8926,-4.8707,-4.8306,-4.7944,-4.7833,-4.7868,-4.754,-4.7394,-4.7395,-4.7411,-4.7422,-4.7437,-4.7014,-4.6839,-4.6878,-4.7276,-4.7529,-4.7561,-4.7951,-4.8155,-4.8218,-4.8569,-4.9008,-4.9495,-4.9965,-5.0594,-5.1457,-5.2356,-5.2983,-5.3416,-5.4241,-5.4712,-5.4716,-5.597,-5.6871,-5.7302,-5.8123,-5.8435,-5.8039,-5.8305,-5.8691,-5.9154,-5.9577,-6.0159,-6.1017,-6.1095,-6.1258,-6.1663,-6.1707,-6.1712,-6.1718,-6.1719,-6.1718,-6.1717,-6.1712,-6.1704,-6.1692,-6.1713,-6.169,-6.1623,-6.1582,-6.1523,-6.1466,-6.1441,-6.1421,-6.1408,-6.1401,-6.1394,-6.1419,-6.1412,-6.1412,-6.1412,-6.1412,-6.1412,-6.1412,-6.1412,-6.1394,-6.1389,-6.146,-6.1501,-6.1544,-6.1586,-6.1623,-6.1644,-6.1666,-6.1681,-6.1725,-6.1688,-6.169,-5.8666,-5.7915,-5.7072,-5.6302,-5.5599,-5.5028,-5.478,-5.4703,-5.3857,-5.3126,-5.2423,-5.1625,-5.1164,-5.0971,-5.0971,-5.0866,-5.0712,-5.0702,-5.0702,-5.0702,-5.0702,-5.0673,-5.0683,-5.0683,-5.0404,-4.9833,-4.98,-4.9495,-4.8918,-4.8771,-4.8621,-4.8554,-4.858,-4.8582,-4.8572,-4.8593,-4.8608,-4.8579,-4.8205,-4.7921,-4.7813,-4.8401,-4.8737,-4.8808,-4.9008,-4.9091,-4.9105,-4.9458,-4.9973,-5.0687,-5.151,-5.2292,-5.2961,-5.3821,-5.4289,-5.4369,-5.5112,-5.5697,-5.5972,-5.7302,-5.8163,-5.8203,-5.8984,-5.9453,-5.9491,-5.96,-5.9865,-6.0329,-6.0555,-6.0978,-6.1525,-6.1683,-6.1692,-6.1707,-6.171,-6.1715,-6.1718,-6.1719,-6.1718,-6.1716,-6.1711,-6.1701,-6.172,-6.1702,-6.1638,-6.1591,-6.1523,-6.1466,-6.1396,-6.1401,-6.1419,-6.1412,-6.1412,-6.1419,-6.1412,-6.1412,-6.1412,-6.1412,-6.1412,-6.1412,-6.1412,-6.1412,-6.1388,-6.1421,-6.146,-6.149,-6.1479,-6.1568,-6.1608,-6.1595,-6.1654,-6.1705,-6.1718,-6.172,-6.172,-5.8719,-5.7941,-5.7246,-5.6406,-5.5731,-5.5588,-5.5549,-5.5483,-5.4741,-5.4357,-5.4136,-5.3356,-5.251,-5.1846,-5.1769,-5.1433,-5.0789,-5.0712,-5.075,-5.075,-5.0712,-5.0693,-5.0769,-5.073,-5.0681,-5.0735,-5.0778,-5.0803,-5.0626,-5.0008,-4.9297,-4.8663,-4.8582,-4.8727,-4.8676,-4.8681,-4.8706,-4.8712,-4.9395,-4.9407,-4.867,-4.8727,-4.8797,-4.8794,-4.9577,-4.9977,-5.0105,-5.1513,-5.2374,-5.2492,-5.3273,-5.3781,-5.3938,-5.4719,-5.519,-5.5232,-5.6013,-5.6795,-5.7617,-5.8515,-5.9062,-5.914,-5.9844,-6.0312,-6.0312,-6.0972,-6.112,-6.0721,-6.1141,-6.1562,-6.1681,-6.169,-6.1699,-6.1708,-6.1713,-6.1717,-6.1719,-6.1718,-6.1716,-6.171,-6.1704,-6.1692,-6.1668,-6.1644,-6.1573,-6.1515,-6.149,-6.1441,-6.1389,-6.1401,-6.1412,-6.1412,-6.1412,-6.1412,-6.1412,-6.1412,-6.1412,-6.1412,-6.1412,-6.1412,-6.1412,-6.1412,-6.1419,-6.1394,-6.1447,-6.1484,-6.1507,-6.1554,-6.1569,-6.1591,-6.1651,-6.1705,-6.1715,-6.1718,-6.1718,-5.9537,-5.8769,-5.7973,-5.6917,-5.578,-5.5703,-5.5724,-5.5717,-5.5409,-5.5276,-5.5296,-5.4949,-5.4033,-5.2702,-5.2694,-5.256,-5.2252,-5.229,-5.2309,-5.23,-5.2309,-5.2318,-5.2289,-5.2289,-5.2334,-5.2365,-5.242,-5.2461,-5.2438,-5.22,-5.1897,-5.1656,-5.1664,-5.1691,-5.1662,-5.1677,-5.1706,-5.1779,-5.2111,-5.2129,-5.1762,-5.084,-5.0584,-5.1071,-5.1468,-5.1904,-5.2417,-5.3122,-5.3474,-5.3514,-5.4296,-5.4764,-5.4764,-5.5585,-5.6288,-5.6835,-5.7656,-5.8281,-5.8672,-5.9453,-5.9922,-5.9922,-6.0703,-6.1172,-6.1172,-6.152,-6.1513,-6.1313,-6.1497,-6.1718,-6.172,-6.1692,-6.1701,-6.1708,-6.1714,-6.1718,-6.1719,-6.1718,-6.1715,-6.1709,-6.1697,-6.1679,-6.1651,-6.1569,-6.1525,-6.1473,-6.1427,-6.1389,-6.1408,-6.1388,-6.1419,-6.1412,-6.1412,-6.1412,-6.1412,-6.1412,-6.1412,-6.1412,-6.1412,-6.1412,-6.1412,-6.1412,-6.1412,-6.1412,-6.1441,-6.1478,-6.1484,-6.1549,-6.1569,-6.1595,-6.1657,-6.1713,-6.1718,-6.1718,-6.1718,-6.0099,-5.9302,-5.8339,-5.7077,-5.5784,-5.5745,-5.5776,-5.5845,-5.5807,-5.5827,-5.5895,-5.5895,-5.52,-5.4023,-5.3755,-5.3543,-5.335,-5.3388,-5.3415,-5.3424,-5.3386,-5.3403,-5.3421,-5.3421,-5.3473,-5.3546,-5.3522,-5.356,-5.3676,-5.3721,-5.3718,-5.3736,-5.3774,-5.3799,-5.3813,-5.3836,-5.3853,-5.3872,-5.393,-5.3952,-5.3782,-5.2743,-5.2402,-5.2994,-5.3078,-5.3356,-5.3983,-5.4218,-5.4375,-5.4375,-5.5195,-5.5781,-5.6015,-5.6601,-5.7344,-5.8203,-5.9062,-5.9531,-5.9531,-6.0312,-6.0742,-6.082,-6.1367,-6.1719,-6.1719,-6.1715,-6.1709,-6.1669,-6.1694,-6.172,-6.1725,-6.1696,-6.1704,-6.1711,-6.1716,-6.1718,-6.1718,-6.1717,-6.1713,-6.1707,-6.169,-6.1663,-6.1588,-6.1534,-6.1512,-6.149,-6.1447,-6.1415,-6.1381,-6.1412,-6.1412,-6.1412,-6.1412,-6.1412,-6.1412,-6.1412,-6.1412,-6.1412,-6.1412,-6.1412,-6.1412,-6.1412,-6.1388,-6.1401,-6.1453,-6.149,-6.1507,-6.1564,-6.1615,-6.1641,-6.1663,-6.1718,-6.1718,-6.1718,-6.1718,-6.0186,-5.9249,-5.7764,-5.6722,-5.5895,-5.5885,-5.5895,-5.5905,-5.5905,-5.5905,-5.5914,-5.5905,-5.5856,-5.5635,-5.4882,-5.4139,-5.3522,-5.3531,-5.3567,-5.3563,-5.3524,-5.3489,-5.3476,-5.3484,-5.3606,-5.3909,-5.3916,-5.3909,-5.3891,-5.3858,-5.3807,-5.3852,-5.3983,-5.3922,-5.4036,-5.4082,-5.3933,-5.4108,-5.4159,-5.4096,-5.4072,-5.397,-5.3976,-5.4094,-5.3981,-5.4023,-5.418,-5.4805,-5.5273,-5.5273,-5.6094,-5.6875,-5.7656,-5.7851,-5.8281,-5.9101,-5.9883,-6.0351,-6.0469,-6.1094,-6.1562,-6.1601,-6.164,-6.1719,-6.1719,-6.1715,-6.1709,-6.1709,-6.1694,-6.1725,-6.1813,-6.186,-6.1828,-6.1794,-6.1796,-6.1836,-6.1756,-6.183,-6.1707,-6.1697,-6.1676,-6.1644,-6.1608,-6.1539,-6.1495,-6.1472,-6.1421,-6.1419,-6.1419,-6.1412,-6.1412,-6.1412,-6.1412,-6.1412,-6.1412,-6.1412,-6.1412,-6.1412,-6.1412,-6.1412,-6.1412,-6.1419,-6.1401,-6.1421,-6.146,-6.1495,-6.1528,-6.1573,-6.1619,-6.1648,-6.1666,-6.1718,-6.1718,-6.1718,-6.1718,-5.9888,-5.8649,-5.8158,-5.7158,-5.5933,-5.5895,-5.5923,-5.5959,-5.6025,-5.6059,-5.6084,-5.6084,-5.6084,-5.6084,-5.5769,-5.5426,-5.5088,-5.5178,-5.5188,-5.5188,-5.5188,-5.5218,-5.5228,-5.5255,-5.5326,-5.5369,-5.5392,-5.5457,-5.5453,-5.5485,-5.5545,-5.5521,-5.5506,-5.5522,-5.5569,-5.5572,-5.5577,-5.5589,-5.5595,-5.5601,-5.5727,-5.6207,-5.6483,-5.6444,-5.539,-5.5078,-5.5625,-5.5976,-5.6367,-5.6953,-5.7265,-5.7851,-5.8672,-5.9219,-5.9609,-6.0,-6.0742,-6.125,-6.125,-6.1523,-6.1719,-6.1719,-6.1719,-6.1719,-6.1719,-6.1715,-6.1709,-6.1707,-6.1699,-6.1893,-6.2407,-6.2528,-6.2532,-6.2576,-6.3008,-6.3084,-6.2653,-6.2529,-6.2322,-6.1842,-6.1657,-6.1608,-6.1568,-6.1518,-6.1478,-6.1453,-6.1408,-6.1419,-6.1412,-6.1412,-6.1412,-6.1412,-6.1412,-6.1412,-6.1412,-6.1412,-6.1412,-6.1412,-6.1412,-6.1412,-6.1412,-6.1412,-6.1388,-6.1428,-6.1466,-6.1501,-6.1539,-6.1552,-6.163,-6.1663,-6.1718,-6.1718,-6.1718,-6.1718,-6.1718,-5.9991,-5.8865,-5.8558,-5.767,-5.6432,-5.6111,-5.602,-5.6054,-5.6141,-5.6172,-5.6194,-5.6209,-5.6333,-5.6619,-5.6621,-5.6802,-5.6846,-5.6481,-5.6206,-5.6207,-5.6214,-5.6239,-5.6286,-5.6308,-5.6339,-5.6411,-5.6718,-5.6978,-5.7268,-5.7328,-5.7338,-5.7343,-5.7358,-5.7326,-5.7327,-5.7329,-5.7331,-5.7335,-5.7335,-5.7377,-5.7498,-5.7969,-5.8281,-5.8124,-5.7147,-5.6796,-5.7381,-5.7381,-5.7655,-5.8202,-5.832,-5.8711,-5.9531,-6.0351,-6.082,-6.0898,-6.1367,-6.1718,-6.1718,-6.1719,-6.1719,-6.1719,-6.1719,-6.1719,-6.1719,-6.1716,-6.183,-6.2023,-6.2136,-6.2486,-6.3234,-6.3665,-6.3707,-6.3554,-6.3945,-6.4059,-6.3509,-6.3147,-6.2581,-6.1855,-6.163,-6.1586,-6.15,-6.1507,-6.1472,-6.1402,-6.1401,-6.1419,-6.1412,-6.1412,-6.1412,-6.1412,-6.1412,-6.1412,-6.1412,-6.1412,-6.1412,-6.1412,-6.1412,-6.1412,-6.1419,-6.1419,-6.1394,-6.1441,-6.1478,-6.1512,-6.1559,-6.1569,-6.1644,-6.1674,-6.1718,-6.1718,-6.1718,-6.1718,-6.1718,-6.0468,-5.9668,-5.8943,-5.8153,-5.725,-5.6606,-5.6218,-5.6303,-5.6308,-5.6407,-5.6576,-5.6401,-5.6893,-5.7405,-5.7576,-5.8026,-5.8287,-5.7169,-5.6553,-5.6547,-5.6552,-5.6553,-5.6648,-5.6695,-5.6716,-5.6784,-5.7434,-5.8189,-5.882,-5.8821,-5.8863,-5.8983,-5.8866,-5.8789,-5.8984,-5.8867,-5.8945,-5.8906,-5.8828,-5.8905,-5.9099,-5.9058,-5.9134,-5.913,-5.9012,-5.905,-5.909,-5.9013,-5.8936,-5.9094,-5.9175,-5.9608,-6.039,-6.1171,-6.1639,-6.1599,-6.1677,-6.1716,-6.1717,-6.1757,-6.1875,-6.1875,-6.1836,-6.1992,-6.207,-6.203,-6.2263,-6.2848,-6.3041,-6.3352,-6.4216,-6.492,-6.5039,-6.4491,-6.4528,-6.4564,-6.42,-6.3523,-6.2641,-6.1896,-6.1677,-6.1582,-6.15,-6.1501,-6.1472,-6.1434,-6.1401,-6.1412,-6.1412,-6.1412,-6.1412,-6.1412,-6.1412,-6.1412,-6.1412,-6.1412,-6.1412,-6.1412,-6.1412,-6.1412,-6.1419,-6.1419,-6.1415,-6.1453,-6.1495,-6.1534,-6.1552,-6.1591,-6.1609,-6.1671,-6.1674,-6.1718,-6.1718,-6.1718,-6.1718,-6.05,-5.9812,-5.9636,-5.8762,-5.755,-5.7249,-5.7153,-5.7198,-5.7214,-5.7587,-5.8059,-5.8125,-5.8296,-5.8462,-5.8581,-5.8714,-5.8913,-5.8393,-5.8162,-5.818,-5.8123,-5.8145,-5.8207,-5.822,-5.8272,-5.8319,-5.8554,-5.8826,-5.9099,-5.9135,-5.9133,-5.9131,-5.9126,-5.9123,-5.9159,-5.912,-5.912,-5.912,-5.912,-5.9119,-5.9154,-5.9697,-6.0002,-6.0076,-6.0536,-6.0807,-6.0768,-5.9704,-5.9404,-5.995,-5.9992,-6.0384,-6.1166,-6.1556,-6.1711,-6.1711,-6.1711,-6.1711,-6.1791,-6.2263,-6.2577,-6.2695,-6.3125,-6.3437,-6.3476,-6.3437,-6.3553,-6.3865,-6.3903,-6.4255,-6.5037,-6.539,-6.5468,-6.5232,-6.5736,-6.5728,-6.5004,-6.3842,-6.2914,-6.25,-6.1976,-6.1598,-6.1512,-6.1484,-6.146,-6.1408,-6.1381,-6.1412,-6.1412,-6.1412,-6.1412,-6.1412,-6.1412,-6.1412,-6.1412,-6.1412,-6.1412,-6.1412,-6.1412,-6.1412,-6.1419,-6.1401,-6.1434,-6.1478,-6.1512,-6.1559,-6.1576,-6.1602,-6.1615,-6.1668,-6.1715,-6.1718,-6.1718,-6.1718,-6.1718,-6.077,-6.0356,-6.0142,-5.947,-5.85,-5.8231,-5.8098,-5.812,-5.8164,-5.8499,-5.8932,-5.9038,-5.9212,-5.9456,-5.9519,-5.9724,-5.9968,-6.007,-6.0072,-5.9826,-5.9203,-5.9095,-5.91,-5.9061,-5.9287,-5.9507,-5.9536,-5.9724,-5.9993,-5.9985,-6.0018,-6.0018,-5.997,-6.0006,-6.0002,-6.0002,-6.0006,-6.0012,-6.0051,-6.0015,-6.0138,-6.0561,-6.0831,-6.0906,-6.1329,-6.1556,-6.152,-6.0542,-6.0284,-6.0759,-6.0881,-6.1159,-6.1669,-6.1707,-6.1705,-6.1783,-6.2018,-6.2213,-6.2291,-6.3002,-6.3474,-6.3592,-6.3984,-6.4258,-6.4297,-6.4296,-6.4374,-6.4725,-6.4804,-6.5156,-6.5898,-6.6093,-6.6051,-6.6047,-6.647,-6.6416,-6.5565,-6.4552,-6.3549,-6.3072,-6.2396,-6.1972,-6.1618,-6.1478,-6.1453,-6.1433,-6.1412,-6.1412,-6.1412,-6.1412,-6.1412,-6.1412,-6.1412,-6.1412,-6.1412,-6.1412,-6.1412,-6.1412,-6.1412,-6.1412,-6.1419,-6.1408,-6.1402,-6.1495,-6.1534,-6.1573,-6.1584,-6.1595,-6.1644,-6.1663,-6.1718,-6.1718,-6.1718,-6.1718,-6.1718,-6.1208,-6.1205,-6.0526,-6.0209,-5.9971,-5.9363,-5.907,-5.9096,-5.9056,-5.9189,-5.9274,-5.9454,-5.9779,-6.0373,-6.0459,-6.0816,-6.1523,-6.1442,-6.1396,-6.1047,-6.019,-5.9485,-5.9514,-5.9485,-5.9801,-6.0278,-6.0343,-6.0681,-6.1179,-6.1213,-6.1481,-6.1286,-6.1247,-6.1403,-6.1252,-6.1447,-6.1339,-6.1318,-6.14,-6.1409,-6.1428,-6.151,-6.1506,-6.1506,-6.1541,-6.158,-6.1541,-6.1396,-6.1449,-6.166,-6.1566,-6.1579,-6.1704,-6.174,-6.1891,-6.193,-6.2594,-6.2984,-6.3222,-6.3896,-6.4371,-6.4411,-6.4569,-6.4453,-6.4687,-6.4805,-6.5039,-6.5586,-6.5664,-6.5976,-6.6639,-6.6793,-6.6749,-6.6772,-6.6761,-6.6424,-6.5749,-6.5463,-6.467,-6.3526,-6.301,-6.264,-6.1846,-6.1717,-6.1603,-6.144,-6.1412,-6.1412,-6.1412,-6.1412,-6.1412,-6.1412,-6.1412,-6.1412,-6.1412,-6.1412,-6.1412,-6.1412,-6.1412,-6.1412,-6.1426,-6.1421,-6.1433,-6.1518,-6.1554,-6.1552,-6.158,-6.1591,-6.1651,-6.1671,-6.1718,-6.1718,-6.1718,-6.1718,-6.1718,-6.1244,-6.1335,-6.125,-6.0848,-6.0304,-6.0059,-6.0045,-6.0024,-6.0011,-6.037,-6.0842,-6.1009,-6.1053,-6.1327,-6.1327,-6.152,-6.1632,-6.1686,-6.1624,-6.154,-6.1198,-6.0878,-6.0867,-6.0867,-6.0944,-6.1201,-6.12,-6.1214,-6.1402,-6.1558,-6.1519,-6.1441,-6.1525,-6.1453,-6.1433,-6.1439,-6.1451,-6.1512,-6.1518,-6.1523,-6.1534,-6.1534,-6.1528,-6.1528,-6.1534,-6.1534,-6.1539,-6.1568,-6.1608,-6.1641,-6.1612,-6.1663,-6.1832,-6.234,-6.2655,-6.2776,-6.3442,-6.395,-6.415,-6.4784,-6.5222,-6.5305,-6.5739,-6.621,-6.6211,-6.6211,-6.6328,-6.6561,-6.6561,-6.6599,-6.6867,-6.6862,-6.6807,-6.6814,-6.6801,-6.667,-6.6326,-6.5796,-6.5197,-6.4764,-6.4179,-6.3414,-6.2747,-6.2373,-6.2154,-6.1673,-6.1412,-6.1412,-6.1412,-6.1412,-6.1412,-6.1412,-6.1412,-6.1412,-6.1412,-6.1412,-6.1412,-6.1412,-6.1412,-6.1419,-6.144,-6.1434,-6.1495,-6.1549,-6.1564,-6.1591,-6.1576,-6.1595,-6.1657,-6.1715,-6.1718,-6.1718,-6.1718,-6.1718,-6.1718,-6.1344,-6.1434,-6.1544,-6.1335,-6.0903,-6.0934,-6.095,-6.0962,-6.0973,-6.121,-6.164,-6.1717,-6.1712,-6.1669,-6.1658,-6.1649,-6.1674,-6.1946,-6.2114,-6.2167,-6.2374,-6.2301,-6.2145,-6.2258,-6.2496,-6.2475,-6.2377,-6.2393,-6.2385,-6.2346,-6.2385,-6.2354,-6.202,-6.1888,-6.1871,-6.1483,-6.1388,-6.1415,-6.1428,-6.1447,-6.146,-6.1478,-6.1484,-6.1484,-6.1523,-6.16,-6.1996,-6.2413,-6.2499,-6.2274,-6.2177,-6.2301,-6.274,-6.3211,-6.3491,-6.3545,-6.4328,-6.4799,-6.5002,-6.5635,-6.6073,-6.6158,-6.6671,-6.6831,-6.6836,-6.6912,-6.6911,-6.687,-6.6908,-6.6905,-6.6856,-6.68,-6.6775,-6.674,-6.6767,-6.672,-6.6697,-6.6254,-6.5816,-6.5426,-6.4953,-6.4315,-6.348,-6.3079,-6.2575,-6.2062,-6.1606,-6.149,-6.1412,-6.1412,-6.1412,-6.1412,-6.1412,-6.1412,-6.1412,-6.1412,-6.1412,-6.1412,-6.1412,-6.1419,-6.1421,-6.1453,-6.1501,-6.1549,-6.1568,-6.1591,-6.158,-6.1602,-6.166,-6.1713,-6.1715,-6.1718,-6.1718,-6.1718,-6.1718,-6.1401,-6.154,-6.1582,-6.1644,-6.1644,-6.1704,-6.1597,-6.1679,-6.1639,-6.1634,-6.1707,-6.1697,-6.1644,-6.1576,-6.1615,-6.1634,-6.1829,-6.2387,-6.2741,-6.3085,-6.3475,-6.358,-6.3107,-6.3348,-6.3549,-6.3546,-6.3678,-6.3573,-6.3418,-6.3487,-6.3603,-6.335,-6.2844,-6.256,-6.2314,-6.1801,-6.1438,-6.1322,-6.1352,-6.1381,-6.1401,-6.1428,-6.1512,-6.1746,-6.1979,-6.229,-6.2886,-6.3456,-6.3648,-6.3175,-6.3089,-6.3374,-6.4041,-6.4201,-6.4329,-6.4502,-6.513,-6.5683,-6.5772,-6.6329,-6.6731,-6.6733,-6.6781,-6.6902,-6.6905,-6.6905,-6.6904,-6.686,-6.6901,-6.6854,-6.6832,-6.6805,-6.6775,-6.6711,-6.6707,-6.6693,-6.6712,-6.6663,-6.6395,-6.5689,-6.5533,-6.5078,-6.4343,-6.3579,-6.3048,-6.2871,-6.2352,-6.1917,-6.1723,-6.1568,-6.149,-6.1412,-6.1412,-6.1412,-6.1412,-6.1412,-6.1412,-6.1412,-6.1412,-6.1426,-6.1447,-6.1484,-6.1518,-6.1549,-6.1573,-6.1603,-6.1627,-6.1648,-6.1702,-6.1713,-6.1718,-6.1718,-6.1718,-6.1718,-6.1718,-6.1495,-6.1598,-6.1641,-6.1683,-6.1705,-6.1716,-6.1718,-6.1713,-6.1701,-6.169,-6.1683,-6.1666,-6.1641,-6.1615,-6.1677,-6.1924,-6.2512,-6.2819,-6.3029,-6.3774,-6.4458,-6.4709,-6.4343,-6.417,-6.3813,-6.3815,-6.371,-6.367,-6.3699,-6.3794,-6.3619,-6.367,-6.3584,-6.3071,-6.2594,-6.2448,-6.1892,-6.1461,-6.1399,-6.1485,-6.15,-6.1516,-6.1795,-6.2253,-6.2913,-6.3332,-6.3534,-6.3813,-6.4168,-6.4442,-6.4276,-6.4169,-6.4388,-6.4874,-6.5168,-6.5379,-6.5968,-6.6479,-6.6564,-6.6736,-6.6826,-6.6954,-6.7041,-6.6857,-6.6902,-6.7018,-6.6935,-6.6848,-6.6802,-6.6988,-6.6996,-6.6814,-6.6902,-6.6951,-6.6896,-6.6797,-6.6696,-6.6708,-6.6513,-6.6379,-6.6256,-6.6004,-6.5187,-6.487,-6.4344,-6.3765,-6.3129,-6.2546,-6.215,-6.1801,-6.1606,-6.149,-6.1412,-6.1412,-6.1412,-6.1412,-6.1412,-6.1412,-6.1412,-6.144,-6.146,-6.149,-6.1512,-6.1549,-6.1586,-6.1612,-6.1595,-6.1651,-6.1702,-6.1713,-6.1718,-6.1718,-6.1718,-6.1718,-6.1679,-6.151,-6.1612,-6.1676,-6.1705,-6.1717,-6.1716,-6.1705,-6.1696,-6.1674,-6.1657,-6.1644,-6.1619,-6.1786,-6.2153,-6.2206,-6.2602,-6.3307,-6.3761,-6.434,-6.5072,-6.5566,-6.567,-6.5595,-6.517,-6.4871,-6.4822,-6.483,-6.4749,-6.4778,-6.4717,-6.4844,-6.4711,-6.4423,-6.4125,-6.3632,-6.3293,-6.2876,-6.2594,-6.2418,-6.2426,-6.2426,-6.2452,-6.2616,-6.315,-6.3925,-6.4399,-6.4446,-6.4907,-6.5289,-6.5639,-6.5775,-6.5615,-6.5395,-6.5772,-6.603,-6.6174,-6.6416,-6.7048,-6.7251,-6.7415,-6.7621,-6.7904,-6.7952,-6.7997,-6.8003,-6.8005,-6.8,-6.7988,-6.8018,-6.7968,-6.7963,-6.7959,-6.7893,-6.7882,-6.7864,-6.7801,-6.7658,-6.7133,-6.6645,-6.6627,-6.6549,-6.6374,-6.6043,-6.5673,-6.5263,-6.4535,-6.3828,-6.3245,-6.2585,-6.2235,-6.184,-6.1645,-6.149,-6.1412,-6.1412,-6.1412,-6.1412,-6.1412,-6.1412,-6.1454,-6.1505,-6.1528,-6.154,-6.1549,-6.1586,-6.1573,-6.1591,-6.1648,-6.1702,-6.1713,-6.1718,-6.1718,-6.1718,-6.1718,-6.1718,-6.1556,-6.1615,-6.1662,-6.1717,-6.1717,-6.1697,-6.1679,-6.1671,-6.1644,-6.1701,-6.179,-6.1768,-6.2328,-6.2836,-6.2968,-6.3444,-6.4181,-6.5008,-6.5724,-6.6477,-6.6545,-6.6579,-6.6504,-6.6371,-6.6128,-6.6224,-6.594,-6.5947,-6.5947,-6.6091,-6.5771,-6.5908,-6.5487,-6.4976,-6.4793,-6.4338,-6.3729,-6.3506,-6.3409,-6.3466,-6.3505,-6.3562,-6.364,-6.4047,-6.4706,-6.518,-6.5383,-6.5923,-6.6531,-6.6614,-6.7487,-6.7564,-6.7249,-6.7103,-6.7081,-6.7126,-6.7287,-6.7642,-6.8119,-6.8284,-6.8561,-6.9263,-6.9224,-6.9229,-6.9155,-6.9077,-6.9033,-6.9103,-6.9055,-6.9041,-6.9268,-6.9038,-6.9001,-6.9065,-6.9097,-6.9162,-6.8861,-6.7793,-6.7256,-6.6873,-6.6938,-6.6839,-6.6443,-6.6001,-6.5676,-6.5273,-6.4605,-6.3945,-6.3323,-6.2857,-6.2546,-6.2235,-6.2157,-6.1568,-6.149,-6.149,-6.149,-6.1568,-6.1529,-6.1577,-6.1583,-6.1523,-6.1507,-6.1554,-6.1586,-6.1569,-6.1588,-6.1648,-6.1699,-6.1713,-6.1718,-6.1718,-6.1718,-6.1718,-6.1718,-6.1615,-6.1694,-6.1715,-6.1717,-6.1704,-6.1727,-6.1666,-6.1641,-6.1654,-6.1985,-6.2586,-6.2635,-6.3058,-6.3638,-6.3813,-6.4259,-6.5125,-6.5965,-6.6726,-6.7401,-6.7484,-6.745,-6.7425,-6.7232,-6.6922,-6.633,-6.6134,-6.6112,-6.6091,-6.6047,-6.608,-6.6063,-6.5919,-6.5642,-6.517,-6.4793,-6.4454,-6.4106,-6.4,-6.3961,-6.3952,-6.3971,-6.4173,-6.4634,-6.5368,-6.5775,-6.6116,-6.6776,-6.7358,-6.7493,-6.8312,-6.8613,-6.8645,-6.8683,-6.8727,-6.8594,-6.8577,-6.866,-6.8961,-6.9084,-6.9123,-6.9234,-6.939,-6.9328,-6.9328,-6.9328,-6.9546,-6.9451,-6.9395,-6.9292,-6.9247,-6.9441,-6.9278,-6.9186,-6.9281,-6.9313,-6.9166,-6.8933,-6.8404,-6.7906,-6.7704,-6.7432,-6.7075,-6.6725,-6.6446,-6.6081,-6.5498,-6.4955,-6.445,-6.3983,-6.3634,-6.3323,-6.3012,-6.2235,-6.1575,-6.1606,-6.1645,-6.184,-6.1886,-6.192,-6.1842,-6.1589,-6.1546,-6.2016,-6.185,-6.1599,-6.1619,-6.168,-6.169,-6.166,-6.1671,-6.1718,-6.1718,-6.1715,-6.1718,-6.169,-6.1711,-6.1718,-6.1707,-6.1688,-6.166,-6.1865,-6.2188,-6.224,-6.2679,-6.3236,-6.3441,-6.3878,-6.4467,-6.4634,-6.528,-6.64,-6.6897,-6.7658,-6.8264,-6.8394,-6.8368,-6.8228,-6.7881,-6.7377,-6.6873,-6.6446,-6.6183,-6.6144,-6.6123,-6.6112,-6.6134,-6.6144,-6.5972,-6.5721,-6.5605,-6.5373,-6.4986,-6.4948,-6.4899,-6.4907,-6.4844,-6.5109,-6.5434,-6.577,-6.6217,-6.6742,-6.7117,-6.7712,-6.8238,-6.9043,-6.9506,-6.9778,-7.0044,-7.007,-6.9435,-6.9305,-6.9505,-6.9753,-6.9915,-7.0051,-7.0473,-7.0427,-7.0427,-7.0427,-7.0498,-7.0459,-7.0399,-7.0409,-7.0378,-7.0456,-7.0324,-7.0377,-7.036,-7.0274,-7.0283,-7.0352,-7.0352,-6.9786,-6.9103,-6.8762,-6.8459,-6.807,-6.7713,-6.7285,-6.6819,-6.6353,-6.5887,-6.546,-6.4986,-6.4559,-6.4015,-6.3619,-6.3238,-6.25,-6.2383,-6.2306,-6.2391,-6.2437,-6.2464,-6.2569,-6.251,-6.2702,-6.3091,-6.2655,-6.1976,-6.1642,-6.1701,-6.1673,-6.1687,-6.1696,-6.1705,-6.171,-6.1713,-6.1715,-6.1713,-6.1719,-6.1666,-6.1798,-6.1894,-6.1853,-6.2323,-6.2917,-6.3047,-6.3486,-6.4195,-6.4325,-6.4733,-6.5418,-6.5824,-6.6508,-6.7829,-6.7907,-6.8567,-6.9181,-6.9273,-6.9256,-6.9028,-6.8548,-6.7978,-6.7368,-6.6941,-6.6379,-6.6214,-6.6175,-6.6175,-6.6175,-6.6185,-6.6185,-6.6147,-6.6069,-6.6185,-6.6185,-6.6165,-6.6134,-6.6069,-6.6052,-6.5978,-6.6017,-6.5978,-6.6352,-6.7108,-6.7541,-6.8138,-6.8938,-6.9748,-7.0399,-7.061,-7.1215,-7.0953,-6.9957,-6.9706,-7.0102,-7.0438,-7.0635,-7.0837,-7.1248,-7.1486,-7.1594,-7.181,-7.181,-7.1965,-7.1849,-7.1723,-7.1511,-7.1269,-7.1445,-7.1426,-7.1387,-7.1349,-7.1465,-7.1347,-7.124,-7.0977,-7.0382,-6.9903,-6.9367,-6.8862,-6.8529,-6.8101,-6.779,-6.7324,-6.6819,-6.6353,-6.5786,-6.5274,-6.4614,-6.4225,-6.4078,-6.3735,-6.351,-6.3401,-6.3323,-6.3369,-6.3383,-6.3566,-6.3748,-6.3902,-6.3815,-6.3291,-6.2616,-6.2206,-6.1911,-6.2083,-6.2099,-6.1839,-6.1693,-6.1696,-6.1702,-6.171,-6.1717,-6.1702,-6.164,-6.1989,-6.2643,-6.2669,-6.3141,-6.3831,-6.3864,-6.4351,-6.5128,-6.516,-6.5606,-6.6322,-6.7091,-6.7557,-6.8062,-6.8645,-6.9383,-7.0083,-7.0152,-7.0127,-7.0132,-7.001,-6.882,-6.7929,-6.7454,-6.6882,-6.6379,-6.6185,-6.6185,-6.6185,-6.6185,-6.6185,-6.6185,-6.6185,-6.6185,-6.6175,-6.6134,-6.6058,-6.6017,-6.602,-6.5946,-6.5909,-6.605,-6.646,-6.7345,-6.7998,-6.8829,-6.9733,-7.0612,-7.1162,-7.1378,-7.1472,-7.1568,-7.1378,-7.1381,-7.142,-7.1373,-7.1335,-7.13,-7.1581,-7.1559,-7.1771,-7.2291,-7.291,-7.2988,-7.2457,-7.244,-7.2238,-7.1861,-7.162,-7.1562,-7.1678,-7.1853,-7.1785,-7.1727,-7.2192,-7.1901,-7.1532,-7.1016,-7.0197,-6.9514,-6.9212,-6.8909,-6.8606,-6.8296,-6.7783,-6.727,-6.6655,-6.594,-6.5311,-6.5009,-6.4901,-6.48,-6.4621,-6.452,-6.4372,-6.4379,-6.4386,-6.4524,-6.4668,-6.439,-6.4181,-6.3776,-6.3753,-6.3736,-6.3482,-6.2999,-6.2664,-6.2559,-6.2102,-6.1638,-6.169,-6.1897,-6.2806,-6.2362,-6.2294,-6.2756,-6.3491,-6.3475,-6.3953,-6.461,-6.4701,-6.5132,-6.584,-6.5934,-6.6392,-6.7129,-6.7642,-6.8311,-6.9103,-6.9608,-7.0238,-7.086,-7.0968,-7.099,-7.0869,-7.0436,-6.9421,-6.8472,-6.7725,-6.6959,-6.6456,-6.6185,-6.6185,-6.6185,-6.6185,-6.6185,-6.6185,-6.6185,-6.6185,-6.6165,-6.6102,-6.6013,-6.5982,-6.5972,-6.5935,-6.5936,-6.632,-6.7039,-6.786,-6.8758,-6.9655,-7.0447,-7.1097,-7.1264,-7.1425,-7.1475,-7.1494,-7.1523,-7.1465,-7.1426,-7.1504,-7.1792,-7.1872,-7.2063,-7.2223,-7.2727,-7.3035,-7.3344,-7.3562,-7.3125,-7.3111,-7.294,-7.2778,-7.2811,-7.2844,-7.2816,-7.2615,-7.2675,-7.2675,-7.2801,-7.2889,-7.2531,-7.2124,-7.1338,-7.0598,-7.0158,-6.9894,-6.9575,-6.9101,-6.851,-6.8028,-6.7536,-6.6791,-6.6006,-6.586,-6.5799,-6.5738,-6.5607,-6.5631,-6.5561,-6.5576,-6.5584,-6.5552,-6.5503,-6.522,-6.5324,-6.542,-6.5399,-6.5339,-6.4587,-6.3716,-6.3457,-6.3319,-6.2855,-6.2434,-6.2375,-6.2425,-6.3852,-6.3496,-6.3195,-6.3592,-6.4331,-6.4306,-6.4778,-6.5513,-6.5522,-6.5832,-6.6273,-6.6403,-6.6868,-6.7623,-6.798,-6.8812,-7.0166,-7.0477,-7.0943,-7.1409,-7.1564,-7.1538,-7.1308,-7.0719,-6.9983,-6.8907,-6.8267,-6.7307,-6.6495,-6.6185,-6.6185,-6.6185,-6.6185,-6.6185,-6.6185,-6.6185,-6.6175,-6.6123,-6.6036,-6.5993,-6.5984,-6.5935,-6.6064,-6.632,-6.6821,-6.7628,-6.8667,-6.9284,-7.0119,-7.0837,-7.1104,-7.1236,-7.1373,-7.1415,-7.1619,-7.1745,-7.1831,-7.191,-7.2032,-7.2247,-7.2392,-7.2712,-7.3101,-7.3499,-7.3629,-7.3706,-7.3788,-7.3798,-7.3829,-7.3819,-7.3755,-7.3688,-7.3644,-7.359,-7.369,-7.3828,-7.3889,-7.3756,-7.3601,-7.3235,-7.2946,-7.2783,-7.2047,-7.1365,-7.0908,-7.0541,-6.9989,-6.9312,-6.8703,-6.8219,-6.7464,-6.665,-6.6281,-6.6221,-6.6179,-6.6243,-6.6422,-6.6493,-6.6501,-6.6431,-6.6213,-6.622,-6.6125,-6.6379,-6.6594,-6.6419,-6.5938,-6.515,-6.4393,-6.4247,-6.4101,-6.3726,-6.3427,-6.3292,-6.3109,-6.4527,-6.5071,-6.4279,-6.4409,-6.5117,-6.5117,-6.5576,-6.6217,-6.6248,-6.6278,-6.6376,-6.6454,-6.6871,-6.7665,-6.8479,-6.9255,-7.0272,-7.1038,-7.1358,-7.1474,-7.1504,-7.1513,-7.1407,-7.1106,-7.0457,-6.9197,-6.8731,-6.781,-6.6688,-6.6688,-6.6417,-6.6224,-6.6456,-6.6301,-6.6417,-6.6639,-6.6548,-6.6483,-6.6403,-6.6292,-6.6204,-6.6218,-6.6436,-6.6936,-6.7205,-6.7859,-6.9436,-6.9758,-7.0182,-7.0979,-7.1081,-7.1154,-7.1269,-7.1507,-7.1827,-7.2142,-7.2468,-7.2633,-7.2996,-7.28,-7.2688,-7.3154,-7.3702,-7.4155,-7.4193,-7.4987,-7.5015,-7.4458,-7.4489,-7.435,-7.4037,-7.3781,-7.4203,-7.4367,-7.4506,-7.4541,-7.4525,-7.4359,-7.4176,-7.3906,-7.3734,-7.3573,-7.3235,-7.2483,-7.1853,-7.1455,-7.0622,-6.9944,-6.915,-6.8549,-6.7948,-6.7242,-6.668,-6.6447,-6.6385,-6.6411,-6.6445,-6.6485,-6.6508,-6.6508,-6.6431,-6.6524,-6.6538,-6.6546,-6.6567,-6.6594,-6.653,-6.5764,-6.5232,-6.51,-6.4888,-6.4637,-6.4189,-6.3895,-6.3865,-6.5777,-6.5987,-6.5622,-6.5639,-6.5918,-6.5932,-6.6101,-6.6346,-6.6349,-6.6322,-6.6293,-6.6361,-6.7077,-6.8152,-6.8743,-6.9682,-7.0874,-7.13,-7.1446,-7.1494,-7.1494,-7.1475,-7.1445,-7.127,-7.0746,-6.9786,-6.9445,-6.9048,-6.8003,-6.7617,-6.7771,-6.7694,-6.7307,-6.7462,-6.7567,-6.7574,-6.7548,-6.7518,-6.7485,-6.75,-6.7449,-6.7436,-6.759,-6.7821,-6.8552,-6.8936,-6.9706,-7.0206,-7.0592,-7.0915,-7.103,-7.1144,-7.1359,-7.1715,-7.2179,-7.2645,-7.2969,-7.3536,-7.3971,-7.3791,-7.3859,-7.4281,-7.4671,-7.4787,-7.4711,-7.5221,-7.531,-7.5178,-7.5172,-7.5003,-7.5173,-7.5233,-7.5401,-7.5374,-7.5306,-7.5264,-7.5198,-7.5082,-7.4928,-7.4746,-7.4552,-7.437,-7.3994,-7.3579,-7.2964,-7.2365,-7.1454,-7.0581,-6.9797,-6.909,-6.8527,-6.7859,-6.726,-6.6738,-6.6639,-6.6558,-6.6467,-6.6469,-6.6508,-6.6508,-6.6508,-6.6508,-6.6524,-6.6531,-6.6531,-6.6553,-6.6443,-6.6242,-6.6036,-6.5842,-6.5723,-6.5673,-6.5143,-6.4613,-6.4544,-6.6524,-6.6446,-6.6389,-6.6364,-6.6364,-6.6376,-6.6349,-6.6331,-6.6303,-6.6215,-6.6165,-6.6253,-6.7008,-6.8199,-6.8839,-6.9556,-7.0699,-7.1241,-7.1406,-7.1435,-7.1435,-7.1425,-7.1405,-7.1229,-7.087,-7.0219,-6.9938,-6.9512,-6.8661,-6.8777,-6.8854,-6.8777,-6.8622,-6.8661,-6.8485,-6.874,-6.8672,-6.8562,-6.85,-6.845,-6.8359,-6.8321,-6.859,-6.8744,-6.9321,-6.9744,-7.009,-7.0552,-7.081,-7.0952,-7.103,-7.1185,-7.157,-7.2045,-7.2598,-7.3099,-7.3625,-7.4207,-7.4674,-7.479,-7.4795,-7.4942,-7.498,-7.5037,-7.5133,-7.519,-7.5261,-7.5403,-7.5573,-7.5772,-7.5976,-7.5939,-7.5967,-7.5876,-7.5975,-7.5933,-7.5972,-7.5895,-7.574,-7.5546,-7.5392,-7.5287,-7.4978,-7.4525,-7.3568,-7.2932,-7.2186,-7.1324,-7.0578,-6.992,-6.9368,-6.8633,-6.7859,-6.7339,-6.6901,-6.6657,-6.6459,-6.6477,-6.6508,-6.6508,-6.6508,-6.6508,-6.6508,-6.6516,-6.6516,-6.6508,-6.6438,-6.6337,-6.6404,-6.6517,-6.6367,-6.6168,-6.6101,-6.5572,-6.5348,-6.6485,-6.6398,-6.6349,-6.6273,-6.6312,-6.6312,-6.6245,-6.6205,-6.6195,-6.6155,-6.6112,-6.6144,-6.6647,-6.7602,-6.8397,-6.9357,-7.0208,-7.0993,-7.133,-7.133,-7.1291,-7.1291,-7.1291,-7.1164,-7.0921,-7.0208,-7.0081,-6.9849,-6.9037,-6.9231,-6.9512,-6.9821,-6.9783,-6.9579,-6.891,-6.8733,-6.8639,-6.8578,-6.8629,-6.8667,-6.8744,-6.8783,-6.9167,-6.9552,-6.9821,-7.0206,-7.0591,-7.0744,-7.0912,-7.0925,-7.0965,-7.13,-7.2045,-7.2367,-7.3125,-7.4329,-7.4543,-7.5018,-7.5539,-7.5277,-7.5152,-7.4998,-7.4995,-7.4975,-7.4975,-7.5094,-7.5264,-7.5407,-7.5595,-7.5803,-7.6005,-7.6159,-7.6225,-7.6301,-7.6362,-7.6397,-7.6397,-7.6397,-7.6127,-7.6011,-7.6204,-7.6243,-7.5972,-7.5469,-7.427,-7.3469,-7.2839,-7.2065,-7.1253,-7.0672,-7.0092,-6.928,-6.8468,-6.7803,-6.7279,-6.6678,-6.645,-6.6477,-6.6508,-6.6508,-6.6508,-6.6508,-6.6508,-6.6508,-6.6508,-6.6508,-6.6508,-6.647,-6.6538,-6.6574,-6.6633,-6.6552,-6.6563,-6.6457,-6.6117,-6.6406,-6.6394,-6.6331,-6.6284,-6.6254,-6.6254,-6.6205,-6.6185,-6.6144,-6.6091,-6.6047,-6.6069,-6.6532,-6.7409,-6.8259,-6.9092,-6.9942,-7.0741,-7.1166,-7.1178,-7.1178,-7.1166,-7.1166,-7.1139,-7.0985,-7.083,-7.0699,-7.0656,-7.0463,-7.0253,-7.0479,-7.0827,-7.0667,-7.0656,-7.0467,-7.0269,-7.017,-7.0144,-7.0131,-7.009,-7.0052,-7.0014,-7.0129,-7.0437,-7.0437,-7.0591,-7.086,-7.0898,-7.0898,-7.0937,-7.0977,-7.1478,-7.2286,-7.2712,-7.3633,-7.4654,-7.5003,-7.5418,-7.5493,-7.5264,-7.5133,-7.5015,-7.4935,-7.4935,-7.4957,-7.5113,-7.5264,-7.5424,-7.5611,-7.5841,-7.5976,-7.6131,-7.6225,-7.6301,-7.635,-7.6386,-7.6397,-7.6397,-7.6281,-7.6281,-7.6397,-7.6397,-7.6243,-7.5972,-7.5005,-7.396,-7.3303,-7.2375,-7.1485,-7.1175,-7.0711,-6.986,-6.9058,-6.8307,-6.7658,-6.7104,-6.6614,-6.6485,-6.6508,-6.6508,-6.6508,-6.6508,-6.6508,-6.6508,-6.6508,-6.6508,-6.6508,-6.6508,-6.6516,-6.6546,-6.6614,-6.6651,-6.663,-6.6608,-6.6551,-6.6394,-6.6349,-6.6303,-6.6205,-6.6165,-6.6175,-6.6175,-6.6155,-6.6112,-6.6058,-6.6001,-6.6001,-6.6272,-6.7043,-6.8046,-6.8791,-6.9562,-7.0604,-7.1106,-7.1106,-7.1106,-7.1106,-7.1106,-7.1093,-7.1079,-7.1118,-7.1142,-7.1127,-7.0973,-7.1174,-7.1147,-7.1124,-7.1178,-7.1026,-7.099,-7.0889,-7.0838,-7.0773,-7.0681,-7.0706,-7.0744,-7.0783,-7.0821,-7.086,-7.086,-7.0898,-7.0898,-7.0898,-7.0898,-7.0975,-7.1283,-7.1745,-7.2591,-7.3409,-7.4226,-7.5027,-7.5379,-7.5616,-7.5392,-7.5283,-7.519,-7.5055,-7.4975,-7.4937,-7.5056,-7.519,-7.5376,-7.5532,-7.5699,-7.5887,-7.6048,-7.6172,-7.625,-7.6326,-7.6362,-7.6397,-7.6397,-7.6397,-7.6397,-7.6397,-7.6397,-7.6397,-7.6359,-7.6127,-7.5662,-7.4695,-7.3728,-7.2761,-7.1794,-7.1407,-7.1137,-7.0479,-6.9677,-6.8994,-6.8229,-6.7492,-6.701,-6.6579,-6.6508,-6.6508,-6.6508,-6.6508,-6.6508,-6.6508,-6.6508,-6.6508,-6.6508,-6.6508,-6.6516,-6.6546,-6.6594,-6.6633,-6.6651,-6.653,-6.64,-6.6349,-6.6303,-6.6244,-6.6144,-6.6112,-6.6144,-6.6144,-6.6091,-6.6091,-6.6063,-6.597,-6.6005,-6.6082,-6.6406,-6.7829,-6.8613,-6.9025,-7.0374,-7.0914,-7.1081,-7.1056,-7.1068,-7.1068,-7.1068,-7.1056,-7.1081,-7.1093,-7.1106,-7.1093,-7.113,-7.113,-7.1093,-7.1068,-7.1043,-7.1018,-7.0992,-7.0952,-7.0925,-7.0912,-7.0898,-7.0898,-7.0898,-7.0898,-7.0898,-7.0898,-7.0898,-7.0898,-7.0898,-7.0975,-7.1245,-7.1706,-7.2591,-7.3409,-7.4211,-7.5027,-7.5526,-7.5644,-7.5514,-7.5356,-7.5301,-7.5246,-7.5152,-7.5095,-7.5056,-7.5133,-7.5301,-7.5518,-7.5649,-7.5826,-7.602,-7.6172,-7.6238,-7.6313,-7.635,-7.6386,-7.6397,-7.6397,-7.6397,-7.6397,-7.6397,-7.6397,-7.6397,-7.6397,-7.6204,-7.5933,-7.4928,-7.3999,-7.3264,-7.2336,-7.1523,-7.1253,-7.1059,-7.0346,-6.968,-6.8878,-6.8025,-6.742,-6.6982,-6.6579,-6.6508,-6.6508,-6.6508,-6.6508,-6.6508,-6.6508,-6.6508,-6.6508,-6.6516,-6.6531,-6.6567,-6.6601,-6.6354,-6.6307,-6.5917,-6.5713,-6.6303,-6.6205,-6.6144,-6.6091,-6.6047,-6.6047,-6.6024,-6.6017,-6.6017,-6.597,-6.5935,-6.5909,-6.5909,-6.6089,-6.768,-6.8296,-6.9066,-6.9951,-7.0683,-7.0965,-7.0979,-7.0965,-7.0965,-7.0965,-7.0965,-7.0979,-7.1005,-7.103,-7.1043,-7.1068,-7.1068,-7.103,-7.1005,-7.0979,-7.0952,-7.0939,-7.0912,-7.0898,-7.0898,-7.0898,-7.0898,-7.0898,-7.0898,-7.0898,-7.0898,-7.0898,-7.0898,-7.0975,-7.1168,-7.1783,-7.2014,-7.2769,-7.4235,-7.4527,-7.4943,-7.5551,-7.5566,-7.5483,-7.5318,-7.5281,-7.5283,-7.5303,-7.5303,-7.5338,-7.5374,-7.5462,-7.5655,-7.5779,-7.5932,-7.609,-7.6212,-7.6288,-7.6338,-7.6374,-7.6397,-7.6397,-7.6397,-7.6397,-7.6397,-7.6397,-7.6397,-7.6397,-7.6397,-7.6359,-7.5972,-7.5044,-7.4193,-7.3458,-7.2684,-7.1794,-7.1369,-7.1175,-7.0838,-7.0096,-6.9401,-6.8597,-6.7954,-6.7385,-6.699,-6.6625,-6.6508,-6.6508,-6.6508,-6.6508,-6.6508,-6.6508,-6.6508,-6.6524,-6.6585,-6.662,-6.6614,-6.625,-6.5923,-6.5538,-6.503,-6.5693,-6.5698,-6.5964,-6.6024,-6.6017,-6.5982,-6.5946,-6.5935,-6.5984,-6.596,-6.5859,-6.5859,-6.5846,-6.6037,-6.7459,-6.8356,-6.851,-7.0011,-7.0871,-7.0871,-7.0885,-7.0898,-7.0898,-7.0898,-7.0912,-7.0912,-7.0925,-7.0965,-7.0979,-7.0992,-7.0992,-7.0965,-7.0965,-7.0939,-7.0912,-7.0898,-7.0898,-7.0898,-7.0898,-7.0898,-7.0898,-7.0898,-7.0898,-7.0898,-7.0898,-7.0937,-7.1014,-7.1129,-7.1745,-7.236,-7.2552,-7.3524,-7.4666,-7.485,-7.5025,-7.5566,-7.5553,-7.5501,-7.5392,-7.5392,-7.5356,-7.5374,-7.5483,-7.5549,-7.5638,-7.5704,-7.5833,-7.5917,-7.602,-7.6131,-7.6238,-7.6326,-7.6362,-7.6397,-7.6397,-7.6397,-7.6397,-7.6397,-7.6397,-7.6397,-7.6397,-7.6397,-7.6397,-7.6397,-7.5933,-7.4773,-7.3883,-7.3187,-7.2452,-7.164,-7.133,-7.1253,-7.0954,-7.0462,-6.9817,-6.9246,-6.8643,-6.7997,-6.7456,-6.7083,-6.6742,-6.6508,-6.6508,-6.6508,-6.6508,-6.6516,-6.6524,-6.6546,-6.6613,-6.6646,-6.6567,-6.6252,-6.5767,-6.509,-6.4536,-6.476,-6.4767,-6.5566,-6.5777,-6.5856,-6.5833,-6.5846,-6.5807,-6.591,-6.591,-6.5793,-6.578,-6.5792,-6.6225,-6.7529,-6.8335,-6.8887,-7.0105,-7.0801,-7.0801,-7.0857,-7.0885,-7.0898,-7.0898,-7.0898,-7.0898,-7.0898,-7.0912,-7.0898,-7.0925,-7.0925,-7.0898,-7.0898,-7.0898,-7.0898,-7.0898,-7.0898,-7.0898,-7.0898,-7.0898,-7.0898,-7.0898,-7.0898,-7.0937,-7.1014,-7.1091,-7.1283,-7.1706,-7.236,-7.2937,-7.3577,-7.4509,-7.4943,-7.5216,-7.5468,-7.5514,-7.5518,-7.5518,-7.548,-7.548,-7.5532,-7.5566,-7.5616,-7.5699,-7.5785,-7.5848,-7.5902,-7.602,-7.6131,-7.6212,-7.6313,-7.635,-7.6386,-7.6397,-7.6397,-7.6397,-7.6397,-7.6397,-7.6397,-7.6397,-7.6397,-7.6397,-7.6397,-7.6359,-7.574,-7.4541,-7.3767,-7.3148,-7.222,-7.1446,-7.133,-7.1291,-7.1098,-7.081,-7.0493,-6.9886,-6.9332,-6.8726,-6.8147,-6.755,-6.713,-6.6819,-6.6508,-6.6508,-6.6508,-6.6531,-6.6553,-6.6574,-6.6601,-6.6684,-6.6569,-6.6293,-6.5727,-6.5043,-6.4482,-6.3719,-6.3753,-6.4462,-6.4782,-6.4845,-6.5433,-6.5649,-6.5674,-6.5701,-6.5663,-6.5674,-6.5698,-6.6005,-6.6667,-6.7702,-6.8507,-6.9289,-7.0071,-7.0666,-7.0811,-7.0815,-7.0871,-7.0898,-7.0898,-7.0898,-7.0898,-7.0898,-7.0937,-7.1052,-7.1014,-7.0937,-7.0975,-7.1052,-7.1168,-7.1168,-7.1168,-7.1168,-7.1245,-7.1206,-7.1206,-7.1168,-7.0975,-7.0898,-7.1168,-7.1398,-7.186,-7.2168,-7.2706,-7.3476,-7.4168,-7.4399,-7.4941,-7.5433,-7.5551,-7.5566,-7.5535,-7.5535,-7.5532,-7.5549,-7.5583,-7.5616,-7.5699,-7.5747,-7.5833,-7.5895,-7.5955,-7.6005,-7.6118,-7.6212,-7.6288,-7.635,-7.6386,-7.6397,-7.6397,-7.6397,-7.6397,-7.6397,-7.6397,-7.6397,-7.6397,-7.6397,-7.6397,-7.6397,-7.6049,-7.5392,-7.4773,-7.4154,-7.338,-7.2142,-7.1291,-7.133,-7.1291,-7.1291,-7.1081,-7.0842,-7.0573,-6.9973,-6.9553,-6.9062,-6.8349,-6.7635,-6.7324,-6.7091,-6.6664,-6.6516,-6.6616,-6.6684,-6.6594,-6.6627,-6.668,-6.6678,-6.6438,-6.6085,-6.5478,-6.4827,-6.2731,-6.2772,-6.3501,-6.4036,-6.4457,-6.4918,-6.5249,-6.5527,-6.5552,-6.5537,-6.5585,-6.5959,-6.6418,-6.704,-6.8074,-6.8778,-6.9467,-7.0264,-7.0578,-7.0752,-7.0863,-7.0843,-7.0871,-7.1014,-7.0898,-7.0898,-7.0937,-7.1014,-7.1398,-7.1552,-7.1591,-7.1898,-7.1975,-7.1975,-7.1975,-7.2014,-7.1975,-7.2091,-7.1975,-7.1975,-7.1898,-7.1745,-7.1822,-7.2091,-7.2437,-7.2783,-7.3053,-7.3553,-7.413,-7.4731,-7.5009,-7.5349,-7.5641,-7.5676,-7.5649,-7.5616,-7.5616,-7.5616,-7.5649,-7.5704,-7.5775,-7.5932,-7.5902,-7.5956,-7.5932,-7.6005,-7.609,-7.6185,-7.625,-7.6313,-7.6362,-7.6397,-7.6397,-7.6397,-7.6397,-7.6397,-7.6397,-7.6397,-7.6397,-7.6397,-7.6397,-7.6397,-7.6397,-7.6359,-7.5585,-7.4463,-7.396,-7.3226,-7.2065,-7.1291,-7.1291,-7.1291,-7.1291,-7.1291,-7.112,-7.094,-7.0603,-7.0233,-6.989,-6.9265,-6.856,-6.8093,-6.7674,-6.7324,-6.7021,-6.6895,-6.6885,-6.6802,-6.6663,-6.6673,-6.6668,-6.6619,-6.6265,-6.5978,-6.5679,-6.1556,-6.1772,-6.2538,-6.3305,-6.4033,-6.4315,-6.4747,-6.5264,-6.5441,-6.5474,-6.5566,-6.6506,-6.6835,-6.7416,-6.8356,-6.8967,-6.9556,-7.0232,-7.054,-7.0938,-7.105,-7.143,-7.1525,-7.1437,-7.1552,-7.1552,-7.1552,-7.1898,-7.236,-7.2399,-7.2668,-7.336,-7.35,-7.3462,-7.35,-7.3423,-7.3245,-7.3129,-7.3129,-7.3385,-7.3206,-7.286,-7.2899,-7.3206,-7.3591,-7.3615,-7.3899,-7.4322,-7.4784,-7.5077,-7.5456,-7.5695,-7.5803,-7.5779,-7.5708,-7.5676,-7.566,-7.5791,-7.5939,-7.6054,-7.6178,-7.6263,-7.6164,-7.6225,-7.6313,-7.6423,-7.6506,-7.6418,-7.6482,-7.6403,-7.6451,-7.6475,-7.6475,-7.6475,-7.6475,-7.6475,-7.6475,-7.6436,-7.6436,-7.6436,-7.6397,-7.6397,-7.6397,-7.6397,-7.5662,-7.4502,-7.3574,-7.2761,-7.2026,-7.1562,-7.1291,-7.1291,-7.1291,-7.1291,-7.1291,-7.119,-7.098,-7.0874,-7.0502,-6.9994,-6.9445,-6.8831,-6.8373,-6.814,-6.7845,-6.7673,-6.7281,-6.7081,-6.6947,-6.681,-6.672,-6.6709,-6.6673,-6.65,-6.6673,-5.9974,-6.0508,-6.1444,-6.1931,-6.229,-6.3571,-6.435,-6.4526,-6.5138,-6.5398,-6.5756,-6.6885,-6.7643,-6.7706,-6.8699,-6.9464,-7.0228,-7.0566,-7.1121,-7.1651,-7.1735,-7.2284,-7.2587,-7.2476,-7.2899,-7.286,-7.2706,-7.3053,-7.3245,-7.3245,-7.336,-7.3668,-7.363,-7.363,-7.3591,-7.363,-7.3798,-7.3836,-7.3889,-7.4004,-7.4221,-7.3875,-7.3399,-7.3707,-7.413,-7.4322,-7.4707,-7.5322,-7.563,-7.5808,-7.5831,-7.5917,-7.5949,-7.5956,-7.5964,-7.6063,-7.6009,-7.637,-7.6616,-7.6785,-7.7024,-7.7547,-7.7523,-7.7438,-7.755,-7.7712,-7.7626,-7.7241,-7.7137,-7.6749,-7.6707,-7.6746,-7.6746,-7.6746,-7.6746,-7.6746,-7.6707,-7.663,-7.6552,-7.6514,-7.6436,-7.6436,-7.6397,-7.6281,-7.5972,-7.4966,-7.4231,-7.338,-7.2413,-7.1872,-7.1407,-7.1291,-7.1291,-7.1291,-7.1291,-7.1334,-7.1231,-7.1213,-7.1153,-7.0701,-7.0144,-6.9414,-6.9034,-6.8878,-6.8731,-6.8559,-6.8129,-6.7671,-6.7303,-6.716,-6.688,-6.6798,-6.68,-6.6824,-6.6873]},{"header":{"parameterUnit":"m.s-1","parameterCategory":1,"la1":31.0,"la2":29.5877,"lo1":-88.7671,"lo2":-86.6584,"dy":0.0162,"dx":0.0185,"nx":115,"ny":88,"refTime":"2023-04-15T06:00:00:Z","depth":0,"parameterNumber":3,"parameterNumberName":"V-component_of_WINDS"},"data":[0.0,0.0,0.0,0.0,0.0,0.0,0.0,0.0,0.0,0.0,0.0,0.0,0.0,0.0,0.0,0.0,0.0,0.0,0.0,0.0,0.0,0.0,0.0,0.0,0.0,0.0,0.0,0.0,0.0,0.0,0.0,0.0,0.0,0.0,0.0,0.0,0.0,0.0,0.0,0.0,0.0,0.0,0.0,0.0,0.0,0.0,0.0,0.0,0.0,0.0,0.0,0.0,0.0,0.0,0.0,0.0,0.0,0.0,0.0,0.0,0.0,0.0,0.0,0.0,0.0,0.0,0.0,0.0,0.0,0.0,0.0,0.0,0.0,0.0,0.0,0.0,0.0,0.0,0.0,0.0,0.0,0.0,0.0,0.0,0.0,0.0,0.0,0.0,0.0,0.0,0.0,0.0,0.0,0.0,0.0,0.0,0.0,0.0,0.0,0.0,0.0,0.0,0.0,0.0,0.0,0.0,0.0,0.0,0.0,0.0,0.0,0.0,0.0,0.0,0.0,0.0,0.0,0.0,0.0,0.0,0.0,0.0,0.0,0.0,0.0,0.0,0.0,0.0,0.0,0.0,0.0,0.0,0.0,0.0,0.0,0.0,0.0,0.0,0.0,0.0,0.0,0.0,0.0,0.0,0.0,0.0,0.0,0.0,0.0,0.0,0.0,0.0,0.0,0.0,0.0,0.0,0.0,0.0,0.0,0.0,0.0,0.0,0.0,0.0,0.0,0.0,0.0,0.0,0.0,0.0,0.0,0.0,0.0,0.0,0.0,0.0,0.0,0.0,0.0,0.0,0.0,0.0,0.0,0.0,0.0,0.0,0.0,0.0,0.0,0.0,0.0,0.0,0.0,0.0,0.0,0.0,0.0,0.0,0.0,0.0,0.0,0.0,0.0,0.0,0.0,0.0,0.0,0.0,0.0,0.0,0.0,0.0,0.0,0.0,0.0,0.0,0.0,0.0,0.0,0.0,0.0,0.0,0.0,0.0,0.0,0.0,0.0,0.0,0.0,0.0,0.0,0.0,0.0,0.0,0.0,0.0,0.0,0.0,0.0,0.0,0.0,0.0,0.0,0.0,0.0,0.0,0.0,0.0,0.0,0.0,0.0,0.0,0.0,0.0,0.0,0.0,0.0,0.0,0.0,0.0,0.0,0.0,0.0,0.0,0.0,0.0,0.0,0.0,0.0,0.0,0.0,0.0,0.0,0.0,0.0,0.0,0.0,0.0,0.0,0.0,0.0,0.0,0.0,0.0,0.0,0.0,0.0,0.0,0.0,0.0,0.0,0.0,0.0,0.0,0.0,0.0,0.0,0.0,0.0,0.0,0.0,0.0,0.0,0.0,0.0,0.0,0.0,0.0,0.0,0.0,0.0,0.0,0.0,0.0,0.0,0.0,0.0,0.0,0.0,0.0,0.0,0.0,0.0,0.0,0.0,0.0,0.0,0.0,0.0,0.0,0.0,0.0,0.0,0.0,0.0,0.0,0.0,0.0,0.0,0.0,0.0,0.0,0.0,0.0,0.0,0.0,0.0,0.0,0.0,0.0,0.0,0.0,0.0,0.0,0.0,0.0,0.0,0.0,0.0,0.0,0.0,0.0,0.0,0.0,0.0,0.0,0.0,0.0,0.0,0.0,0.0,0.0,0.0,0.0,0.0,0.0,0.0,0.0,0.0,0.0,0.0,0.0,0.0,0.0,0.0,0.0,0.0,0.0,0.0,0.0,0.0,0.0,0.0,0.0,0.0,0.0,0.0,0.0,0.0,0.0,0.0,0.0,0.0,0.0,0.0,0.0,0.0,0.0,0.0,0.0,0.0,0.0,0.0,0.0,0.0,0.0,0.0,0.0,0.0,0.0,0.0,0.0,0.0,0.0,0.0,0.0,0.0,0.0,0.0,0.0,0.0,0.0,0.0,0.0,0.0,0.0,0.0,0.0,0.0,0.0,0.0,0.0,0.0,0.0,0.0,0.0,0.0,0.0,0.0,0.0,0.0,0.0,0.0,0.0,0.0,0.0,0.0,0.0,0.0,0.0,0.0,0.0,0.0,0.0,0.0,0.0,0.0,0.0,0.0,0.0,0.0,0.0,0.0,0.0,0.0,0.0,0.0,0.0,0.0,0.0,0.0,0.0,0.0,0.0,0.0,0.0,0.0,0.0,0.0,0.0,0.0,0.0,0.0,0.0,0.0,0.0,0.0,0.0,0.0,0.0,0.0,0.0,0.0,0.0,0.0,0.0,0.0,0.0,0.0,0.0,0.0,0.0,0.0,0.0,0.0,0.0,0.0,0.0,0.0,0.0,0.0,0.0,0.0,0.0,0.0,0.0,0.0,0.0,0.0,0.0,0.0,0.0,0.0,0.0,0.0,0.0,0.0,0.0,0.0,0.0,0.0,0.0,0.0,0.0,0.0,0.0,0.0,0.0,0.0,0.0,0.0,0.0,0.0,0.0,0.0,0.0,0.0,0.0,0.0,0.0,0.0,0.0,0.0,0.0,0.0,0.0,0.0,0.0,0.0,0.0,0.0,0.0,0.0,0.0,0.0,0.0,0.0,0.0,0.0,0.0,0.0,0.0,0.0,0.0,0.0,0.0,0.0,0.0,0.0,0.0,0.0,0.0,0.0,0.0,0.0,0.0,0.0,0.0,0.0,0.0,0.0,0.0,0.0,0.0,0.0,0.0,0.0,0.0,0.0,0.0,0.0,0.0,0.0,0.0,0.0,0.0,0.0,0.0,0.0,0.0,0.0,0.0,0.0,0.0,0.0,0.0,0.0,0.0,0.0,0.0,0.0,0.0,0.0,0.0,0.0,0.0,0.0,0.0,0.0,0.0,0.0,0.0,0.0,0.0,0.0,0.0,0.0,0.0,0.0,0.0,0.0,0.0,0.0,0.0,0.0,0.0,0.0,0.0,0.0,0.0,0.0,0.0,0.0,0.0,0.0,0.0,0.0,0.0,0.0,0.0,0.0,0.0,0.0,0.0,0.0,0.0,0.0,0.0,0.0,0.0,0.0,0.0,0.0,0.0,0.0,0.0,0.0,0.0,0.0,0.0,0.0,0.0,0.0,0.0,0.0,0.0,0.0,0.0,0.0,0.0,0.0,0.0,0.0,0.0,0.0,0.0,0.0,0.0,0.0,0.0,0.0,0.0,0.0,0.0,0.0,0.0,0.0,0.0,0.0,0.0,0.0,0.0,0.0,0.0,0.0,0.0,0.0,0.0,0.0,0.0,0.0,0.0,0.0,0.0,0.0,0.0,0.0,0.0,0.0,0.0,0.0,0.0,0.0,0.0,0.0,0.0,0.0,0.0,0.0,0.0,0.0,0.0,0.0,0.0,0.0,0.0,0.0,0.0,0.0,0.0,0.0,0.0,0.0,0.0,0.0,0.0,0.0,0.0,0.0,0.0,0.0,0.0,0.0,0.0,0.0,0.0,0.0,0.0,0.0,0.0,0.0,0.0,0.0,0.0,0.0,0.0,0.0,0.0,0.0,0.0,0.0,0.0,0.0,0.0,0.0,0.0,0.0,0.0,0.0,0.0,0.0,0.0,0.0,0.0,0.0,0.0,0.0,0.0,0.0,0.0,0.0,0.0,0.0,0.0,0.0,0.0,0.0,0.0,0.0,0.0,0.0,0.0,0.0,0.0,0.0,0.0,0.0,0.0,0.0,0.0,0.0,0.0,0.0,0.0,0.0,0.0,0.0,0.0,0.0,0.0,0.0,0.0,0.0,0.0,0.0,0.0,0.0,0.0,0.0,0.0,0.0,0.0,0.0,0.0,0.0,0.0,0.0,0.0,0.0,0.0,0.0,0.0,0.0,0.0,0.0,0.0,0.0,0.0,0.0,0.0,0.0,0.0,0.0,0.0,0.0,0.0,0.0,0.0,0.0,0.0,0.0,0.0,0.0,0.0,0.0,0.0,0.0,0.0,0.0,0.0,0.0,0.0,0.0,0.0,0.0,0.0,0.0,0.0,0.0,0.0,0.0,0.0,0.0,0.0,0.0,0.0,0.0,0.0,0.0,0.0,0.0,0.0,0.0,0.0,0.0,0.0,0.0,0.0,0.0,0.0,0.0,0.0,0.0,0.0,0.0,0.0,0.0,0.0,0.0,0.0,0.0,0.0,0.0,0.0,0.0,0.0,0.0,0.0,0.0,0.0,0.0,0.0,0.0,0.0,0.0,0.0,0.0,0.0,0.0,0.0,0.0,0.0,0.0,0.0,0.0,0.0,0.0,0.0,0.0,0.0,0.0,0.0,0.0,0.0,0.0,0.0,1.113,0.0,0.0,0.0,0.0,0.0,0.0,0.0,0.0,0.0,0.0,0.0,0.0,0.0,0.0,0.0,0.0,0.0,0.0,0.0,0.0,0.0,0.0,0.0,0.0,0.0,0.0,0.0,0.0,0.0,0.0,0.0,0.0,0.0,0.0,0.0,0.0,0.0,0.0,0.0,0.0,0.0,0.0,0.0,0.0,0.0,0.0,0.0,0.0,0.0,0.0,0.0,0.0,0.0,0.0,0.0,0.0,0.0,0.0,0.0,0.0,0.0,0.0,0.0,0.0,0.0,0.0,0.0,0.0,0.0,0.0,0.0,0.0,0.0,0.0,0.0,0.0,0.0,0.0,0.0,0.0,0.0,0.0,0.0,0.0,0.0,0.0,0.0,0.0,0.0,0.0,0.0,0.0,0.0,0.0,0.0,0.0,0.0,0.0,0.0,0.0,0.0,0.0,0.0,0.0,0.0,0.0,0.0,0.0,0.0,0.0,1.1394,1.1463,1.1556,1.1625,1.1658,0.0,0.0,0.0,0.0,0.0,0.0,0.0,0.0,0.0,0.0,0.0,0.0,0.0,0.0,0.0,0.0,0.0,0.0,0.0,0.0,0.0,0.0,0.0,0.0,0.0,0.0,0.0,0.0,0.0,0.0,0.0,0.0,0.0,0.0,0.0,0.0,0.0,0.0,0.0,0.0,0.0,0.0,0.0,0.0,0.0,0.0,0.0,0.0,0.0,0.0,0.0,0.0,0.0,0.0,0.0,0.0,0.0,0.0,0.0,0.0,0.0,0.0,0.0,0.0,0.0,0.0,0.0,0.0,0.0,0.0,0.0,0.0,0.0,0.0,0.0,0.0,0.0,0.0,0.0,0.0,0.0,0.0,0.0,0.0,0.0,0.0,0.0,0.0,0.0,0.0,0.0,0.0,0.0,0.0,0.0,0.0,0.0,0.0,0.0,0.0,0.0,0.0,0.0,0.0,0.0,0.0,0.0,0.0,0.0,0.0,0.0,0.0,1.204,1.2168,1.2287,0.0,0.0,0.0,0.0,0.0,0.0,0.0,0.0,0.0,0.0,0.0,0.0,0.0,0.0,0.0,0.0,0.0,0.0,0.0,0.0,0.0,0.0,0.0,0.0,0.0,0.0,0.0,0.0,0.0,0.0,0.0,0.0,0.0,0.0,0.0,0.0,0.0,0.0,0.0,0.0,0.0,0.0,0.0,0.0,0.0,0.0,0.0,0.0,0.0,0.0,0.0,0.0,0.0,0.0,0.0,0.0,0.0,0.0,0.0,0.0,0.0,0.0,0.0,0.0,0.0,0.0,0.0,0.0,0.0,0.0,0.0,0.0,0.0,0.0,0.0,0.0,0.0,0.0,0.0,0.0,0.0,0.0,0.0,0.0,0.0,0.0,0.0,0.0,0.0,0.0,0.0,0.0,0.0,0.0,0.0,0.0,0.0,0.0,0.0,0.0,0.0,0.0,0.0,0.0,0.0,0.0,0.0,0.0,0.0,0.0,1.1934,1.2243,1.2458,0.0,1.3161,0.0,0.0,0.0,0.0,0.0,0.0,0.0,0.0,0.0,0.0,0.0,0.0,0.0,0.0,0.0,0.0,0.0,0.0,0.0,0.0,0.0,0.0,0.0,0.0,0.0,0.0,0.0,0.0,0.0,0.0,0.0,0.0,0.0,0.0,0.0,0.0,0.0,0.0,0.0,0.0,0.0,0.0,0.0,0.0,0.0,0.0,0.0,0.0,0.0,0.0,0.0,0.0,0.0,0.0,0.0,0.0,0.0,0.0,0.0,0.0,0.0,0.0,0.0,0.0,0.0,0.0,0.0,0.0,0.0,0.0,0.0,0.0,0.0,0.0,0.0,0.0,0.0,0.0,0.0,0.0,0.0,0.0,0.0,0.0,0.0,0.0,0.0,0.0,0.0,0.0,0.0,0.0,0.0,0.0,0.0,0.0,0.0,0.0,0.0,0.0,0.0,0.0,0.0,0.0,0.0,0.0,0.0,0.0,0.0,0.0,1.2487,1.2961,1.3108,1.3335,0.0,0.0,0.0,0.0,0.0,0.0,0.0,0.0,0.0,0.0,0.0,0.0,0.0,0.0,0.0,0.0,0.0,0.0,0.0,0.0,0.0,0.0,0.0,0.0,0.0,0.0,0.0,0.0,0.0,0.0,0.0,0.0,0.0,0.0,0.0,0.0,0.0,0.0,0.0,0.0,0.0,0.0,0.0,0.0,0.0,0.0,0.0,0.0,0.0,0.0,0.0,0.0,0.0,0.0,0.0,0.0,0.0,0.0,0.0,0.0,0.0,0.0,0.0,0.0,0.0,0.0,0.0,0.0,0.0,0.0,0.0,0.0,0.0,0.0,0.0,0.0,0.0,0.0,0.0,0.0,0.0,0.0,0.0,0.0,0.0,0.0,0.0,0.0,0.0,0.0,0.0,0.0,0.0,0.0,0.0,0.0,0.0,0.0,0.0,0.0,0.0,0.0,0.0,0.0,0.0,0.0,0.0,0.0,0.0,0.0,1.2497,1.2893,1.3535,1.3575,1.3706,1.3913,0.0,0.0,0.0,0.0,0.0,0.0,0.0,0.0,0.0,0.0,0.0,0.0,0.0,0.0,0.0,0.0,0.0,0.0,0.0,0.0,0.0,0.0,0.0,0.0,0.0,0.0,0.0,0.0,0.0,0.0,0.0,0.0,0.0,0.0,0.0,0.0,0.0,0.0,0.0,0.0,0.0,0.0,0.0,0.0,0.0,0.0,0.0,0.0,0.0,0.0,0.0,0.0,0.0,0.0,0.0,0.0,0.0,0.0,0.0,0.0,0.0,0.0,0.0,0.0,0.0,0.0,0.0,0.0,0.0,0.0,0.0,0.0,0.0,0.0,0.0,0.0,0.0,0.0,0.0,0.0,0.0,0.0,0.0,0.0,0.0,0.0,0.0,0.0,0.0,0.0,0.0,0.0,0.0,0.0,0.0,0.0,0.0,0.0,0.0,0.0,0.0,0.0,0.0,0.0,0.0,0.0,0.0,0.0,1.2288,1.2512,1.3104,1.4016,1.3768,1.3792,0.0,0.0,0.0,0.0,0.0,0.0,0.0,0.0,0.0,0.0,0.0,0.0,0.0,0.0,0.0,0.0,0.0,0.0,0.0,0.0,0.0,0.0,0.0,0.0,0.0,0.0,0.0,0.0,0.0,0.0,0.0,0.0,0.0,0.0,0.0,0.0,0.0,0.0,0.0,0.0,0.0,0.0,0.0,0.0,0.0,0.0,0.0,0.0,0.0,0.0,0.0,0.0,0.0,0.0,0.0,0.0,0.0,0.0,0.0,0.0,0.0,0.0,0.0,0.0,0.0,0.0,0.0,0.0,0.0,0.0,0.0,0.0,0.0,0.0,0.0,0.0,0.0,0.0,0.0,0.0,0.0,0.0,0.0,0.0,0.0,0.0,0.0,0.0,0.0,0.0,0.0,0.0,0.0,0.0,0.0,0.0,0.0,0.0,0.0,0.0,0.0,0.0,0.0,0.0,0.0,0.0,0.0,0.0,0.0,1.2484,1.3309,1.3857,1.4104,1.4212,1.4279,0.0,0.0,0.0,0.0,0.0,0.0,0.0,0.0,0.0,0.0,0.0,0.0,0.0,0.0,0.0,0.0,0.0,0.0,0.0,0.0,0.0,0.0,0.0,0.0,0.0,0.0,0.0,0.0,0.0,0.0,0.0,0.0,0.0,0.0,0.0,0.0,0.0,0.0,0.0,0.0,0.0,0.0,0.0,0.0,0.0,0.0,0.0,0.0,0.0,0.0,0.0,0.0,0.0,0.0,0.0,0.0,0.0,0.0,0.0,0.0,0.0,0.0,0.0,0.0,0.0,0.0,0.0,0.0,0.0,0.0,0.0,0.0,0.0,0.0,0.0,0.0,0.0,0.0,0.0,0.0,0.0,0.0,0.0,0.0,0.0,0.0,0.0,0.0,0.0,0.0,0.0,0.0,0.0,0.0,0.0,0.0,0.0,0.0,0.0,0.0,0.0,0.0,0.0,0.0,0.0,0.0,0.0,0.0,0.0,1.2721,0.0,1.4129,1.4264,1.45,1.4546,0.0,0.0,0.0,0.0,0.0,0.0,0.0,0.0,0.0,0.0,0.0,0.0,0.0,0.0,0.0,0.0,0.0,0.0,0.0,0.0,0.0,0.0,0.0,0.0,0.0,0.0,0.0,0.0,0.0,0.0,0.0,0.0,0.0,0.0,0.0,0.0,0.0,0.0,0.0,0.0,0.0,0.0,0.0,0.0,0.0,0.0,0.0,0.0,0.0,0.0,0.0,0.0,0.0,0.0,0.0,0.0,0.0,0.0,0.0,0.0,0.0,0.0,0.0,0.0,0.0,0.0,0.0,0.0,0.0,0.0,0.0,0.0,0.0,0.0,0.0,0.0,0.0,0.0,0.0,0.0,0.0,0.0,0.0,0.0,0.0,0.0,0.0,0.0,0.0,0.0,0.0,0.0,0.0,0.0,0.0,0.0,0.0,0.0,0.0,0.0,0.0,0.0,0.0,0.0,0.0,0.0,0.0,0.0,1.1674,1.2938,1.3345,1.387,1.4525,1.4471,1.4658,0.0,0.0,0.0,0.0,0.0,0.0,0.0,0.0,0.0,0.0,0.0,0.0,0.0,0.0,0.0,0.0,0.0,0.0,0.0,0.0,0.0,0.0,0.0,0.0,0.0,0.0,0.0,0.0,0.0,0.0,0.0,0.0,0.0,0.0,0.0,0.0,0.0,0.0,0.0,0.0,0.0,0.0,0.0,0.0,0.0,0.0,0.0,0.0,0.0,0.0,0.0,0.0,0.0,0.0,0.0,0.0,0.0,0.0,0.0,0.0,0.0,0.0,0.0,0.0,0.0,0.0,0.0,0.0,0.0,0.0,0.0,0.0,0.0,0.0,0.0,0.0,0.0,0.0,0.0,0.0,0.0,0.0,0.0,0.0,0.0,0.0,0.0,0.0,0.0,0.0,0.0,0.0,0.0,0.0,0.0,0.0,0.0,0.0,0.0,0.0,0.0,0.0,0.0,0.0,0.0,0.0,0.0,0.0,0.0,1.2838,1.3509,1.394,1.4111,1.461,1.4796,0.0,0.0,0.0,0.0,0.0,0.0,0.0,0.0,0.0,0.0,0.0,0.0,0.0,0.0,0.0,0.0,0.0,0.0,0.0,0.0,0.0,0.0,0.0,0.0,0.0,0.0,0.0,0.0,0.0,0.0,0.0,0.0,0.0,0.0,0.0,0.0,0.0,0.0,0.0,0.0,0.0,0.0,0.0,0.0,0.0,0.0,0.0,0.0,0.0,0.0,0.0,0.0,0.0,0.0,0.0,0.0,0.0,0.0,0.0,0.0,0.0,0.0,0.0,0.0,0.0,0.0,0.0,0.0,0.0,0.0,0.0,0.0,0.0,0.0,0.0,0.0,0.0,0.0,0.0,0.0,0.0,0.0,0.0,0.0,0.0,0.0,0.0,0.0,0.0,0.0,0.0,0.0,0.0,0.0,0.0,0.0,0.0,0.0,0.0,0.0,0.0,0.0,0.0,0.0,0.0,0.0,0.0,0.0,0.0,1.2479,1.3267,1.3767,1.3959,1.4487,1.4746,1.468,0.0,0.0,0.0,0.0,0.0,0.0,0.0,0.0,0.0,0.0,0.0,0.0,0.0,0.0,0.0,0.0,0.0,0.0,0.0,0.0,0.0,0.0,0.0,0.0,0.0,0.0,0.0,0.0,0.0,0.0,0.0,0.0,0.0,0.0,0.0,0.0,0.0,0.0,0.0,0.0,0.0,0.0,0.0,0.0,0.0,0.0,0.0,0.0,0.0,0.0,0.0,0.0,0.0,0.0,0.0,0.0,0.0,0.0,0.0,0.0,0.0,0.0,0.0,0.0,0.0,0.0,0.0,0.0,0.0,0.0,0.0,0.0,0.0,0.0,0.0,0.0,0.0,0.0,0.0,0.0,0.0,0.0,0.0,0.0,0.0,0.0,0.0,0.0,0.0,0.0,0.0,0.0,0.0,0.0,0.0,0.0,0.0,0.0,0.0,0.0,0.0,0.0,0.0,0.0,0.0,0.0,0.0,0.0,1.199,1.2683,1.3398,1.4041,1.4194,1.4494,0.0,0.0,0.0,0.0,0.0,0.0,0.0,0.0,0.0,0.0,0.0,0.0,0.0,0.0,0.0,0.0,0.0,0.0,0.0,0.0,0.0,0.0,0.0,0.0,0.0,0.0,0.0,0.0,0.0,0.0,0.0,0.0,0.0,0.0,0.0,0.0,0.0,0.0,0.0,0.0,0.0,0.0,0.0,0.0,0.0,0.0,0.0,0.0,0.0,0.0,0.0,0.0,0.0,0.0,0.0,0.0,0.0,0.0,0.0,0.0,0.0,0.0,0.0,0.0,0.0,0.0,0.0,0.0,0.0,0.0,0.0,0.0,0.0,0.0,0.0,0.0,0.0,0.0,0.0,0.0,0.0,0.0,0.0,0.0,0.0,0.0,0.0,0.0,0.0,0.0,0.0,0.0,0.0,0.0,0.0,0.0,0.0,0.0,0.0,0.0,0.0,0.0,0.0,0.0,0.0,0.0,0.0,0.0,0.0,1.1711,1.2438,1.3115,1.3736,1.4377,1.4691,0.0,0.0,0.0,0.0,0.0,0.0,0.0,0.0,0.0,0.0,0.0,0.0,0.0,0.0,0.0,0.0,0.0,0.0,0.0,0.0,0.0,0.0,0.0,0.0,0.0,0.0,0.0,0.0,0.0,0.0,0.0,0.0,0.0,0.0,0.0,0.0,0.0,0.0,0.0,0.0,0.0,0.0,0.0,0.0,0.0,0.0,0.0,0.0,0.0,0.0,0.0,0.0,0.0,0.0,0.0,0.0,0.0,0.0,0.0,0.0,0.0,0.0,0.0,0.0,0.0,0.0,0.0,0.0,0.0,0.0,0.0,0.0,0.0,0.0,0.0,0.0,0.0,0.0,0.0,0.0,0.0,0.0,0.0,0.0,0.0,0.0,0.0,0.0,0.0,0.0,0.0,0.0,0.0,0.0,0.0,0.0,0.0,0.0,0.0,0.0,0.0,0.0,0.0,0.0,0.0,0.0,0.0,0.0,1.084,1.146,1.2092,1.2721,1.3383,1.409,1.4493,0.0,0.0,0.0,0.0,0.0,0.0,0.0,0.0,0.0,0.0,0.0,0.0,0.0,0.0,0.0,0.0,0.0,0.0,0.0,0.0,0.0,0.0,0.0,0.0,0.0,0.0,0.0,0.0,0.0,0.0,0.0,0.0,0.0,0.0,0.0,0.0,0.0,0.0,0.0,0.0,0.0,0.0,0.0,0.0,0.0,0.0,0.0,0.0,0.0,0.0,0.0,0.0,0.0,0.0,0.0,0.0,0.0,0.0,0.0,0.0,0.0,0.0,0.0,0.0,0.0,0.0,0.0,0.0,0.0,0.0,0.0,0.0,0.0,0.0,0.0,0.0,0.0,0.0,0.0,0.0,0.0,0.0,0.0,0.0,0.0,0.0,0.0,0.0,0.0,0.0,0.0,0.0,0.0,0.0,0.0,0.0,0.0,0.0,0.0,0.0,0.0,0.0,0.0,0.0,0.0,0.0,0.0,0.0,1.0419,1.1262,1.1718,1.2326,1.3021,1.361,1.4033,0.0,0.0,0.0,0.0,0.0,0.0,0.0,0.0,0.0,0.0,0.0,0.0,0.0,0.0,0.0,0.0,0.0,0.0,0.0,0.0,0.0,0.0,0.0,0.0,0.0,0.0,0.0,0.0,0.0,0.0,0.0,0.0,0.0,0.0,0.0,0.0,0.0,0.0,0.0,0.0,0.0,0.0,0.0,0.0,0.0,0.0,0.0,0.0,0.0,0.0,0.0,0.0,0.0,0.0,0.0,0.0,0.0,0.0,0.0,0.0,0.0,0.0,0.0,0.0,0.0,0.0,0.0,0.0,0.0,0.0,0.0,0.0,0.0,0.0,0.0,0.0,0.0,0.0,0.0,0.0,0.0,0.0,0.0,0.0,0.0,0.0,0.0,0.0,0.0,0.0,0.0,0.0,0.0,0.0,0.0,0.0,0.0,0.0,0.0,0.0,0.0,0.0,0.0,0.0,0.0,0.0,0.0,0.0,1.0334,1.1076,1.1538,1.2004,1.2447,1.351,1.4003,0.0,0.0,0.0,0.0,0.0,0.0,0.0,0.0,0.0,0.0,0.0,0.0,0.0,0.0,0.0,0.0,0.0,0.0,0.0,0.0,0.0,0.0,0.0,0.0,0.0,0.0,0.0,0.0,0.0,0.0,0.0,0.0,0.0,0.0,0.0,0.0,0.0,0.0,0.0,0.0,0.0,0.0,0.0,0.0,0.0,0.0,0.0,0.0,0.5124,0.0,0.0,0.0,0.0,0.0,0.0,0.0,0.0,0.0,0.0,0.0,0.0,0.0,0.0,0.0,0.0,0.0,0.0,0.0,0.0,0.0,0.0,0.0,0.0,0.0,0.0,0.0,0.0,0.0,0.0,0.0,0.0,0.0,0.0,0.0,0.0,0.0,0.0,0.0,0.0,0.0,0.0,0.0,0.0,0.0,0.0,0.0,0.0,0.0,0.0,0.0,0.0,0.0,0.0,0.0,0.0,0.0,0.0,0.0,0.994,1.0784,1.1051,1.1493,1.217,1.3022,1.3489,0.0,0.0,0.0,0.0,0.0,0.0,0.0,0.0,0.0,0.0,0.0,0.0,0.0,0.0,0.0,0.0,0.0,0.0,0.0,0.0,0.0,0.0,0.0,0.0,0.0,0.0,0.0,0.0,0.0,0.0,0.0,0.0,0.0,0.0,0.0,0.0,0.0,0.0,0.0,0.0,0.0,0.0,0.0,0.0,0.0,0.0,0.0,0.0,0.0,0.0,0.0,0.0,0.0,0.0,0.0,0.0,0.0,0.0,0.0,0.0,0.0,0.0,0.0,0.0,0.0,0.0,0.0,0.0,0.0,0.0,0.0,0.0,0.0,0.0,0.0,0.0,0.0,0.0,0.0,0.0,0.0,0.0,0.0,0.0,0.0,0.0,0.0,0.0,0.0,0.0,0.0,0.0,0.0,0.0,0.0,0.0,0.0,0.0,0.0,0.0,0.0,0.0,0.0,0.0,0.0,0.0,0.0,0.8959,0.9426,1.0388,1.0481,1.0932,1.1756,1.2257,1.2778,1.3187,0.0,0.0,0.0,0.0,0.0,0.0,0.0,0.0,0.0,0.0,0.0,0.0,0.0,0.0,0.0,0.0,0.0,0.0,0.0,0.0,0.0,0.0,0.0,0.0,0.0,0.0,0.0,0.0,0.0,0.0,0.0,0.0,0.0,0.0,0.0,0.0,0.0,0.0,0.6132,0.5425,0.0,0.0,0.0,0.0,0.0,0.0,0.0,0.0,0.4235,0.0,0.0,0.0,0.0,0.0,0.0,0.0,0.0,0.0,0.0,0.0,0.0,0.0,0.0,0.0,0.0,0.0,0.0,0.0,0.0,0.0,0.0,0.0,0.0,0.0,0.0,0.0,0.0,0.0,0.0,0.0,0.0,0.0,0.0,0.0,0.0,0.0,0.0,0.0,0.0,0.0,0.0,0.0,0.0,0.0,0.0,0.0,0.0,0.0,0.0,0.0,0.0,0.0,0.0,0.0,0.0,0.8991,0.8846,0.9099,0.975,0.9994,1.0355,1.0815,1.1513,1.2029,1.2336,0.0,0.0,0.0,0.0,0.0,0.0,0.0,0.0,0.0,0.0,0.0,0.0,0.0,0.0,0.0,0.0,0.0,0.0,0.0,0.0,0.0,0.0,0.0,0.0,0.0,0.0,0.0,0.0,0.0,0.0,0.0,0.0,0.0,0.0,0.0,0.0,0.0,0.0,0.0,0.4753,0.4263,0.0,0.0,0.0,0.0,0.0,0.0,0.0,0.0,0.3824,0.0,0.0,0.0,0.0,0.0,0.0,0.0,0.0,0.0,0.0,0.0,0.0,0.0,0.0,0.0,0.0,0.0,0.0,0.0,0.0,0.0,0.0,0.0,0.0,0.0,0.0,0.0,0.0,0.0,0.0,0.0,0.0,0.0,0.0,0.0,0.0,0.0,0.0,0.0,0.0,0.0,0.0,0.0,0.0,0.0,0.0,0.0,0.0,0.0,0.0,0.0,0.0,0.0,0.0,0.0,0.8606,0.8427,0.8581,0.9021,0.9317,0.9678,1.0218,1.0814,1.1305,0.0,0.0,0.0,0.0,0.0,0.0,0.0,0.0,0.0,0.0,0.0,0.0,0.0,0.0,0.0,0.0,0.0,0.0,0.0,0.0,0.0,0.0,0.0,0.0,0.0,0.0,0.0,0.0,0.0,0.0,0.0,0.0,0.0,0.0,0.0,0.0,0.0,0.0,0.0,0.0,0.4304,0.3944,0.3528,0.0,0.0,0.0,0.0,0.0,0.0,0.3112,0.3364,0.0,0.0,0.0,0.0,0.0,0.0,0.0,0.0,0.0,0.0,0.0,0.0,0.0,0.0,0.0,0.0,0.0,0.0,0.0,0.0,0.0,0.0,0.0,0.0,0.0,0.0,0.0,0.0,0.0,0.0,0.0,0.0,0.0,0.0,0.0,0.0,0.0,0.0,0.0,0.0,0.0,0.0,0.0,0.0,0.0,0.0,0.0,0.0,0.0,0.0,0.0,0.0,0.0,0.0,0.0,0.8295,0.8098,0.8087,0.8387,0.8591,0.8988,0.9607,1.0076,1.051,0.0,0.0,0.0,0.0,0.0,0.0,0.0,0.0,0.0,0.0,0.0,0.0,0.0,0.0,0.0,0.0,0.0,0.0,0.0,0.0,0.0,0.0,0.0,0.0,0.0,0.0,0.0,0.0,0.0,0.0,0.0,0.0,0.0,0.0,0.0,0.0,0.0,0.0,0.0,0.0,0.0,0.3585,0.3043,0.2887,0.0,0.0,0.0,0.0,0.2449,0.2661,0.0,0.0,0.0,0.0,0.0,0.0,0.0,0.0,0.0,0.0,0.0,0.0,0.0,0.0,0.0,0.0,0.0,0.0,0.0,0.0,0.0,0.0,0.0,0.0,0.0,0.0,0.0,0.0,0.0,0.0,0.0,0.0,0.0,0.0,0.0,0.0,0.0,0.0,0.0,0.0,0.0,0.0,0.0,0.0,0.0,0.0,0.0,0.0,0.0,0.0,0.0,0.0,0.0,0.0,0.0,0.0,0.8271,0.8052,0.7935,0.7959,0.8018,0.8232,0.8752,0.8957,0.947,0.0,0.0,0.0,0.0,0.0,0.0,0.0,0.0,0.0,0.0,0.0,0.0,0.0,0.0,0.0,0.0,0.0,0.0,0.0,0.0,0.0,0.0,0.0,0.0,0.0,0.0,0.0,0.0,0.0,0.0,0.0,0.0,0.0,0.0,0.0,0.0,0.0,0.0,0.0,0.0,0.0,0.2911,0.2918,0.2558,0.2212,0.0,0.0,0.2149,0.1929,0.2106,0.0,0.0,0.0,0.0,0.0,0.0,0.0,0.0,0.0,0.0,0.0,0.0,0.0,0.0,0.0,0.0,0.0,0.0,0.0,0.0,0.0,0.0,0.0,0.0,0.0,0.0,0.0,0.0,0.0,0.0,0.0,0.0,0.0,0.0,0.0,0.0,0.0,0.0,0.0,0.0,0.0,0.0,0.0,0.0,0.0,0.0,0.0,0.0,0.0,0.0,0.0,0.0,0.0,0.0,0.0,0.8279,0.8098,0.7858,0.7641,0.7445,0.7591,0.79,0.8368,0.8488,0.8968,0.0,0.0,0.0,0.0,0.0,0.0,0.0,0.0,0.0,0.0,0.0,0.0,0.0,0.0,0.0,0.0,0.0,0.0,0.0,0.0,0.0,0.0,0.0,0.0,0.0,0.0,0.0,0.0,0.0,0.0,0.0,0.0,0.0,0.0,0.0,0.0,0.0,0.0,0.0,0.0,0.0,0.0,0.2157,0.1802,0.0,0.0,0.0,0.1331,0.1178,0.0,0.0,0.0,0.0,0.0,0.0,0.0,0.0,0.0,0.0,0.0,0.0,0.0,0.0,0.0,0.0,0.0,0.0,0.0,0.0,0.0,0.0,0.0,0.0,0.0,0.0,0.0,0.0,0.0,0.0,0.0,0.0,0.0,0.0,0.0,0.0,0.0,0.0,0.0,0.0,0.0,0.0,0.0,0.0,0.0,0.0,0.0,0.0,0.0,0.0,0.0,0.0,0.0,0.0,0.0,0.0,0.0,0.7885,0.7677,0.7418,0.7054,0.7194,0.7482,0.7876,0.801,0.0,0.0,0.0,0.0,0.0,0.0,0.0,0.0,0.0,0.0,0.0,0.0,0.0,0.0,0.0,0.0,0.0,0.0,0.0,0.0,0.0,0.0,0.0,0.0,0.0,0.0,0.0,0.6359,0.0,0.0,0.0,0.0,0.0,0.0,0.0,0.0,0.0,0.0,0.0,0.0,0.0,0.0,0.2029,0.1486,0.1206,0.0919,0.0,0.0,0.0725,0.0625,0.1008,0.1343,0.0,0.0,0.0,0.0,0.0,0.0,0.0,0.0,0.0,0.0,0.0,0.0,0.0,0.0,0.0,0.0,0.0,0.0,0.0,0.0,0.0,0.0,0.0,0.0,0.0,0.0,0.0,0.0,0.0,0.0,0.0,0.0,0.0,0.0,0.0,0.0,0.0,0.0,0.0,0.0,0.0,0.0,0.0,0.0,0.0,0.0,0.0,0.0,0.0,0.0,0.0,0.0,0.0,0.0,0.8328,0.79,0.7619,0.7305,0.684,0.684,0.6906,0.6989,0.7412,0.7894,0.0,0.0,0.0,0.0,0.0,0.0,0.0,0.0,0.0,0.0,0.0,0.0,0.0,0.0,0.0,0.0,0.0,0.0,0.0,0.0,0.0,0.0,0.0,0.0,0.0,0.0,0.0,0.0,0.0,0.0,0.0,0.0,0.0,0.0,0.0,0.0,0.0,0.0,0.0,0.0,0.0,0.1467,0.1176,0.0946,0.0704,0.0,0.0654,0.07,0.0442,0.0686,0.0974,0.1435,0.0,0.0,0.0,0.0,0.0,0.0,0.0,0.0,0.0,0.0,0.0,0.0,0.0,0.0,0.0,0.0,0.0,0.0,0.0,0.0,0.0,0.0,0.0,0.0,0.0,0.0,0.0,0.0,0.0,0.0,0.0,0.0,0.0,0.0,0.0,0.0,0.0,0.0,0.0,0.0,0.0,0.0,0.0,0.0,0.0,0.0,0.0,0.0,0.0,0.0,0.0,0.0,0.0,0.818,0.7687,0.7418,0.7098,0.684,0.6656,0.6681,0.6889,0.6986,0.7364,0.0,0.0,0.0,0.0,0.0,0.0,0.0,0.0,0.0,0.0,0.0,0.0,0.0,0.0,0.0,0.0,0.0,0.0,0.0,0.0,0.0,0.0,0.0,0.0,0.0,0.0,0.0,0.0,0.5709,0.5583,0.5336,0.0,0.0,0.0,0.0,0.0,0.0,0.0,0.0,0.0,0.0,0.0703,0.0457,0.0052,0.0,0.0,-0.0314,-0.0209,-0.0104,0.0155,0.0413,0.0768,0.1278,0.0,0.0,0.0,0.0,0.0,0.0,0.0,0.0,0.0,0.0,0.0,0.0,0.0,0.0,0.0,0.0,0.0,0.0,0.0,0.0,0.0,0.0,0.0,0.0,0.0,0.0,0.0,0.0,0.0,0.0,0.0,0.0,0.0,0.0,0.0,0.0,0.0,0.0,0.0,0.0,0.0,0.0,0.0,0.0,0.0,0.0,0.0,0.0,0.0,0.0,0.0,0.0,0.8065,0.7612,0.7203,0.6922,0.67,0.6435,0.6393,0.661,0.6672,0.6974,0.0,0.0,0.0,0.0,0.0,0.0,0.0,0.0,0.0,0.0,0.0,0.0,0.0,0.0,0.0,0.0,0.0,0.0,0.0,0.0,0.0,0.0,0.0,0.0,0.0,0.0,0.0,0.0,0.5549,0.5352,0.5012,0.0,0.0,0.0,0.0,0.0,0.0,0.0,0.0,0.0,0.0,0.0103,-0.0209,-0.0635,-0.0907,-0.0907,-0.0907,-0.08,-0.0587,-0.032,-0.0053,0.0213,0.0,0.0,0.0,0.0,0.0,0.0,0.0,0.0,0.0,0.0,0.0,0.0,0.0,0.0,0.0,0.0,0.0,0.0,0.0,0.0,0.0,0.0,0.0,0.0,0.0,0.0,0.0,0.9322,0.0,0.0,0.9342,0.0,0.0,0.0,0.0,0.0,0.0,0.0,0.0,0.0,0.0,0.0,0.0,0.0,0.0,0.0,0.0,0.0,0.0,0.0,0.0,0.0,0.0,0.8065,0.7612,0.7087,0.6656,0.6428,0.6213,0.6051,0.6056,0.6453,0.6843,0.7204,0.0,0.0,0.0,0.0,0.0,0.0,0.0,0.0,0.0,0.0,0.0,0.0,0.0,0.0,0.0,0.0,0.0,0.0,0.0,0.0,0.0,0.0,0.0,0.0,0.0,0.0,0.5335,0.514,0.5003,0.0,0.0,0.0,0.0,0.0,0.0,0.0,0.0,0.0,0.0454,0.0104,-0.0213,-0.08,-0.0907,-0.0908,-0.0908,-0.0908,-0.0908,-0.0909,-0.0641,-0.032,0.0,0.0,0.0,0.0,0.0,0.0,0.0,0.0,0.0,0.0,0.0,0.0,0.0,0.0,0.0,0.0,0.0,0.0,0.0,0.0,0.0,0.0,0.0,0.0,0.0,0.0,0.0,0.9498,0.9488,0.0,0.0,0.0,0.0,0.0,0.0,0.0,0.0,0.0,0.0,0.0,0.9253,0.9174,0.0,0.0,0.0,0.0,0.0,0.0,0.0,0.0,0.0,0.0,0.0,0.0,0.7781,0.7359,0.6823,0.6435,0.6213,0.5952,0.5834,0.5799,0.6079,0.6559,0.7157,0.0,0.0,0.0,0.0,0.0,0.0,0.0,0.0,0.0,0.0,0.0,0.0,0.0,0.0,0.0,0.0,0.0,0.0,0.0,0.0,0.0,0.0,0.0,0.0,0.0,0.5142,0.0,0.0,0.0,0.0,0.0,0.0,0.0,0.0,0.0,0.0,0.0,0.0671,0.0157,-0.0481,-0.0921,-0.1139,-0.1369,-0.1495,0.0,0.0,0.0,0.0,0.0,0.0,0.0,0.0,0.0,0.0,0.0,0.0,0.0,0.0,0.2817,0.3168,0.3299,0.3352,0.3352,0.0,0.0,0.0,0.0,0.0,0.0,0.0,0.0,0.0,0.0,0.0,0.0,0.0,0.0,0.9337,0.9255,0.9255,0.0,0.0,0.0,0.0,0.0,0.0,0.0,0.0,0.9385,0.9171,0.8926,0.8792,0.8625,0.0,0.8419,0.8495,0.0,0.0,0.0,0.0,0.0,0.0,0.0,0.0,0.761,0.7097,0.6624,0.6302,0.6086,0.5819,0.5725,0.578,0.6013,0.6418,0.6957,0.7442,0.7863,0.0,0.0,0.0,0.0,0.0,0.0,0.0,0.0,0.0,0.0,0.0,0.0,0.0,0.0,0.0,0.0,0.0,0.0,0.0,0.0,0.0,0.0,0.0,0.4728,0.0,0.0,0.0,0.0,0.0,0.0,0.0,0.0,0.0,0.1545,0.0732,0.0053,-0.0376,-0.0988,-0.1391,-0.1447,0.0,0.0,0.0,0.0,0.0,0.0,0.0,-0.1354,-0.1178,-0.0883,-0.0589,-0.0236,0.0412,0.0939,0.1278,0.0,0.0,0.2927,0.3246,0.3424,0.3537,0.3427,0.3258,0.2983,0.2707,0.2383,0.0,0.0,0.0,0.0,1.1001,0.0,0.0,0.0,0.9137,0.8899,0.0,0.8661,0.0,0.0,0.0,0.0,0.9253,0.9495,0.0,0.0,0.9009,0.8826,0.8893,0.8473,0.8212,0.8071,0.8064,0.7982,0.79,0.8338,0.0,0.0,0.0,0.0,0.0,0.0,0.7575,0.6903,0.6543,0.6296,0.6086,0.5819,0.5758,0.5883,0.6223,0.6457,0.6631,0.7165,0.7504,0.7504,0.7897,0.0,0.0,0.0,0.0,0.0,0.0,0.0,0.0,0.0,0.0,0.0,0.0,0.0,0.0,0.0,0.0,0.0,0.0,0.0,0.0,0.4439,0.0,0.0,0.0,0.0,0.0,0.0,0.0,0.0,0.0,0.0,0.0804,0.0271,-0.0329,-0.1206,0.0,0.0,0.0,0.0,-0.1885,-0.1887,-0.1887,-0.1947,-0.1948,-0.1653,-0.1476,-0.1476,0.0,0.0,-0.059,-0.0295,0.0059,0.0354,0.1121,0.2055,0.2943,0.3197,0.3403,0.3699,0.3518,0.3176,0.288,0.2573,0.217,1.292,0.0,0.0,0.0,0.0,1.1156,1.068,0.9947,0.9678,0.9319,0.8878,0.9103,0.0,0.0,0.0,0.0,0.0,0.0,0.9334,0.9107,0.8868,0.8521,0.82,0.7872,0.7617,0.7436,0.725,0.727,0.7486,0.7617,0.7938,0.8384,0.0,0.0,0.0,0.0,0.7169,0.6825,0.6416,0.5991,0.5591,0.5646,0.5758,0.5889,0.6068,0.6286,0.6654,0.6972,0.7377,0.7821,0.7942,0.0,0.0,0.0,0.0,0.0,0.0,0.0,0.0,0.0,0.0,0.0,0.0,0.0,0.0,0.0,0.0,0.0,0.0,0.0,0.4336,0.4252,0.414,0.0,0.0,0.0,0.0,0.0,0.0,0.0,0.0,0.0,0.0,-0.0398,-0.0797,0.0,0.0,-0.1813,-0.1873,-0.188,-0.201,-0.2211,-0.2216,0.0,-0.2614,-0.2619,-0.2558,-0.2558,-0.2252,-0.1948,-0.1644,-0.1278,-0.0788,-0.006,0.0302,0.0909,0.2031,0.2838,0.3298,0.3416,0.3354,0.3178,0.2884,0.2531,0.2122,1.3803,1.3104,1.291,1.2404,1.1707,1.1564,1.0991,1.0135,0.975,0.9341,0.8855,0.8948,0.8901,0.8753,0.9066,0.0,0.0,0.0,0.9082,0.9013,0.8674,0.8379,0.8103,0.7719,0.7452,0.7251,0.7019,0.6944,0.7085,0.7027,0.7183,0.7588,0.0,0.7981,0.776,0.7319,0.6922,0.6523,0.6124,0.5769,0.5419,0.5508,0.5626,0.5723,0.5899,0.6128,0.6542,0.6778,0.7109,0.7563,0.7687,0.7851,0.0,0.0,0.0,0.0,0.0,0.0,0.0,0.0,0.0,0.0,0.0,0.5518,0.536,0.0,0.0,0.0,0.4441,0.4194,0.3975,0.381,0.0,0.0,0.0,0.0,0.0,0.0,0.0,0.1428,0.0981,0.0351,-0.0593,-0.0826,-0.1115,-0.1531,-0.1778,-0.1903,-0.1903,0.0,-0.2249,-0.2452,-0.259,-0.2734,-0.3011,-0.3015,-0.3078,-0.3078,-0.289,-0.2702,-0.2449,-0.2062,-0.1551,-0.0924,-0.0369,0.0246,0.1037,0.2052,0.2878,0.312,0.3058,0.2938,0.2699,0.2341,0.1861,1.4654,1.4213,1.3719,1.3109,1.2304,1.1992,1.1213,1.0136,0.9606,0.9132,0.8745,0.8494,0.8331,0.8308,0.8605,0.0,0.9027,0.8839,0.8792,0.8947,0.8415,0.8251,0.8329,0.7839,0.7526,0.7398,0.7106,0.6894,0.6809,0.6641,0.6569,0.6648,0.7431,0.7569,0.7098,0.7054,0.67,0.6086,0.5813,0.5591,0.5374,0.5324,0.5411,0.5486,0.5734,0.6025,0.6289,0.6534,0.6777,0.7,0.7166,0.7306,0.7313,0.0,0.0,0.0,0.0,0.0,0.0,0.0,0.0,0.0,0.0,0.0,0.0,0.0,0.0,0.425,0.3926,0.0,0.3704,0.3278,0.0,0.0,0.0,0.2509,0.235,0.2003,0.1533,0.0944,0.0,0.0,-0.0845,-0.1028,-0.1203,-0.184,-0.1921,-0.1939,-0.1937,-0.2296,-0.2655,-0.2714,-0.2941,-0.316,-0.3215,-0.3282,-0.3346,-0.3346,-0.3226,-0.322,-0.3153,-0.2678,-0.2277,-0.202,-0.0999,-0.0124,0.0,0.1049,0.2036,0.2648,0.265,0.2525,0.2462,0.197,0.1478,1.4827,1.4337,1.4221,1.3567,1.2475,1.2003,1.1434,1.0782,1.017,0.9634,0.9137,0.9009,0.8765,0.8542,0.8702,0.8743,0.8726,0.8751,0.8679,0.8519,0.8428,0.8252,0.8088,0.7746,0.7478,0.7242,0.6994,0.6781,0.6659,0.6624,0.6655,0.6748,0.6991,0.6917,0.6574,0.6435,0.6257,0.6086,0.568,0.5324,0.5102,0.4928,0.5048,0.5422,0.5637,0.5885,0.6124,0.6337,0.6643,0.6968,0.7025,0.7213,0.7419,0.7243,0.0,0.0,0.0,0.0,0.0,0.0,0.0,0.0,0.0,0.4892,0.4769,0.0,0.4083,0.0,0.3149,0.2912,0.304,0.2934,0.0,0.0,0.2562,0.2338,0.2298,0.1826,0.1361,0.0959,0.06,0.006,-0.0858,-0.0982,-0.1231,-0.1861,-0.1993,-0.206,-0.2375,-0.2535,-0.2758,-0.3271,-0.341,-0.3546,-0.3809,-0.4128,-0.4324,-0.4321,-0.4321,-0.4257,-0.3999,-0.3537,-0.3015,-0.2308,-0.1838,-0.1194,-0.0251,0.0311,0.0741,0.1358,0.2036,0.2529,0.2467,0.1975,0.1421,1.4827,1.4364,1.4249,1.3612,1.2739,1.2222,1.1656,1.1072,1.0221,0.9655,0.9272,0.8968,0.8744,0.8676,0.875,0.8755,0.8657,0.864,0.8528,0.8386,0.8287,0.8137,0.7988,0.7746,0.754,0.7341,0.6992,0.6758,0.6689,0.6534,0.652,0.6595,0.6537,0.6438,0.6253,0.6247,0.6133,0.5857,0.5355,0.4968,0.4701,0.4701,0.4817,0.5129,0.5305,0.5556,0.5882,0.5974,0.6184,0.6531,0.6537,0.6665,0.6832,0.6697,0.656,0.0,0.0,0.0,0.0,0.0,0.0,0.0,0.0,0.0,0.0,0.0,0.3674,0.3172,0.2891,0.2714,0.2819,0.2649,0.2598,0.2614,0.2323,0.209,0.1985,0.1505,0.1087,0.0792,0.0427,-0.0123,-0.0872,-0.0998,-0.1254,-0.1908,-0.2178,-0.2311,-0.2556,-0.2837,-0.3254,-0.3579,-0.3796,-0.4008,-0.4336,-0.4732,-0.4994,-0.4994,-0.4994,-0.4929,-0.4729,-0.4248,-0.3709,-0.3187,-0.2575,-0.1848,-0.1083,-0.038,0.0126,0.0503,0.1259,0.1754,0.1794,0.1427,0.0998,1.4691,1.4269,1.3947,1.3471,1.2859,1.2466,1.1888,1.1201,1.0092,0.9457,0.9204,0.8723,0.8588,0.8655,0.8655,0.8729,0.8742,0.8492,0.8378,0.8364,0.8165,0.8058,0.7988,0.7746,0.7646,0.7596,0.7098,0.6842,0.6792,0.6486,0.6339,0.6285,0.6181,0.6085,0.6085,0.6222,0.6015,0.5517,0.5013,0.4606,0.4332,0.4561,0.4736,0.482,0.5005,0.5232,0.5506,0.5511,0.5611,0.5821,0.5868,0.5836,0.5862,0.5867,0.5863,0.0,0.5528,0.0,0.0,0.0,0.0,0.0,0.0,0.0,0.0,0.3374,0.32,0.2767,0.2716,0.2719,0.2731,0.2436,0.2273,0.2366,0.2068,0.1775,0.155,0.118,0.0808,0.0559,0.0186,-0.0312,-0.0885,-0.1013,-0.1337,-0.2065,-0.2482,-0.2688,-0.28,-0.3277,-0.3699,-0.3765,-0.4137,-0.4492,-0.4827,-0.5171,-0.5439,-0.5443,-0.5436,-0.5446,-0.5439,-0.4926,-0.4427,-0.4158,-0.3264,-0.2394,-0.2199,-0.1097,-0.0322,-0.0129,0.0386,0.083,0.1003,0.0816,0.0507,1.4619,1.4036,1.3813,1.3268,1.2498,1.2171,1.1659,1.1026,1.0154,0.9403,0.883,0.8722,0.8587,0.8549,0.8543,0.8529,0.8553,0.8501,0.844,0.833,0.8279,0.816,0.7995,0.7945,0.7796,0.7596,0.7291,0.6992,0.6798,0.652,0.6354,0.6354,0.6135,0.6025,0.5981,0.0,0.0,0.0,0.49,0.475,0.4567,0.4618,0.4716,0.487,0.4917,0.0,0.5034,0.5038,0.4979,0.4958,0.4913,0.0,0.0,0.0,0.0,0.0,0.0,0.0,0.0,0.0,0.0,0.0,0.3129,0.3141,0.3064,0.275,0.2529,0.2454,0.2221,0.2123,0.2174,0.2118,0.2068,0.2098,0.1783,0.1531,0.1471,0.096,0.0576,0.0512,0.0,-0.0577,-0.0963,-0.1284,-0.1744,-0.2357,-0.283,-0.3243,-0.3532,-0.3675,-0.3887,-0.4158,-0.4498,-0.4842,-0.5245,-0.558,-0.5778,-0.5778,-0.5845,-0.5781,-0.5778,-0.5506,-0.4958,-0.4487,-0.4044,-0.3478,-0.2427,-0.1887,-0.1486,-0.0968,-0.0516,0.0,0.0833,0.0705,0.0514,1.3905,1.3487,1.3286,1.2782,0.0,1.1837,1.1288,1.0402,1.0115,0.9507,0.8825,0.8825,0.8737,0.8594,0.8594,0.8554,0.8531,0.8531,0.8445,0.8429,0.837,0.833,0.8255,0.8255,0.8119,0.7951,0.7541,0.7252,0.6992,0.6587,0.6387,0.6387,0.6142,0.5992,0.5992,0.5591,0.5264,0.5019,0.4828,0.4664,0.4427,0.4379,0.4399,0.439,0.439,0.0,0.0,0.0,0.0,0.0,0.0,0.0,0.0,0.4093,0.0,0.4038,0.3805,0.3564,0.3484,0.2832,0.2413,0.2413,0.2058,0.207,0.2676,0.2362,0.2167,0.2153,0.2036,0.1992,0.2035,0.2041,0.1982,0.1804,0.1613,0.1419,0.1033,0.071,0.0452,0.0258,-0.0194,-0.0647,-0.1042,-0.1369,-0.1836,-0.2525,-0.2998,-0.3404,-0.3962,-0.4171,-0.444,-0.4775,-0.5111,-0.5443,-0.5647,-0.5982,-0.6183,-0.6183,-0.6183,-0.6183,-0.6183,-0.5915,-0.5446,-0.491,-0.4548,-0.3996,-0.3195,-0.2582,-0.2042,-0.1647,-0.1186,-0.0659,-0.0132,0.0,0.0,1.3145,1.2926,1.2699,1.2234,1.1683,1.1487,1.0855,0.9932,0.988,0.0,0.0,0.894,0.8866,0.8757,0.875,0.8682,0.8567,0.856,0.8547,0.8526,0.852,0.8506,0.8531,0.8531,0.8477,0.8309,0.7788,0.7425,0.7264,0.6732,0.6419,0.6369,0.6047,0.5892,0.5792,0.534,0.5101,0.4974,0.4703,0.4474,0.4231,0.4183,0.4071,0.3837,0.3854,0.3841,0.3799,0.3812,0.3693,0.3486,0.3488,0.3412,0.3204,0.3163,0.3196,0.3251,0.297,0.2786,0.2826,0.211,0.1659,0.1663,0.1206,0.1275,0.2179,0.2003,0.1843,0.1951,0.2023,0.2039,0.2133,0.2137,0.1944,0.1558,0.1429,0.117,0.0586,0.0455,0.0261,-0.0065,-0.0391,-0.0719,-0.1123,-0.1588,-0.1993,-0.2685,-0.3092,-0.3631,-0.4305,-0.4708,-0.4977,-0.5379,-0.5647,-0.5912,-0.6049,-0.625,-0.6455,-0.6455,-0.6455,-0.6522,-0.6455,-0.625,-0.5915,-0.5513,-0.491,-0.4372,-0.3969,-0.3092,-0.2425,-0.229,-0.1683,-0.1212,-0.1143,-0.0934,-0.0662,1.3098,1.2787,1.2203,1.17,1.1329,1.1004,1.0546,1.0016,0.937,0.9016,0.894,0.894,0.8871,0.8851,0.8906,0.8844,0.8824,0.8824,0.8804,0.8682,0.8676,0.8608,0.8538,0.8531,0.8472,0.8452,0.7882,0.7555,0.7473,0.6901,0.6492,0.6226,0.5836,0.5436,0.4985,0.4885,0.473,0.4522,0.446,0.4403,0.4353,0.415,0.3907,0.3667,0.3672,0.35,0.305,0.304,0.2911,0.2706,0.2653,0.2675,0.2721,0.2707,0.2582,0.2397,0.2145,0.1874,0.1585,0.1252,0.1028,0.1104,0.1058,0.1186,0.1603,0.1556,0.1696,0.1956,0.2044,0.2069,0.2098,0.2104,0.198,0.1601,0.1338,0.1003,0.0534,0.0267,-0.0067,-0.0334,-0.0736,-0.1137,-0.1473,-0.2079,-0.2617,-0.3094,-0.3566,-0.4104,-0.491,-0.5312,-0.5446,-0.5714,-0.5845,-0.6046,-0.6317,-0.6455,-0.6522,-0.6522,-0.6522,-0.6522,-0.6522,-0.6455,-0.625,-0.5912,-0.5446,-0.498,-0.4372,-0.3633,-0.3028,-0.2694,-0.2019,-0.1616,-0.1548,-0.1477,-0.1341,1.2639,1.2201,1.1827,1.1301,1.0717,1.0335,1.0025,0.9822,0.9364,0.913,0.9049,0.8974,0.894,0.894,0.894,0.894,0.894,0.894,0.8899,0.8838,0.8832,0.8798,0.8737,0.873,0.8635,0.8348,0.7968,0.7605,0.7381,0.6898,0.6563,0.6302,0.5785,0.5348,0.4981,0.4826,0.4723,0.4568,0.4475,0.4252,0.3792,0.3721,0.348,0.3013,0.3038,0.2893,0.2474,0.2492,0.23,0.1891,0.1854,0.1767,0.1685,0.1657,0.1619,0.1515,0.1361,0.1254,0.1074,0.0855,0.062,0.05,0.0444,0.0574,0.095,0.1336,0.1537,0.1743,0.195,0.2101,0.2131,0.2133,0.1938,0.1413,0.1212,0.0875,0.0337,0.0067,-0.0135,-0.0471,-0.0875,-0.1346,-0.1818,-0.2357,-0.2896,-0.3432,-0.4104,-0.491,-0.558,-0.5848,-0.6049,-0.6183,-0.625,-0.6317,-0.6455,-0.6522,-0.6522,-0.6522,-0.6522,-0.6522,-0.6522,-0.6522,-0.6317,-0.5979,-0.5647,-0.5178,-0.4641,-0.4037,-0.3432,-0.3028,-0.2558,-0.2154,-0.2021,-0.1952,-0.1885,1.2203,1.1783,1.1417,1.088,1.0179,0.9827,0.9659,0.9646,0.9496,0.9367,0.9303,0.9103,0.9022,0.8988,0.8988,0.8912,0.8885,0.894,0.894,0.894,0.894,0.8878,0.8823,0.8823,0.8604,0.8227,0.7943,0.7618,0.7256,0.6909,0.6563,0.6177,0.5642,0.5267,0.4998,0.4786,0.4627,0.4517,0.4323,0.3982,0.3343,0.3331,0.2981,0.2398,0.23,0.2197,0.1876,0.1835,0.1636,0.1272,0.118,0.1141,0.0924,0.0881,0.0888,0.0771,0.0782,0.079,0.0672,0.05,0.0254,0.0,0.0,0.013,0.0389,0.104,0.1437,0.1646,0.1916,0.2129,0.2148,0.2087,0.1818,0.1212,0.101,0.0673,0.0135,-0.0067,-0.0269,-0.0606,-0.0943,-0.1481,-0.2155,-0.2627,-0.3163,-0.3969,-0.491,-0.558,-0.5912,-0.625,-0.6455,-0.6522,-0.6522,-0.6455,-0.6522,-0.6522,-0.6522,-0.6522,-0.6522,-0.6522,-0.6522,-0.6522,-0.6384,-0.6049,-0.5647,-0.5312,-0.4973,-0.4305,-0.3701,-0.3228,-0.2827,-0.2559,-0.2223,-0.2155,-0.2155,1.1946,1.1657,1.0933,1.0327,0.989,0.9802,0.9795,0.9721,0.9652,0.9585,0.9485,0.9408,0.9259,0.92,0.9187,0.9069,0.8898,0.8885,0.8892,0.8892,0.8885,0.8768,0.8553,0.8546,0.8367,0.8036,0.7759,0.7593,0.7453,0.6806,0.6217,0.5598,0.5267,0.5014,0.4741,0.4687,0.4422,0.3887,0.3671,0.3509,0.3403,0.314,0.2611,0.1811,0.1785,0.1527,0.1093,0.1012,0.0971,0.0916,0.093,0.0939,0.0883,0.0895,0.0783,0.0482,0.0489,0.0434,0.0,0.0064,0.0,0.0,0.0,0.0,0.0,0.0732,0.1267,0.159,0.1935,0.2217,0.2154,0.1885,0.1548,0.1144,0.0808,0.0404,0.0067,-0.0269,-0.0606,-0.101,-0.1346,-0.1818,-0.249,-0.3028,-0.3631,-0.4504,-0.5312,-0.5848,-0.5979,-0.625,-0.6522,-0.6522,-0.6522,-0.6522,-0.6522,-0.6522,-0.6522,-0.6522,-0.6522,-0.6522,-0.6522,-0.6522,-0.6455,-0.6317,-0.5781,-0.5379,-0.5111,-0.4507,-0.3698,-0.3295,-0.2894,-0.2559,-0.229,-0.2223,-0.2223,1.1843,1.1291,1.0876,1.0356,0.9836,0.9822,0.97,0.9511,0.9459,0.9312,0.9191,0.9134,0.9163,0.9293,0.9114,0.8972,0.892,0.8692,0.8578,0.8635,0.8578,0.8521,0.8457,0.8457,0.8172,0.7709,0.7601,0.7315,0.6904,0.6294,0.5856,0.5543,0.5088,0.4807,0.469,0.4521,0.4183,0.3734,0.3473,0.3188,0.2769,0.2442,0.2043,0.1505,0.1292,0.1019,0.0686,0.0579,0.0525,0.0409,0.0355,0.0358,0.0358,0.0364,0.0307,0.0186,0.0189,0.0127,0.0,0.0,0.0,0.0,0.0,0.0,0.0,0.0671,0.1141,0.1338,0.1812,0.2223,0.2155,0.1818,0.1481,0.1144,0.0741,0.0337,0.0067,-0.0269,-0.0673,-0.1077,-0.1616,-0.2221,-0.2894,-0.3698,-0.437,-0.5041,-0.5577,-0.5979,-0.6183,-0.6384,-0.6455,-0.6522,-0.6522,-0.6522,-0.6522,-0.6522,-0.6522,-0.6522,-0.6522,-0.6522,-0.6522,-0.6522,-0.6522,-0.6522,-0.5848,-0.5446,-0.5379,-0.4574,-0.3698,-0.3228,-0.2759,-0.2357,-0.2223,-0.2223,-0.2223,1.1614,1.0991,1.0615,1.0128,0.9585,0.9579,0.9396,0.922,0.9214,0.9092,0.8915,0.8915,0.9052,0.9222,0.8935,0.878,0.8748,0.8515,0.8341,0.8282,0.8276,0.816,0.8043,0.8043,0.7694,0.7168,0.7046,0.6754,0.6116,0.5706,0.535,0.5174,0.4764,0.447,0.4294,0.4001,0.3766,0.3472,0.318,0.2769,0.2231,0.1784,0.1429,0.1214,0.0926,0.0582,0.0294,0.0296,0.0178,0.0,0.0,0.0,0.0,0.0,0.0,0.0,0.0,0.0,0.0,0.0,0.0,0.0,0.0,0.0,0.0,0.0673,0.1077,0.1144,0.175,0.2155,0.2021,0.1683,0.1346,0.0943,0.0606,0.0202,-0.0135,-0.0471,-0.0808,-0.1212,-0.1885,-0.2625,-0.3362,-0.4235,-0.5044,-0.5312,-0.5781,-0.6116,-0.6451,-0.6522,-0.6522,-0.6522,-0.6522,-0.6522,-0.6522,-0.6522,-0.6522,-0.6522,-0.6522,-0.6522,-0.6522,-0.6522,-0.6384,-0.625,-0.5714,-0.5312,-0.5111,-0.4372,-0.3566,-0.3096,-0.2625,-0.2223,-0.2223,-0.2223,-0.2223,1.1155,1.0848,1.0055,0.9428,0.8915,0.8976,0.8915,0.8854,0.8854,0.8854,0.8793,0.8854,0.8909,0.8812,0.857,0.8514,0.8417,0.8359,0.8125,0.7886,0.788,0.7577,0.71,0.7041,0.6701,0.6142,0.6083,0.5785,0.5189,0.5127,0.4826,0.4297,0.413,0.3889,0.3364,0.3249,0.3122,0.2777,0.2542,0.2185,0.177,0.1237,0.0942,0.0885,0.0589,0.0295,0.0,0.0,0.0,0.0,0.0,0.0,0.0,0.0,0.0,0.0,0.0,0.0,0.0,0.0,0.0,0.0,0.0,0.0,0.0,0.0673,0.1077,0.1077,0.175,0.2021,0.1686,0.135,0.1012,0.0607,0.0202,-0.0135,-0.0472,-0.0809,-0.1212,-0.1616,-0.2289,-0.3028,-0.3701,-0.4708,-0.5245,-0.5513,-0.6049,-0.6455,-0.6455,-0.6522,-0.6522,-0.6522,-0.6522,-0.6522,-0.6522,-0.6522,-0.6522,-0.6522,-0.6522,-0.6522,-0.6522,-0.6455,-0.625,-0.6049,-0.5647,-0.5245,-0.4842,-0.4238,-0.3499,-0.2961,-0.2558,-0.2223,-0.2223,-0.2223,-0.2223,1.083,1.021,0.9602,0.9181,0.8922,0.8665,0.8482,0.8238,0.8061,0.7816,0.7633,0.7633,0.7633,0.7633,0.7342,0.7543,0.7987,0.7632,0.7266,0.696,0.696,0.6719,0.6292,0.6051,0.5754,0.5331,0.509,0.4791,0.4364,0.3941,0.3641,0.3396,0.297,0.2667,0.2487,0.2426,0.2305,0.2002,0.182,0.1638,0.1277,0.0674,0.0308,0.0308,0.0242,0.012,0.0,0.0,0.0,0.0,0.0,0.0,0.0,0.0,0.0,0.0,0.0,0.0,0.0,0.0,0.0,0.0,0.0,0.0,0.0,0.0673,0.1077,0.1212,0.1548,0.1621,0.1362,0.116,0.0955,0.0546,0.0,-0.0413,-0.0615,-0.1091,-0.1632,-0.2024,-0.2759,-0.3701,-0.4305,-0.4977,-0.5446,-0.5714,-0.6183,-0.6455,-0.6522,-0.6522,-0.6522,-0.6522,-0.6522,-0.6522,-0.6522,-0.6522,-0.6522,-0.6522,-0.6522,-0.6522,-0.6522,-0.6522,-0.6384,-0.5982,-0.558,-0.5178,-0.4708,-0.3967,-0.3297,-0.2625,-0.2223,-0.2223,-0.2223,-0.2223,-0.2223,1.0241,0.9389,0.9078,0.8683,0.8245,0.8011,0.7811,0.7566,0.7204,0.6959,0.6775,0.6653,0.6605,0.6513,0.6139,0.6284,0.6917,0.6685,0.6342,0.597,0.5908,0.5663,0.5172,0.4926,0.4558,0.413,0.3655,0.3235,0.2939,0.2503,0.2253,0.2128,0.169,0.1439,0.1376,0.1313,0.1188,0.1001,0.1001,0.0814,0.0439,0.0063,-0.0254,-0.0317,-0.0374,-0.0372,-0.0376,-0.0376,-0.0377,-0.0317,-0.0254,-0.0128,0.0,-0.0066,-0.0199,-0.0133,0.0,-0.0135,-0.0135,-0.0067,0.0,0.0,0.0,0.0,0.0,0.0539,0.0877,0.1015,0.122,0.1295,0.1035,0.0903,0.0695,0.0208,-0.0279,-0.0699,-0.0901,-0.1447,-0.2117,-0.2701,-0.3297,-0.4037,-0.4705,-0.5111,-0.5513,-0.5845,-0.625,-0.6455,-0.6522,-0.6522,-0.6522,-0.6522,-0.6522,-0.6522,-0.6522,-0.6522,-0.6522,-0.6522,-0.6522,-0.6522,-0.6455,-0.6455,-0.6317,-0.5848,-0.5446,-0.5044,-0.444,-0.3698,-0.3028,-0.2356,-0.2223,-0.2223,-0.2223,-0.2223,-0.2223,0.951,0.8519,0.8349,0.7785,0.7156,0.695,0.6903,0.6851,0.6478,0.6302,0.6196,0.599,0.5792,0.578,0.5227,0.5013,0.5164,0.5379,0.5259,0.4885,0.4823,0.4327,0.3527,0.3406,0.3034,0.2417,0.1755,0.127,0.0963,0.0898,0.0706,0.045,0.0385,0.0128,-0.0129,-0.0128,-0.0129,-0.0193,-0.0128,-0.0321,-0.058,-0.0709,-0.0903,-0.1097,-0.1159,-0.1224,-0.116,-0.1094,-0.1029,-0.0967,-0.071,-0.0325,-0.0198,-0.0334,-0.0471,-0.0538,-0.0538,-0.0539,-0.0471,-0.0202,0.0,0.0,0.0,0.0,0.0,0.0338,0.0543,0.0617,0.0825,0.0968,0.063,0.0496,0.0213,-0.0422,-0.0634,-0.0916,-0.1541,-0.201,-0.2598,-0.3447,-0.384,-0.4104,-0.4705,-0.5178,-0.5513,-0.5915,-0.625,-0.6522,-0.6522,-0.6522,-0.6522,-0.6522,-0.6522,-0.6522,-0.6522,-0.6522,-0.6522,-0.6522,-0.6522,-0.6522,-0.6455,-0.6455,-0.6116,-0.5714,-0.5245,-0.4775,-0.3967,-0.3295,-0.2959,-0.2423,-0.2356,-0.2223,-0.2223,-0.2223,-0.2223,0.9042,0.8339,0.7587,0.702,0.6621,0.6143,0.5944,0.5886,0.532,0.5102,0.508,0.4766,0.4588,0.4473,0.3904,0.3655,0.3603,0.3124,0.3048,0.3431,0.3046,0.2602,0.2033,0.1588,0.1017,0.0382,-0.0128,-0.0449,-0.058,-0.0774,-0.0968,-0.1032,-0.129,-0.1419,-0.1549,-0.1548,-0.1548,-0.1548,-0.1548,-0.1613,-0.1743,-0.1889,-0.2095,-0.2229,-0.2445,-0.2522,-0.252,-0.1629,-0.1102,-0.1112,-0.0982,-0.0856,-0.0801,-0.0873,-0.0943,-0.0943,-0.0943,-0.0943,-0.0876,-0.0543,-0.0341,-0.0274,-0.0138,0.0,0.0,0.0277,0.0485,0.0488,0.0627,0.0631,0.0497,0.0,-0.0357,-0.0569,-0.0861,-0.1362,-0.2128,-0.2857,-0.3435,-0.3823,-0.4062,-0.4442,-0.5044,-0.5379,-0.5647,-0.6183,-0.6451,-0.6522,-0.6522,-0.6522,-0.6522,-0.6522,-0.6522,-0.6522,-0.6522,-0.6522,-0.6522,-0.6522,-0.6522,-0.6522,-0.6455,-0.625,-0.5915,-0.5446,-0.5044,-0.444,-0.3564,-0.3094,-0.2825,-0.249,-0.229,-0.2223,-0.2223,-0.2223,-0.2223,0.8541,0.7812,0.6985,0.6316,0.5826,0.5351,0.5083,0.4829,0.4259,0.3962,0.3927,0.3482,0.3168,0.2986,0.2469,0.2216,0.1963,0.0983,0.0852,0.1436,0.1356,0.0903,0.0387,-0.0387,-0.11,-0.1688,-0.2014,-0.2216,-0.2357,-0.2553,-0.2686,-0.2686,-0.2881,-0.2948,-0.3013,-0.3013,-0.2948,-0.2817,-0.2819,-0.2752,-0.2626,-0.2777,-0.2855,-0.2926,-0.308,-0.3226,-0.3157,-0.2313,-0.1842,-0.1657,-0.1461,-0.1268,-0.1144,-0.1212,-0.1279,-0.1281,-0.1286,-0.129,-0.1291,-0.0825,-0.0554,-0.0486,-0.0209,0.0,0.0,0.021,0.0281,0.0353,0.0353,0.0213,0.0072,-0.0288,-0.0721,-0.1009,-0.1378,-0.1957,-0.2791,-0.3524,-0.3956,-0.4065,-0.4226,-0.4673,-0.5188,-0.5446,-0.5714,-0.6321,-0.6522,-0.6522,-0.6522,-0.6522,-0.6522,-0.6522,-0.6522,-0.6522,-0.6522,-0.6522,-0.6522,-0.6522,-0.6522,-0.6522,-0.6455,-0.6183,-0.5845,-0.5245,-0.4775,-0.4238,-0.343,-0.3228,-0.3028,-0.2625,-0.2223,-0.2223,-0.2223,-0.2223,-0.2223,0.7922,0.6973,0.6362,0.5599,0.472,0.4477,0.4195,0.3809,0.316,0.2843,0.2718,0.2141,0.1761,0.1449,0.1055,0.073,0.0268,-0.067,-0.1139,-0.0932,-0.0788,-0.0909,-0.1429,-0.2337,-0.3134,-0.3687,-0.3889,-0.411,-0.4278,-0.4348,-0.4434,-0.442,-0.4417,-0.4428,-0.435,-0.4364,-0.4222,-0.3952,-0.389,-0.3756,-0.3421,-0.3358,-0.3425,-0.3425,-0.3495,-0.3497,-0.3495,-0.3285,-0.3019,-0.2692,-0.2083,-0.168,-0.1346,-0.1482,-0.1688,-0.1689,-0.1707,-0.1718,-0.1587,-0.1115,-0.0702,-0.0632,-0.0352,0.0,0.0,0.0,0.0071,0.0,-0.0072,-0.0216,-0.0509,-0.0729,-0.1092,-0.1821,-0.2186,-0.2828,-0.3805,-0.4004,-0.4168,-0.4303,-0.4406,-0.4655,-0.5275,-0.54,-0.5796,-0.6254,-0.6522,-0.6522,-0.6522,-0.6522,-0.6522,-0.6522,-0.6522,-0.6522,-0.6522,-0.6522,-0.6522,-0.6522,-0.6522,-0.6522,-0.6388,-0.6049,-0.551,-0.4977,-0.4507,-0.3967,-0.3497,-0.3295,-0.2894,-0.2423,-0.2223,-0.2223,-0.2223,-0.2223,-0.2223,0.7316,0.6514,0.5359,0.4522,0.3887,0.341,0.295,0.2555,0.1833,0.1581,0.146,0.0865,0.0466,0.0334,-0.0268,-0.0604,-0.1009,-0.2019,-0.2623,-0.2754,-0.3341,-0.3457,-0.3656,-0.4256,-0.4796,-0.5018,-0.5489,-0.5759,-0.5845,-0.586,-0.5856,-0.5848,-0.5789,-0.5714,-0.551,-0.5443,-0.5309,-0.5044,-0.4977,-0.491,-0.4775,-0.4775,-0.4842,-0.4842,-0.4775,-0.4775,-0.4708,-0.4305,-0.3701,-0.3096,-0.2892,-0.2625,-0.2294,-0.2313,-0.2256,-0.2124,-0.2077,-0.2094,-0.196,-0.1626,-0.1281,-0.0997,-0.0645,-0.0289,0.0,0.0,-0.0145,-0.0363,-0.0436,-0.0581,-0.1021,-0.1313,-0.1968,-0.2844,-0.3136,-0.3421,-0.3984,-0.4313,-0.4488,-0.4529,-0.4488,-0.4782,-0.5283,-0.5525,-0.5779,-0.6278,-0.6522,-0.6522,-0.6522,-0.6522,-0.6522,-0.6522,-0.6522,-0.6522,-0.6522,-0.6522,-0.6522,-0.6522,-0.6522,-0.6455,-0.6254,-0.5915,-0.5245,-0.4574,-0.4372,-0.3969,-0.3564,-0.3228,-0.2759,-0.229,-0.2223,-0.2223,-0.2223,-0.2223,-0.2223,0.6786,0.5915,0.4641,0.3684,0.2992,0.2261,0.1796,0.133,0.0665,0.0267,0.0067,-0.0404,-0.0875,-0.1144,-0.1615,-0.1951,-0.2356,-0.3246,-0.3731,-0.4143,-0.5046,-0.5451,-0.5437,-0.5926,-0.6293,-0.6498,-0.7038,-0.7247,-0.7315,-0.731,-0.7315,-0.7242,-0.7066,-0.6846,-0.6639,-0.6598,-0.6384,-0.6116,-0.5982,-0.5781,-0.5647,-0.5446,-0.5379,-0.5379,-0.5383,-0.5389,-0.5356,-0.5049,-0.4439,-0.3673,-0.3327,-0.3197,-0.3014,-0.2967,-0.2841,-0.2497,-0.2457,-0.2404,-0.2199,-0.1934,-0.1658,-0.1371,-0.1091,-0.0802,0.0,-0.0511,-0.0657,-0.0802,-0.0876,-0.1095,-0.1605,-0.2187,-0.2842,-0.3571,-0.3791,-0.3935,-0.4299,-0.4488,-0.4602,-0.4575,-0.4613,-0.4779,-0.5414,-0.5519,-0.5888,-0.6318,-0.6543,-0.6531,-0.6522,-0.6522,-0.6522,-0.6522,-0.6522,-0.6522,-0.6522,-0.6522,-0.6522,-0.6522,-0.6522,-0.6455,-0.6049,-0.5714,-0.5178,-0.4574,-0.4305,-0.3969,-0.3497,-0.3094,-0.2692,-0.2357,-0.229,-0.2223,-0.2223,-0.2223,-0.2223,0.625,0.5181,0.4104,0.3028,0.2085,0.1346,0.0739,0.0269,-0.0403,-0.0874,-0.1212,-0.1616,-0.2085,-0.2823,-0.2825,-0.323,-0.3917,-0.4362,-0.4869,-0.545,-0.6322,-0.6823,-0.6842,-0.7148,-0.7451,-0.7802,-0.8313,-0.8511,-0.849,-0.857,-0.8585,-0.8411,-0.8064,-0.782,-0.7582,-0.7588,-0.734,-0.6987,-0.6719,-0.6451,-0.625,-0.5982,-0.5923,-0.5945,-0.5968,-0.5998,-0.5917,-0.5691,-0.5289,-0.4279,-0.379,-0.3599,-0.3566,-0.3505,-0.3301,-0.2957,-0.2915,-0.2796,-0.2512,-0.2244,-0.1893,-0.182,-0.1457,-0.1241,-0.1095,-0.1095,-0.1168,-0.1386,-0.1314,-0.1678,-0.2407,-0.3063,-0.3646,-0.408,-0.4153,-0.4371,-0.4665,-0.4808,-0.4716,-0.4737,-0.4726,-0.505,-0.5417,-0.5632,-0.5863,-0.6469,-0.6553,-0.6576,-0.6555,-0.6539,-0.6531,-0.6522,-0.6522,-0.6522,-0.6522,-0.6522,-0.6522,-0.6522,-0.6522,-0.6388,-0.5781,-0.5379,-0.4977,-0.4574,-0.4238,-0.3768,-0.3365,-0.2961,-0.2627,-0.2357,-0.2223,-0.2223,-0.2223,-0.2223,-0.2223,0.5245,0.4442,0.3096,0.2087,0.1279,0.0539,-0.0135,-0.0808,-0.1481,-0.1885,-0.2087,-0.2558,-0.3096,-0.3566,-0.384,-0.4262,-0.4783,-0.5358,-0.6069,-0.6844,-0.7415,-0.7945,-0.8043,-0.8163,-0.8189,-0.8472,-0.8954,-0.9232,-0.9307,-0.9463,-0.9579,-0.9232,-0.9007,-0.8724,-0.8171,-0.8083,-0.7805,-0.7478,-0.7335,-0.7277,-0.7143,-0.7009,-0.6972,-0.7093,-0.7168,-0.7286,-0.7239,-0.6848,-0.6461,-0.6063,-0.527,-0.4628,-0.4291,-0.4039,-0.3701,-0.3426,-0.3385,-0.3339,-0.3197,-0.2841,-0.2553,-0.2265,-0.1975,-0.1532,-0.1241,-0.1316,-0.1534,-0.1896,-0.2114,-0.2412,-0.3145,-0.3648,-0.4165,-0.4608,-0.4825,-0.511,-0.5396,-0.525,-0.5235,-0.5443,-0.5505,-0.5702,-0.6062,-0.6103,-0.6266,-0.6561,-0.6635,-0.6574,-0.6601,-0.6564,-0.6543,-0.6531,-0.6522,-0.6522,-0.6522,-0.6522,-0.6522,-0.6522,-0.6522,-0.6254,-0.5647,-0.5312,-0.5044,-0.4574,-0.4037,-0.3633,-0.3228,-0.2894,-0.2627,-0.2357,-0.2223,-0.2223,-0.2223,-0.2223,-0.2221,0.4571,0.3633,0.2289,0.1279,0.0471,-0.0539,-0.1279,-0.1683,-0.2356,-0.2759,-0.3028,-0.3499,-0.3982,-0.4346,-0.4691,-0.5133,-0.5608,-0.621,-0.6691,-0.7198,-0.7688,-0.8136,-0.8417,-0.8652,-0.8829,-0.8894,-0.94,-0.9677,-0.9753,-0.9889,-0.9836,-0.9671,-0.9484,-0.9084,-0.866,-0.8543,-0.8417,-0.8171,-0.801,-0.7942,-0.7942,-0.7737,-0.7688,-0.7824,-0.792,-0.7907,-0.7842,-0.761,-0.7367,-0.7044,-0.6478,-0.5668,-0.5003,-0.4671,-0.4328,-0.3902,-0.3771,-0.3661,-0.3524,-0.3386,-0.3174,-0.2965,-0.2744,-0.2597,-0.2449,-0.2375,-0.2523,-0.282,-0.3044,-0.3265,-0.4082,-0.4752,-0.512,-0.5268,-0.549,-0.5783,-0.6068,-0.58,-0.5538,-0.5756,-0.5749,-0.5953,-0.6141,-0.6324,-0.65,-0.6712,-0.6709,-0.6647,-0.6578,-0.6541,-0.6568,-0.6547,-0.6531,-0.6522,-0.6522,-0.6522,-0.6522,-0.6522,-0.6522,-0.612,-0.5584,-0.5315,-0.5181,-0.4574,-0.4037,-0.3631,-0.3295,-0.2961,-0.2627,-0.2357,-0.2223,-0.2223,-0.2223,-0.2223,-0.2223,0.39,0.2825,0.148,0.0471,-0.0404,-0.1616,-0.2221,-0.2423,-0.3028,-0.3436,-0.3915,-0.4252,-0.4632,-0.5152,-0.544,-0.583,-0.6321,-0.6689,-0.698,-0.728,-0.7729,-0.8101,-0.8387,-0.8812,-0.9147,-0.9307,-0.9634,-0.9856,-0.9856,-0.9951,-0.9976,-0.985,-0.9495,-0.9204,-0.9106,-0.8971,-0.8815,-0.8713,-0.8559,-0.8426,-0.8431,-0.8298,-0.8308,-0.8503,-0.859,-0.8581,-0.8535,-0.8313,-0.8169,-0.7811,-0.7391,-0.6654,-0.581,-0.5207,-0.4985,-0.4326,-0.4263,-0.4211,-0.4092,-0.3952,-0.3893,-0.3933,-0.3931,-0.3855,-0.3776,-0.3771,-0.3844,-0.4,-0.4148,-0.4374,-0.5071,-0.5509,-0.5961,-0.6118,-0.6197,-0.6355,-0.6631,-0.6304,-0.618,-0.6071,-0.6224,-0.6436,-0.6471,-0.6573,-0.6686,-0.6788,-0.679,-0.6721,-0.6656,-0.6607,-0.6574,-0.6541,-0.6533,-0.6539,-0.6531,-0.6531,-0.6531,-0.6539,-0.6535,-0.6065,-0.5591,-0.5383,-0.5111,-0.4507,-0.4037,-0.3698,-0.3362,-0.2961,-0.2694,-0.2357,-0.2223,-0.2223,-0.2223,-0.2223,-0.2223,0.2825,0.175,0.0673,-0.0404,-0.1346,-0.1953,-0.2558,-0.3096,-0.3568,-0.3927,-0.4308,-0.4723,-0.5309,-0.5848,-0.6074,-0.6329,-0.6701,-0.6933,-0.716,-0.7456,-0.7763,-0.8058,-0.8578,-0.8851,-0.9108,-0.9396,-0.9663,-0.9807,-0.9951,-1.0239,-1.0023,-0.9873,-0.9778,-0.9518,-0.9231,-0.9106,-0.8987,-0.8938,-0.8852,-0.8847,-0.8917,-0.9062,-0.9305,-0.966,-0.9769,-0.9684,-0.9513,-0.931,-0.9092,-0.8661,-0.8085,-0.7514,-0.6837,-0.6009,-0.5484,-0.5173,-0.4871,-0.4801,-0.4973,-0.4907,-0.4909,-0.4993,-0.5004,-0.4772,-0.4772,-0.4772,-0.5016,-0.5237,-0.5461,-0.5758,-0.583,-0.6304,-0.6366,-0.651,-0.6747,-0.6827,-0.7117,-0.7093,-0.6888,-0.6763,-0.6817,-0.679,-0.6828,-0.6792,-0.6837,-0.6945,-0.6884,-0.6827,-0.6774,-0.6725,-0.6688,-0.6656,-0.6623,-0.6541,-0.6472,-0.6543,-0.6547,-0.6568,-0.6504,-0.6167,-0.5751,-0.5524,-0.5114,-0.4609,-0.4189,-0.3835,-0.3499,-0.3098,-0.2896,-0.2692,-0.2423,-0.2223,-0.2223,-0.229,-0.2223,0.1885,0.0943,-0.0337,-0.1212,-0.1952,-0.2692,-0.331,-0.3804,-0.4216,-0.4658,-0.5046,-0.5411,-0.5799,-0.6207,-0.6508,-0.6717,-0.6906,-0.7031,-0.726,-0.7476,-0.7717,-0.7941,-0.8453,-0.8711,-0.8945,-0.9175,-0.9412,-0.9596,-0.959,-0.9735,-0.9807,-0.9663,-0.959,-0.9419,-0.9237,-0.922,-0.9188,-0.9133,-0.9128,-0.9193,-0.9411,-0.9836,-1.0167,-1.0364,-1.0491,-1.0414,-1.0347,-0.9956,-0.9667,-0.9287,-0.886,-0.8303,-0.7642,-0.6976,-0.6284,-0.5922,-0.5607,-0.5546,-0.5873,-0.5809,-0.6052,-0.6166,-0.6239,-0.6239,-0.6239,-0.6323,-0.6319,-0.6546,-0.6857,-0.7164,-0.7172,-0.7314,-0.7552,-0.7706,-0.7774,-0.7697,-0.7782,-0.7782,-0.7566,-0.7339,-0.7227,-0.712,-0.7079,-0.7117,-0.7072,-0.7023,-0.6974,-0.6925,-0.688,-0.6902,-0.6857,-0.6799,-0.6827,-0.6716,-0.6638,-0.6626,-0.6617,-0.6558,-0.6493,-0.6221,-0.5956,-0.5744,-0.5348,-0.4896,-0.445,-0.4062,-0.377,-0.3436,-0.3232,-0.2963,-0.2761,-0.2559,-0.2425,-0.2357,-0.229,0.0808,0.0,-0.1278,-0.2158,-0.2702,-0.3512,-0.4153,-0.4607,-0.4962,-0.5345,-0.5758,-0.6052,-0.6304,-0.6515,-0.6773,-0.699,-0.7129,-0.7137,-0.7207,-0.7348,-0.7587,-0.7738,-0.8017,-0.8417,-0.8874,-0.9019,-0.9259,-0.9329,-0.9379,-0.9374,-0.9374,-0.9374,-0.9302,-0.9302,-0.9296,-0.9285,-0.9302,-0.9302,-0.9446,-0.9663,-1.0095,-1.0462,-1.0671,-1.0678,-1.0671,-1.0806,-1.0779,-1.0546,-1.0259,-0.9919,-0.9492,-0.9034,-0.8279,-0.7799,-0.7301,-0.6659,-0.6405,-0.6364,-0.655,-0.6957,-0.7289,-0.7488,-0.7829,-0.792,-0.8102,-0.8102,-0.812,-0.8107,-0.8172,-0.8306,-0.8356,-0.8535,-0.8691,-0.8686,-0.8682,-0.8696,-0.8366,-0.8274,-0.8165,-0.7864,-0.7578,-0.7444,-0.739,-0.7203,-0.7158,-0.7125,-0.7076,-0.7023,-0.6974,-0.7132,-0.7149,-0.7076,-0.7034,-0.6947,-0.6839,-0.6745,-0.6664,-0.6656,-0.659,-0.6452,-0.6191,-0.5928,-0.5521,-0.5162,-0.4842,-0.4447,-0.4145,-0.3854,-0.3593,-0.3322,-0.3038,-0.2828,-0.2761,-0.2627,-0.2425,-0.0404,-0.1414,-0.222,-0.3181,-0.4037,-0.4245,-0.4761,-0.5444,-0.5517,-0.5771,-0.6271,-0.6346,-0.6606,-0.6898,-0.7052,-0.7101,-0.7154,-0.7215,-0.7292,-0.7366,-0.7451,-0.768,-0.7991,-0.8364,-0.8755,-0.8943,-0.9255,-0.94,-0.9329,-0.9302,-0.9302,-0.9302,-0.9302,-0.9302,-0.9302,-0.9302,-0.9302,-0.9374,-0.9663,-1.0167,-1.0678,-1.09,-1.1109,-1.1325,-1.1424,-1.1345,-1.127,-1.115,-1.0902,-1.0422,-1.0081,-0.9527,-0.8764,-0.8301,-0.8154,-0.7738,-0.7345,-0.6956,-0.7423,-0.8128,-0.8755,-0.9027,-0.95,-0.9688,-0.9919,-1.0004,-1.0014,-0.9861,-0.9698,-0.943,-0.9301,-0.9032,-0.8866,-0.888,-0.9061,-0.8973,-0.8807,-0.8864,-0.8669,-0.8466,-0.817,-0.7765,-0.7536,-0.7427,-0.7319,-0.7211,-0.7178,-0.7199,-0.7219,-0.7447,-0.7513,-0.7513,-0.7407,-0.7323,-0.7168,-0.7006,-0.6852,-0.6766,-0.6696,-0.6625,-0.6426,-0.6156,-0.5775,-0.5474,-0.5159,-0.4948,-0.4666,-0.437,-0.3991,-0.3696,-0.3484,-0.3255,-0.3163,-0.2896,-0.2635,-0.2399,-0.2723,-0.3333,-0.4113,-0.4788,-0.4996,-0.5384,-0.5937,-0.623,-0.663,-0.6993,-0.7221,-0.7344,-0.7426,-0.7408,-0.7406,-0.7339,-0.7393,-0.7382,-0.7448,-0.7537,-0.7696,-0.8075,-0.8415,-0.8678,-0.9014,-0.9292,-0.941,-0.934,-0.9302,-0.9302,-0.9302,-0.9302,-0.9302,-0.9302,-0.9302,-0.9302,-0.9446,-0.9879,-1.0455,-1.0894,-1.1188,-1.1404,-1.1626,-1.1694,-1.167,-1.1737,-1.1583,-1.1422,-1.0922,-1.0546,-0.9936,-0.9324,-0.8934,-0.8778,-0.8544,-0.8696,-0.8691,-0.87,-0.9531,-1.0101,-1.069,-1.1197,-1.1763,-1.1813,-1.1863,-1.1733,-1.15,-1.1334,-1.0901,-1.039,-1.0152,-0.9914,-0.9829,-0.956,-0.9407,-0.9407,-0.9342,-0.9273,-0.8986,-0.8776,-0.8443,-0.8044,-0.7761,-0.7655,-0.7697,-0.772,-0.773,-0.7826,-0.7993,-0.7979,-0.7958,-0.7868,-0.7715,-0.7563,-0.733,-0.7115,-0.7035,-0.6892,-0.6821,-0.6745,-0.6452,-0.6136,-0.5859,-0.5652,-0.5434,-0.5214,-0.48,-0.4386,-0.4159,-0.3873,-0.3776,-0.3614,-0.3269,-0.3067,-0.4115,-0.4162,-0.4558,-0.5005,-0.5557,-0.5838,-0.6237,-0.6741,-0.7031,-0.7428,-0.7697,-0.7933,-0.7988,-0.7929,-0.7896,-0.784,-0.7684,-0.7718,-0.777,-0.7821,-0.7838,-0.8072,-0.8361,-0.8683,-0.8903,-0.8995,-0.9367,-0.9459,-0.9345,-0.9302,-0.9302,-0.9302,-0.9302,-0.9302,-0.9302,-0.9302,-0.9374,-0.9735,-1.0311,-1.0822,-1.1116,-1.1404,-1.1575,-1.1694,-1.1782,-1.1925,-1.2108,-1.1983,-1.1734,-1.1457,-1.1023,-1.0408,-0.9713,-0.9402,-0.9349,-0.9286,-0.9536,-1.0106,-1.0364,-1.1039,-1.1628,-1.2331,-1.3054,-1.3705,-1.3646,-1.3661,-1.3426,-1.293,-1.252,-1.2105,-1.1517,-1.1177,-1.0678,-1.0506,-1.0356,-1.0212,-1.0056,-0.9874,-0.9853,-0.9642,-0.9442,-0.9178,-0.8766,-0.821,-0.8079,-0.8193,-0.8206,-0.828,-0.8436,-0.8527,-0.8582,-0.8479,-0.8285,-0.8131,-0.7833,-0.7621,-0.7421,-0.7135,-0.7063,-0.6982,-0.6813,-0.6741,-0.6513,-0.6319,-0.6119,-0.5884,-0.5551,-0.5127,-0.4785,-0.4633,-0.4482,-0.4247,-0.4018,-0.3663,-0.3445,-0.5078,-0.6051,-0.5694,-0.5989,-0.6772,-0.6772,-0.7254,-0.7837,-0.7914,-0.7991,-0.815,-0.816,-0.8285,-0.8233,-0.8332,-0.8427,-0.8473,-0.8644,-0.8604,-0.8618,-0.87,-0.8622,-0.8847,-0.9046,-0.9198,-0.9187,-0.943,-0.953,-0.9372,-0.9372,-0.9334,-0.9307,-0.934,-0.9318,-0.9334,-0.944,-0.9797,-1.0233,-1.074,-1.1168,-1.145,-1.1602,-1.1714,-1.1803,-1.185,-1.1965,-1.2244,-1.2222,-1.206,-1.1798,-1.1417,-1.0952,-1.0175,-0.9891,-0.9855,-1.0139,-1.0346,-1.1098,-1.2052,-1.2509,-1.3144,-1.4054,-1.4911,-1.5424,-1.5432,-1.5256,-1.4921,-1.4305,-1.3722,-1.2943,-1.2223,-1.1603,-1.1172,-1.0865,-1.072,-1.0476,-1.0308,-1.0368,-1.026,-1.0222,-1.0035,-0.9768,-0.9642,-0.906,-0.8743,-0.8774,-0.8828,-0.8898,-0.895,-0.9025,-0.9096,-0.9076,-0.8853,-0.8527,-0.8078,-0.786,-0.757,-0.7208,-0.699,-0.699,-0.6982,-0.6845,-0.67,-0.6627,-0.641,-0.6119,-0.5967,-0.5754,-0.5564,-0.5266,-0.4964,-0.4662,-0.4348,-0.4048,-0.3906,-0.6044,-0.6717,-0.6825,-0.7044,-0.7365,-0.7585,-0.7824,-0.8073,-0.8367,-0.8584,-0.8801,-0.8884,-0.8831,-0.8746,-0.8745,-0.8787,-0.8702,-0.8755,-0.8852,-0.8778,-0.8778,-0.8934,-0.9168,-0.9304,-0.9392,-0.9497,-0.9683,-0.9704,-0.9557,-0.9503,-0.9525,-0.9514,-0.9459,-0.9481,-0.9571,-0.9798,-1.0246,-1.0694,-1.1142,-1.1523,-1.1817,-1.1891,-1.1918,-1.1959,-1.2088,-1.2155,-1.2291,-1.2379,-1.2209,-1.1947,-1.1727,-1.1268,-1.0904,-1.0638,-1.0707,-1.1019,-1.1231,-1.2141,-1.3293,-1.3843,-1.4524,-1.5958,-1.6554,-1.6751,-1.6734,-1.6418,-1.6008,-1.5295,-1.4527,-1.3732,-1.3001,-1.2168,-1.1605,-1.1265,-1.0919,-1.0661,-1.0568,-1.0552,-1.053,-1.0422,-1.0395,-1.0287,-1.0152,-1.0014,-0.9606,-0.9366,-0.9407,-0.9449,-0.9421,-0.9403,-0.9478,-0.9461,-0.9228,-0.8712,-0.8256,-0.7951,-0.772,-0.7353,-0.699,-0.699,-0.699,-0.699,-0.6845,-0.6773,-0.6773,-0.6555,-0.6471,-0.6524,-0.6213,-0.576,-0.5317,-0.4952,-0.4698,-0.4447,-0.4301,-0.6845,-0.7204,-0.7711,-0.7928,-0.7928,-0.815,-0.8367,-0.8512,-0.8729,-0.9085,-0.9446,-0.9385,-0.9343,-0.9282,-0.9216,-0.9157,-0.9151,-0.9221,-0.9163,-0.9246,-0.9246,-0.9324,-0.948,-0.9615,-0.9645,-0.9791,-0.9829,-0.9769,-0.965,-0.9666,-0.9677,-0.9666,-0.9644,-0.965,-0.9777,-1.0197,-1.0646,-1.1089,-1.1463,-1.1762,-1.2054,-1.2047,-1.2094,-1.2121,-1.2223,-1.2298,-1.2359,-1.244,-1.2326,-1.2192,-1.1966,-1.1753,-1.1576,-1.1572,-1.158,-1.1905,-1.2321,-1.3085,-1.4009,-1.5046,-1.5984,-1.713,-1.7656,-1.7755,-1.7691,-1.7273,-1.6599,-1.5942,-1.5118,-1.43,-1.3397,-1.2452,-1.1777,-1.134,-1.0931,-1.0672,-1.0677,-1.0666,-1.0645,-1.0617,-1.0596,-1.0497,-1.0454,-1.0308,-1.0094,-0.9845,-0.9824,-0.9786,-0.9762,-0.9671,-0.9672,-0.9569,-0.9461,-0.894,-0.8363,-0.8111,-0.7792,-0.728,-0.699,-0.699,-0.699,-0.699,-0.699,-0.6918,-0.6918,-0.699,-0.691,-0.6753,-0.6467,-0.6112,-0.5588,-0.5135,-0.4985,-0.4729,-0.457,-0.7208,-0.7638,-0.8367,-0.8652,-0.8657,-0.8657,-0.8868,-0.9157,-0.923,-0.9518,-0.9807,-0.959,-0.9663,-0.9877,-0.9841,-0.9748,-0.9867,-0.9898,-1.0025,-1.0025,-1.0019,-1.0019,-1.0019,-1.0081,-1.0125,-0.9867,-0.9927,-0.9894,-0.9779,-0.9807,-0.9769,-0.9813,-0.9807,-0.9856,-0.9838,-1.0502,-1.1102,-1.1476,-1.187,-1.2108,-1.2121,-1.2128,-1.2196,-1.2264,-1.2311,-1.2379,-1.2447,-1.2474,-1.2424,-1.2347,-1.2114,-1.2011,-1.2056,-1.1786,-1.1991,-1.2605,-1.2976,-1.365,-1.4683,-1.6344,-1.7264,-1.7919,-1.8265,-1.8346,-1.8346,-1.7855,-1.6944,-1.6114,-1.5208,-1.4135,-1.3231,-1.2318,-1.1902,-1.1403,-1.0987,-1.0737,-1.0737,-1.0737,-1.0699,-1.0683,-1.071,-1.0715,-1.0677,-1.0606,-1.0438,-1.0244,-1.0237,-1.0128,-1.0014,-0.9932,-0.9851,-0.9737,-0.9622,-0.9002,-0.8484,-0.8261,-0.7865,-0.728,-0.699,-0.699,-0.699,-0.699,-0.699,-0.699,-0.699,-0.699,-0.699,-0.6986,-0.67,-0.6337,-0.5683,-0.5238,-0.5093,-0.4939,-0.4768,-0.7566,-0.8005,-0.8512,-0.8874,-0.909,-0.909,-0.9157,-0.9302,-0.959,-0.9951,-1.0239,-1.0095,-1.0166,-1.0375,-1.0506,-1.048,-1.0609,-1.0809,-1.0874,-1.0796,-1.0796,-1.0874,-1.0874,-1.0791,-1.0767,-1.0744,-1.0566,-1.0323,-1.0295,-1.0108,-0.9905,-0.9954,-1.0246,-1.0323,-1.0531,-1.1051,-1.1664,-1.1817,-1.2129,-1.2359,-1.2352,-1.2345,-1.2366,-1.242,-1.242,-1.2447,-1.2494,-1.2501,-1.2501,-1.2508,-1.2276,-1.2362,-1.2502,-1.2331,-1.2735,-1.3247,-1.3732,-1.4489,-1.5703,-1.6944,-1.7691,-1.8183,-1.851,-1.851,-1.8255,-1.7773,-1.6944,-1.6032,-1.5126,-1.4142,-1.3397,-1.2484,-1.1902,-1.1403,-1.107,-1.082,-1.0737,-1.0737,-1.0721,-1.0721,-1.0737,-1.0737,-1.0715,-1.0677,-1.0541,-1.0394,-1.0302,-1.0172,-1.0047,-1.0003,-0.9938,-0.9818,-0.9629,-0.9069,-0.8607,-0.8314,-0.7811,-0.7208,-0.699,-0.699,-0.699,-0.699,-0.699,-0.699,-0.699,-0.699,-0.699,-0.699,-0.6918,-0.6627,-0.5901,-0.5465,-0.5244,-0.5023,-0.4727,-0.8005,-0.8367,-0.8729,-0.9157,-0.9446,-0.9374,-0.9374,-0.9518,-0.9807,-1.0167,-1.0527,-1.0527,-1.057,-1.0694,-1.0854,-1.0895,-1.1018,-1.1183,-1.1262,-1.1262,-1.1262,-1.1262,-1.1262,-1.134,-1.1178,-1.1184,-1.1029,-1.0868,-1.0845,-1.0558,-1.0474,-1.063,-1.0796,-1.1011,-1.1244,-1.1624,-1.1934,-1.2082,-1.2383,-1.2467,-1.2474,-1.2481,-1.2488,-1.2494,-1.2494,-1.2501,-1.2501,-1.2501,-1.2501,-1.2515,-1.2569,-1.2651,-1.28,-1.3109,-1.3422,-1.3821,-1.4482,-1.5298,-1.6369,-1.6862,-1.7445,-1.8019,-1.8346,-1.8337,-1.7846,-1.7273,-1.6624,-1.5711,-1.4886,-1.3894,-1.2982,-1.2235,-1.1736,-1.1237,-1.0987,-1.0737,-1.0737,-1.0737,-1.0737,-1.0737,-1.0737,-1.0737,-1.0732,-1.0699,-1.0634,-1.0498,-1.0362,-1.0226,-1.009,-1.0036,-0.9998,-0.9905,-0.9715,-0.9236,-0.8756,-0.8362,-0.7783,-0.7071,-0.699,-0.699,-0.699,-0.699,-0.699,-0.699,-0.699,-0.699,-0.699,-0.699,-0.6918,-0.6627,-0.6119,-0.5683,-0.5465,-0.5017,-0.4643,-0.8367,-0.8729,-0.9163,-0.959,-0.9807,-0.959,-0.959,-0.9951,-0.9951,-1.0389,-1.0966,-1.075,-1.0762,-1.0964,-1.0971,-1.1021,-1.1164,-1.1382,-1.147,-1.1417,-1.1572,-1.1495,-1.1495,-1.1495,-1.1572,-1.1417,-1.134,-1.1262,-1.134,-1.1107,-1.1107,-1.134,-1.1495,-1.165,-1.1805,-1.196,-1.2192,-1.2347,-1.2424,-1.2501,-1.2501,-1.2501,-1.2501,-1.2501,-1.2501,-1.2501,-1.2501,-1.2501,-1.2515,-1.2562,-1.2644,-1.28,-1.3109,-1.3503,-1.3821,-1.4339,-1.4961,-1.5793,-1.6534,-1.678,-1.7026,-1.7609,-1.7682,-1.7846,-1.7519,-1.678,-1.5966,-1.5133,-1.4225,-1.3148,-1.2235,-1.1819,-1.132,-1.107,-1.082,-1.0737,-1.0737,-1.0737,-1.0737,-1.0737,-1.0737,-1.0737,-1.0737,-1.071,-1.0672,-1.053,-1.04,-1.0297,-1.0166,-1.0052,-1.0014,-0.9987,-0.973,-0.9406,-0.8915,-0.8503,-0.798,-0.7336,-0.7071,-0.699,-0.699,-0.699,-0.699,-0.699,-0.699,-0.699,-0.699,-0.6918,-0.6773,-0.641,-0.6047,-0.5732,-0.5364,-0.4826,-0.4379,-0.8729,-0.9157,-0.959,-0.9951,-1.0239,-1.0239,-1.0383,-1.0678,-1.0678,-1.0966,-1.1404,-1.1325,-1.1325,-1.143,-1.163,-1.1735,-1.1868,-1.202,-1.2146,-1.2114,-1.2037,-1.2114,-1.2114,-1.2114,-1.2114,-1.2037,-1.1882,-1.1727,-1.165,-1.1495,-1.1495,-1.1727,-1.1882,-1.2037,-1.2192,-1.2269,-1.2424,-1.2501,-1.2501,-1.2501,-1.2501,-1.2501,-1.2501,-1.2501,-1.2501,-1.2501,-1.2501,-1.2515,-1.2549,-1.2657,-1.2698,-1.2913,-1.3591,-1.3729,-1.4059,-1.5028,-1.5546,-1.613,-1.6525,-1.6689,-1.6862,-1.6953,-1.6953,-1.6616,-1.6451,-1.604,-1.5306,-1.4473,-1.3645,-1.2733,-1.1986,-1.1486,-1.1153,-1.0904,-1.0737,-1.0737,-1.0737,-1.0737,-1.0737,-1.0737,-1.0737,-1.0737,-1.0737,-1.0732,-1.0677,-1.0547,-1.0427,-1.0324,-1.0215,-1.009,-1.003,-1.0003,-0.9877,-0.954,-0.9137,-0.8651,-0.8118,-0.7603,-0.7263,-0.7003,-0.699,-0.699,-0.699,-0.699,-0.699,-0.699,-0.699,-0.6845,-0.6631,-0.6268,-0.5901,-0.5578,-0.5261,-0.4655,-0.4049,-0.9159,-0.9672,-1.0006,-1.0383,-1.0678,-1.0894,-1.1109,-1.1404,-1.1116,-1.126,-1.1835,-1.1835,-1.1907,-1.2165,-1.2427,-1.2515,-1.2543,-1.2581,-1.2656,-1.2656,-1.2579,-1.2501,-1.2501,-1.2501,-1.2424,-1.2424,-1.2347,-1.2114,-1.2037,-1.196,-1.196,-1.2114,-1.2114,-1.2269,-1.2424,-1.2501,-1.2501,-1.2501,-1.2501,-1.2501,-1.2501,-1.2501,-1.2501,-1.2501,-1.2501,-1.2508,-1.2522,-1.2542,-1.2651,-1.2759,-1.2793,-1.313,-1.3838,-1.4126,-1.4668,-1.5546,-1.5801,-1.6048,-1.6369,-1.6369,-1.6534,-1.6451,-1.613,-1.5628,-1.5389,-1.5058,-1.4397,-1.3728,-1.3148,-1.2484,-1.1819,-1.1237,-1.0987,-1.0737,-1.0737,-1.0737,-1.0737,-1.0737,-1.0737,-1.0737,-1.0737,-1.0737,-1.0737,-1.0737,-1.0672,-1.0509,-1.0384,-1.0286,-1.0182,-1.0068,-1.0025,-1.0014,-0.9893,-0.9746,-0.9269,-0.8809,-0.8276,-0.7747,-0.7313,-0.7125,-0.7015,-0.699,-0.699,-0.699,-0.699,-0.6918,-0.6845,-0.6627,-0.6341,-0.5977,-0.5531,-0.5069,-0.4743,-0.4338,-0.3806,-0.9606,-1.0331,-1.0531,-1.0934,-1.1168,-1.1534,-1.1907,-1.2122,-1.1548,-1.1548,-1.2194,-1.2266,-1.2417,-1.2648,-1.2897,-1.3051,-1.3079,-1.3151,-1.3042,-1.3042,-1.2733,-1.2579,-1.2501,-1.2501,-1.2501,-1.2501,-1.2501,-1.2424,-1.2501,-1.2347,-1.2347,-1.2501,-1.2501,-1.2501,-1.2501,-1.2501,-1.2501,-1.2501,-1.2501,-1.2501,-1.2501,-1.2501,-1.2501,-1.2508,-1.2522,-1.2535,-1.2569,-1.2644,-1.2759,-1.2861,-1.3056,-1.339,-1.4059,-1.4706,-1.544,-1.5793,-1.5966,-1.5966,-1.5958,-1.5958,-1.5711,-1.5546,-1.5298,-1.4886,-1.4645,-1.4315,-1.3811,-1.3148,-1.2484,-1.1986,-1.132,-1.107,-1.082,-1.0737,-1.0737,-1.0737,-1.0737,-1.0737,-1.0737,-1.0737,-1.0737,-1.0737,-1.0737,-1.0732,-1.0645,-1.0476,-1.0367,-1.028,-1.015,-1.0041,-1.0025,-1.0019,-0.9992,-0.9794,-0.9515,-0.9046,-0.8436,-0.7906,-0.7463,-0.7174,-0.7056,-0.7023,-0.699,-0.699,-0.699,-0.6773,-0.6555,-0.6337,-0.6047,-0.5541,-0.502,-0.449,-0.4164,-0.3836,-0.3379,-1.0449,-1.0955,-1.1657,-1.208,-1.2165,-1.2423,-1.2538,-1.2617,-1.2474,-1.2466,-1.2617,-1.2696,-1.2755,-1.3034,-1.3237,-1.3394,-1.3468,-1.3541,-1.3337,-1.3204,-1.2965,-1.2656,-1.2501,-1.2501,-1.2501,-1.2501,-1.2501,-1.2508,-1.2528,-1.2522,-1.2508,-1.2515,-1.2528,-1.2549,-1.2549,-1.2549,-1.2549,-1.2562,-1.2556,-1.2556,-1.2549,-1.2515,-1.2501,-1.2549,-1.2589,-1.2671,-1.2725,-1.282,-1.2956,-1.3078,-1.3119,-1.3636,-1.4407,-1.5028,-1.5546,-1.5883,-1.5883,-1.5711,-1.5628,-1.5463,-1.5298,-1.4886,-1.4638,-1.4397,-1.4066,-1.3735,-1.3231,-1.2567,-1.1986,-1.1486,-1.107,-1.082,-1.0737,-1.0737,-1.0737,-1.0737,-1.0737,-1.0737,-1.0737,-1.0737,-1.0737,-1.0737,-1.0737,-1.0688,-1.0596,-1.0509,-1.0422,-1.0313,-1.0139,-1.0019,-1.0025,-1.0019,-1.0019,-0.9832,-0.9562,-0.9213,-0.8669,-0.8232,-0.7716,-0.741,-0.7109,-0.7076,-0.7052,-0.7007,-0.6918,-0.6708,-0.6421,-0.6119,-0.5756,-0.5101,-0.4589,-0.4064,-0.3391,-0.3002,-0.2689,-1.1132,-1.1563,-1.2128,-1.2447,-1.2529,-1.2619,-1.2757,-1.296,-1.3039,-1.3111,-1.3269,-1.3195,-1.3287,-1.3563,-1.3772,-1.3837,-1.3976,-1.3976,-1.3799,-1.3513,-1.3134,-1.2811,-1.2656,-1.2522,-1.2501,-1.2501,-1.2508,-1.2522,-1.2589,-1.2617,-1.2623,-1.2678,-1.2691,-1.2691,-1.2691,-1.2698,-1.2691,-1.2712,-1.2691,-1.2691,-1.2678,-1.2651,-1.2664,-1.2712,-1.2773,-1.2834,-1.2881,-1.2969,-1.3071,-1.3261,-1.3479,-1.3795,-1.4361,-1.4796,-1.5133,-1.5298,-1.5298,-1.5298,-1.5133,-1.5058,-1.4901,-1.4502,-1.4239,-1.4163,-1.3645,-1.3231,-1.2733,-1.2152,-1.1736,-1.132,-1.0987,-1.0737,-1.0737,-1.0737,-1.0737,-1.0737,-1.0737,-1.0737,-1.0737,-1.0737,-1.0737,-1.0737,-1.0737,-1.0732,-1.0623,-1.0465,-1.0394,-1.0291,-1.0128,-1.0019,-1.0019,-1.0019,-1.0019,-1.0019,-0.9837,-0.9418,-0.8982,-0.8468,-0.804,-0.7662,-0.7282,-0.7232,-0.7113,-0.7076,-0.697,-0.6662,-0.6367,-0.5991,-0.532,-0.4662,-0.4151,-0.3637,-0.2893,-0.2232,-0.1792,-1.1896,-1.2217,-1.2369,-1.252,-1.2664,-1.2647,-1.2879,-1.3278,-1.3389,-1.3619,-1.3937,-1.3833,-1.3978,-1.4253,-1.4529,-1.4659,-1.4705,-1.4528,-1.4191,-1.3789,-1.3409,-1.3078,-1.2773,-1.2596,-1.2617,-1.2617,-1.2617,-1.2678,-1.2759,-1.2766,-1.2813,-1.2935,-1.3043,-1.3036,-1.3043,-1.3029,-1.2915,-1.2895,-1.2895,-1.3022,-1.2908,-1.2847,-1.2854,-1.2908,-1.2976,-1.3063,-1.303,-1.3105,-1.3186,-1.3323,-1.3645,-1.3858,-1.4135,-1.4473,-1.4631,-1.4796,-1.4878,-1.4818,-1.4675,-1.4697,-1.4463,-1.4221,-1.4116,-1.3784,-1.3284,-1.2875,-1.2374,-1.1933,-1.1516,-1.1248,-1.0915,-1.0748,-1.0748,-1.0748,-1.0748,-1.0748,-1.0748,-1.0742,-1.0742,-1.0742,-1.0737,-1.0737,-1.0737,-1.0737,-1.0634,-1.0471,-1.034,-1.0226,-1.0123,-1.0057,-1.0019,-1.0019,-1.0019,-1.0019,-1.0019,-0.9609,-0.9109,-0.8702,-0.8189,-0.782,-0.7452,-0.731,-0.7186,-0.7162,-0.6981,-0.674,-0.633,-0.5943,-0.5195,-0.4379,-0.3935,-0.3423,-0.2474,-0.1741,-0.0946,-1.2816,-1.3484,-1.3411,-1.3376,-1.3382,-1.3367,-1.3458,-1.3568,-1.3697,-1.3975,-1.4352,-1.4675,-1.4687,-1.4391,-1.4603,-1.4765,-1.4927,-1.4838,-1.447,-1.4009,-1.3781,-1.3397,-1.3044,-1.2779,-1.2854,-1.2847,-1.282,-1.2881,-1.2915,-1.2915,-1.2935,-1.299,-1.2983,-1.2983,-1.2976,-1.2983,-1.293,-1.2936,-1.2862,-1.2883,-1.3004,-1.2943,-1.2942,-1.2996,-1.3071,-1.3105,-1.3173,-1.3281,-1.3336,-1.3452,-1.3542,-1.3728,-1.3991,-1.4163,-1.4336,-1.4441,-1.4517,-1.4499,-1.4459,-1.4405,-1.4189,-1.3935,-1.3844,-1.3654,-1.3238,-1.2743,-1.2295,-1.1716,-1.1356,-1.1043,-1.078,-1.0786,-1.0786,-1.0786,-1.0786,-1.0786,-1.078,-1.077,-1.0759,-1.0753,-1.0742,-1.0742,-1.0737,-1.0721,-1.0677,-1.0536,-1.0433,-1.0313,-1.0177,-1.0101,-1.0036,-1.0019,-1.0019,-1.0019,-1.0019,-0.9708,-0.9299,-0.8823,-0.8343,-0.7821,-0.7527,-0.7372,-0.7256,-0.7239,-0.7148,-0.6904,-0.6485,-0.592,-0.5149,-0.4402,-0.3871,-0.3209,-0.2187,-0.1239,-0.0438]}]]